<?xml version="1.0" encoding="UTF-8" standalone="no" ?>
<gpx xmlns="http://www.topografix.com/GPX/1/1" xmlns:xsi="http://www.w3.org/2001/XMLSchema-instance" xsi:schemaLocation="http://www.topografix.com/GPX/1/1 http://www.topografix.com/GPX/1/1/gpx.xsd" version="1.1" creator="VisuGPX - https://www.visugpx.com">
  <metadata>
    <name>dimanche 2025</name>
  </metadata>
  <wpt lat="45.34815" lon="0.53968">
    <ele>150.1</ele>
    <name><![CDATA[Ravitaillement]]></name>
  </wpt>
  <wpt lat="45.34811" lon="0.54003">
    <ele>149.1</ele>
    <name><![CDATA[Ravitaillement]]></name>
  </wpt>
  <wpt lat="45.34814" lon="0.5397">
    <ele>150</ele>
    <name><![CDATA[Ravitaillement]]></name>
  </wpt>
  <trk>
    <name><![CDATA[dimanche 82km]]></name>
    <extensions>
      <line xmlns="http://www.topografix.com/GPX/gpx_style/0/2">
        <color>0011ff</color>
        <width>6</width>
          <extensions>
            <sens>1</sens>
          </extensions>
      </line>
    </extensions>
    <trkseg>
      <trkpt lat="45.24966" lon="0.33703">
        <ele>72</ele>
        <time>2025-04-16T07:01:23Z</time>
      </trkpt>
      <trkpt lat="45.24984" lon="0.337">
        <ele>72</ele>
        <time>2025-04-16T07:01:26Z</time>
      </trkpt>
      <trkpt lat="45.25077" lon="0.33681">
        <ele>70</ele>
        <time>2025-04-16T07:01:43Z</time>
      </trkpt>
      <trkpt lat="45.25073" lon="0.33623">
        <ele>71</ele>
        <time>2025-04-16T07:01:50Z</time>
      </trkpt>
      <trkpt lat="45.25076" lon="0.33593">
        <ele>72</ele>
        <time>2025-04-16T07:01:54Z</time>
      </trkpt>
      <trkpt lat="45.25116" lon="0.33599">
        <ele>72</ele>
        <time>2025-04-16T07:02:01Z</time>
      </trkpt>
      <trkpt lat="45.25437" lon="0.3365">
        <ele>69</ele>
        <time>2025-04-16T07:02:59Z</time>
      </trkpt>
      <trkpt lat="45.25452" lon="0.33655">
        <ele>70</ele>
        <time>2025-04-16T07:03:01Z</time>
      </trkpt>
      <trkpt lat="45.2553" lon="0.33667">
        <ele>70</ele>
        <time>2025-04-16T07:03:15Z</time>
      </trkpt>
      <trkpt lat="45.25536" lon="0.33672">
        <ele>70</ele>
        <time>2025-04-16T07:03:17Z</time>
      </trkpt>
      <trkpt lat="45.25539" lon="0.33679">
        <ele>69</ele>
        <time>2025-04-16T07:03:18Z</time>
      </trkpt>
      <trkpt lat="45.25541" lon="0.33708">
        <ele>69</ele>
        <time>2025-04-16T07:03:21Z</time>
      </trkpt>
      <trkpt lat="45.2555" lon="0.33766">
        <ele>68</ele>
        <time>2025-04-16T07:03:29Z</time>
      </trkpt>
      <trkpt lat="45.25549" lon="0.33787">
        <ele>67</ele>
        <time>2025-04-16T07:03:31Z</time>
      </trkpt>
      <trkpt lat="45.25547" lon="0.33806">
        <ele>67</ele>
        <time>2025-04-16T07:03:34Z</time>
      </trkpt>
      <trkpt lat="45.25514" lon="0.33974">
        <ele>64</ele>
        <time>2025-04-16T07:03:56Z</time>
      </trkpt>
      <trkpt lat="45.25513" lon="0.33978">
        <ele>64</ele>
        <time>2025-04-16T07:03:56Z</time>
      </trkpt>
      <trkpt lat="45.255" lon="0.34039">
        <ele>64</ele>
        <time>2025-04-16T07:04:04Z</time>
      </trkpt>
      <trkpt lat="45.25494" lon="0.34054">
        <ele>65</ele>
        <time>2025-04-16T07:04:06Z</time>
      </trkpt>
      <trkpt lat="45.25484" lon="0.34069">
        <ele>66</ele>
        <time>2025-04-16T07:04:09Z</time>
      </trkpt>
      <trkpt lat="45.25469" lon="0.34083">
        <ele>66</ele>
        <time>2025-04-16T07:04:12Z</time>
      </trkpt>
      <trkpt lat="45.25455" lon="0.34092">
        <ele>67</ele>
        <time>2025-04-16T07:04:15Z</time>
      </trkpt>
      <trkpt lat="45.25452" lon="0.34092">
        <ele>67</ele>
        <time>2025-04-16T07:04:15Z</time>
      </trkpt>
      <trkpt lat="45.25446" lon="0.34095">
        <ele>68</ele>
        <time>2025-04-16T07:04:16Z</time>
      </trkpt>
      <trkpt lat="45.25443" lon="0.34102">
        <ele>68</ele>
        <time>2025-04-16T07:04:17Z</time>
      </trkpt>
      <trkpt lat="45.25442" lon="0.34109">
        <ele>68</ele>
        <time>2025-04-16T07:04:18Z</time>
      </trkpt>
      <trkpt lat="45.25444" lon="0.34115">
        <ele>68</ele>
        <time>2025-04-16T07:04:19Z</time>
      </trkpt>
      <trkpt lat="45.2545" lon="0.34121">
        <ele>68</ele>
        <time>2025-04-16T07:04:21Z</time>
      </trkpt>
      <trkpt lat="45.25456" lon="0.34121">
        <ele>67</ele>
        <time>2025-04-16T07:04:22Z</time>
      </trkpt>
      <trkpt lat="45.25505" lon="0.34162">
        <ele>65</ele>
        <time>2025-04-16T07:04:32Z</time>
      </trkpt>
      <trkpt lat="45.25581" lon="0.34216">
        <ele>64</ele>
        <time>2025-04-16T07:04:47Z</time>
      </trkpt>
      <trkpt lat="45.25619" lon="0.34246">
        <ele>63</ele>
        <time>2025-04-16T07:04:55Z</time>
      </trkpt>
      <trkpt lat="45.2566" lon="0.34276">
        <ele>61</ele>
        <time>2025-04-16T07:05:03Z</time>
      </trkpt>
      <trkpt lat="45.25678" lon="0.34286">
        <ele>61</ele>
        <time>2025-04-16T07:05:06Z</time>
      </trkpt>
      <trkpt lat="45.25693" lon="0.3429">
        <ele>61</ele>
        <time>2025-04-16T07:05:09Z</time>
      </trkpt>
      <trkpt lat="45.25715" lon="0.34292">
        <ele>62</ele>
        <time>2025-04-16T07:05:13Z</time>
      </trkpt>
      <trkpt lat="45.25768" lon="0.34291">
        <ele>62</ele>
        <time>2025-04-16T07:05:22Z</time>
      </trkpt>
      <trkpt lat="45.25797" lon="0.3429">
        <ele>63</ele>
        <time>2025-04-16T07:05:27Z</time>
      </trkpt>
      <trkpt lat="45.25925" lon="0.34288">
        <ele>61</ele>
        <time>2025-04-16T07:05:50Z</time>
      </trkpt>
      <trkpt lat="45.25963" lon="0.34288">
        <ele>61</ele>
        <time>2025-04-16T07:05:57Z</time>
      </trkpt>
      <trkpt lat="45.26056" lon="0.34284">
        <ele>61</ele>
        <time>2025-04-16T07:06:14Z</time>
      </trkpt>
      <trkpt lat="45.26101" lon="0.34287">
        <ele>61</ele>
        <time>2025-04-16T07:06:22Z</time>
      </trkpt>
      <trkpt lat="45.26115" lon="0.34294">
        <ele>61</ele>
        <time>2025-04-16T07:06:24Z</time>
      </trkpt>
      <trkpt lat="45.26117" lon="0.343">
        <ele>61</ele>
        <time>2025-04-16T07:06:25Z</time>
      </trkpt>
      <trkpt lat="45.26125" lon="0.34303">
        <ele>61</ele>
        <time>2025-04-16T07:06:26Z</time>
      </trkpt>
      <trkpt lat="45.26135" lon="0.34322">
        <ele>61</ele>
        <time>2025-04-16T07:06:29Z</time>
      </trkpt>
      <trkpt lat="45.26249" lon="0.34681">
        <ele>63</ele>
        <time>2025-04-16T07:07:19Z</time>
      </trkpt>
      <trkpt lat="45.26254" lon="0.34713">
        <ele>64</ele>
        <time>2025-04-16T07:07:23Z</time>
      </trkpt>
      <trkpt lat="45.26254" lon="0.34733">
        <ele>64</ele>
        <time>2025-04-16T07:07:25Z</time>
      </trkpt>
      <trkpt lat="45.2625" lon="0.3476">
        <ele>64</ele>
        <time>2025-04-16T07:07:29Z</time>
      </trkpt>
      <trkpt lat="45.26154" lon="0.35333">
        <ele>65</ele>
        <time>2025-04-16T07:08:43Z</time>
      </trkpt>
      <trkpt lat="45.26148" lon="0.35373">
        <ele>65</ele>
        <time>2025-04-16T07:08:48Z</time>
      </trkpt>
      <trkpt lat="45.26146" lon="0.35406">
        <ele>65</ele>
        <time>2025-04-16T07:08:52Z</time>
      </trkpt>
      <trkpt lat="45.26148" lon="0.35455">
        <ele>65</ele>
        <time>2025-04-16T07:08:58Z</time>
      </trkpt>
      <trkpt lat="45.26186" lon="0.35739">
        <ele>66</ele>
        <time>2025-04-16T07:09:34Z</time>
      </trkpt>
      <trkpt lat="45.26191" lon="0.35837">
        <ele>64</ele>
        <time>2025-04-16T07:09:47Z</time>
      </trkpt>
      <trkpt lat="45.26194" lon="0.35955">
        <ele>65</ele>
        <time>2025-04-16T07:10:01Z</time>
      </trkpt>
      <trkpt lat="45.26199" lon="0.36014">
        <ele>66</ele>
        <time>2025-04-16T07:10:09Z</time>
      </trkpt>
      <trkpt lat="45.26214" lon="0.36082">
        <ele>67</ele>
        <time>2025-04-16T07:10:18Z</time>
      </trkpt>
      <trkpt lat="45.26216" lon="0.36088">
        <ele>67</ele>
        <time>2025-04-16T07:10:19Z</time>
      </trkpt>
      <trkpt lat="45.26225" lon="0.36143">
        <ele>68</ele>
        <time>2025-04-16T07:10:26Z</time>
      </trkpt>
      <trkpt lat="45.26225" lon="0.36273">
        <ele>69</ele>
        <time>2025-04-16T07:10:42Z</time>
      </trkpt>
      <trkpt lat="45.26227" lon="0.36312">
        <ele>69</ele>
        <time>2025-04-16T07:10:47Z</time>
      </trkpt>
      <trkpt lat="45.2623" lon="0.36336">
        <ele>69</ele>
        <time>2025-04-16T07:10:50Z</time>
      </trkpt>
      <trkpt lat="45.26238" lon="0.36376">
        <ele>69</ele>
        <time>2025-04-16T07:10:55Z</time>
      </trkpt>
      <trkpt lat="45.2626" lon="0.36454">
        <ele>71</ele>
        <time>2025-04-16T07:11:06Z</time>
      </trkpt>
      <trkpt lat="45.26264" lon="0.36545">
        <ele>71</ele>
        <time>2025-04-16T07:11:17Z</time>
      </trkpt>
      <trkpt lat="45.26299" lon="0.37017">
        <ele>67</ele>
        <time>2025-04-16T07:12:16Z</time>
      </trkpt>
      <trkpt lat="45.26295" lon="0.37219">
        <ele>67</ele>
        <time>2025-04-16T07:12:42Z</time>
      </trkpt>
      <trkpt lat="45.26295" lon="0.37243">
        <ele>68</ele>
        <time>2025-04-16T07:12:45Z</time>
      </trkpt>
      <trkpt lat="45.2629" lon="0.37407">
        <ele>74</ele>
        <time>2025-04-16T07:13:05Z</time>
      </trkpt>
      <trkpt lat="45.26291" lon="0.37435">
        <ele>74</ele>
        <time>2025-04-16T07:13:09Z</time>
      </trkpt>
      <trkpt lat="45.26294" lon="0.37473">
        <ele>74</ele>
        <time>2025-04-16T07:13:14Z</time>
      </trkpt>
      <trkpt lat="45.26304" lon="0.37557">
        <ele>75</ele>
        <time>2025-04-16T07:13:24Z</time>
      </trkpt>
      <trkpt lat="45.26307" lon="0.37659">
        <ele>77</ele>
        <time>2025-04-16T07:13:37Z</time>
      </trkpt>
      <trkpt lat="45.26312" lon="0.3771">
        <ele>78</ele>
        <time>2025-04-16T07:13:43Z</time>
      </trkpt>
      <trkpt lat="45.2632" lon="0.37749">
        <ele>78</ele>
        <time>2025-04-16T07:13:49Z</time>
      </trkpt>
      <trkpt lat="45.26335" lon="0.37798">
        <ele>79</ele>
        <time>2025-04-16T07:13:55Z</time>
      </trkpt>
      <trkpt lat="45.2634" lon="0.37826">
        <ele>79</ele>
        <time>2025-04-16T07:13:59Z</time>
      </trkpt>
      <trkpt lat="45.26342" lon="0.37856">
        <ele>78</ele>
        <time>2025-04-16T07:14:03Z</time>
      </trkpt>
      <trkpt lat="45.26341" lon="0.37884">
        <ele>78</ele>
        <time>2025-04-16T07:14:06Z</time>
      </trkpt>
      <trkpt lat="45.26335" lon="0.37922">
        <ele>77</ele>
        <time>2025-04-16T07:14:11Z</time>
      </trkpt>
      <trkpt lat="45.2631" lon="0.3799">
        <ele>77</ele>
        <time>2025-04-16T07:14:21Z</time>
      </trkpt>
      <trkpt lat="45.26297" lon="0.38032">
        <ele>77</ele>
        <time>2025-04-16T07:14:26Z</time>
      </trkpt>
      <trkpt lat="45.26293" lon="0.38053">
        <ele>77</ele>
        <time>2025-04-16T07:14:29Z</time>
      </trkpt>
      <trkpt lat="45.26288" lon="0.38084">
        <ele>78</ele>
        <time>2025-04-16T07:14:33Z</time>
      </trkpt>
      <trkpt lat="45.26284" lon="0.38172">
        <ele>78</ele>
        <time>2025-04-16T07:14:44Z</time>
      </trkpt>
      <trkpt lat="45.26285" lon="0.38233">
        <ele>78</ele>
        <time>2025-04-16T07:14:52Z</time>
      </trkpt>
      <trkpt lat="45.2629" lon="0.38307">
        <ele>78</ele>
        <time>2025-04-16T07:15:01Z</time>
      </trkpt>
      <trkpt lat="45.26305" lon="0.38475">
        <ele>78</ele>
        <time>2025-04-16T07:15:22Z</time>
      </trkpt>
      <trkpt lat="45.26307" lon="0.38519">
        <ele>78</ele>
        <time>2025-04-16T07:15:28Z</time>
      </trkpt>
      <trkpt lat="45.26304" lon="0.38759">
        <ele>72</ele>
        <time>2025-04-16T07:15:58Z</time>
      </trkpt>
      <trkpt lat="45.26306" lon="0.38785">
        <ele>71</ele>
        <time>2025-04-16T07:16:01Z</time>
      </trkpt>
      <trkpt lat="45.26312" lon="0.38807">
        <ele>71</ele>
        <time>2025-04-16T07:16:04Z</time>
      </trkpt>
      <trkpt lat="45.26329" lon="0.38843">
        <ele>70</ele>
        <time>2025-04-16T07:16:10Z</time>
      </trkpt>
      <trkpt lat="45.26357" lon="0.38898">
        <ele>70</ele>
        <time>2025-04-16T07:16:18Z</time>
      </trkpt>
      <trkpt lat="45.26366" lon="0.38926">
        <ele>69</ele>
        <time>2025-04-16T07:16:22Z</time>
      </trkpt>
      <trkpt lat="45.26368" lon="0.3894">
        <ele>69</ele>
        <time>2025-04-16T07:16:24Z</time>
      </trkpt>
      <trkpt lat="45.26366" lon="0.38959">
        <ele>69</ele>
        <time>2025-04-16T07:16:26Z</time>
      </trkpt>
      <trkpt lat="45.26355" lon="0.39054">
        <ele>68</ele>
        <time>2025-04-16T07:16:38Z</time>
      </trkpt>
      <trkpt lat="45.26355" lon="0.39069">
        <ele>67</ele>
        <time>2025-04-16T07:16:40Z</time>
      </trkpt>
      <trkpt lat="45.26357" lon="0.39081">
        <ele>67</ele>
        <time>2025-04-16T07:16:42Z</time>
      </trkpt>
      <trkpt lat="45.26365" lon="0.3909">
        <ele>67</ele>
        <time>2025-04-16T07:16:43Z</time>
      </trkpt>
      <trkpt lat="45.26373" lon="0.39095">
        <ele>67</ele>
        <time>2025-04-16T07:16:45Z</time>
      </trkpt>
      <trkpt lat="45.26384" lon="0.39096">
        <ele>68</ele>
        <time>2025-04-16T07:16:47Z</time>
      </trkpt>
      <trkpt lat="45.26497" lon="0.39077">
        <ele>68</ele>
        <time>2025-04-16T07:17:07Z</time>
      </trkpt>
      <trkpt lat="45.26536" lon="0.39076">
        <ele>70</ele>
        <time>2025-04-16T07:17:14Z</time>
      </trkpt>
      <trkpt lat="45.26637" lon="0.39091">
        <ele>71</ele>
        <time>2025-04-16T07:17:32Z</time>
      </trkpt>
      <trkpt lat="45.26673" lon="0.39101">
        <ele>72</ele>
        <time>2025-04-16T07:17:39Z</time>
      </trkpt>
      <trkpt lat="45.26691" lon="0.39108">
        <ele>72</ele>
        <time>2025-04-16T07:17:42Z</time>
      </trkpt>
      <trkpt lat="45.26715" lon="0.3913">
        <ele>72</ele>
        <time>2025-04-16T07:17:47Z</time>
      </trkpt>
      <trkpt lat="45.26803" lon="0.39249">
        <ele>71</ele>
        <time>2025-04-16T07:18:09Z</time>
      </trkpt>
      <trkpt lat="45.26813" lon="0.39264">
        <ele>71</ele>
        <time>2025-04-16T07:18:11Z</time>
      </trkpt>
      <trkpt lat="45.26839" lon="0.39304">
        <ele>71</ele>
        <time>2025-04-16T07:18:18Z</time>
      </trkpt>
      <trkpt lat="45.27049" lon="0.39595">
        <ele>84</ele>
        <time>2025-04-16T07:19:10Z</time>
      </trkpt>
      <trkpt lat="45.27067" lon="0.39623">
        <ele>85</ele>
        <time>2025-04-16T07:19:15Z</time>
      </trkpt>
      <trkpt lat="45.2712" lon="0.3973">
        <ele>85</ele>
        <time>2025-04-16T07:19:31Z</time>
      </trkpt>
      <trkpt lat="45.27183" lon="0.3986">
        <ele>83</ele>
        <time>2025-04-16T07:19:51Z</time>
      </trkpt>
      <trkpt lat="45.27211" lon="0.39897">
        <ele>84</ele>
        <time>2025-04-16T07:19:58Z</time>
      </trkpt>
      <trkpt lat="45.27242" lon="0.39936">
        <ele>84</ele>
        <time>2025-04-16T07:20:05Z</time>
      </trkpt>
      <trkpt lat="45.27268" lon="0.39962">
        <ele>85</ele>
        <time>2025-04-16T07:20:11Z</time>
      </trkpt>
      <trkpt lat="45.27294" lon="0.39986">
        <ele>86</ele>
        <time>2025-04-16T07:20:17Z</time>
      </trkpt>
      <trkpt lat="45.27382" lon="0.40043">
        <ele>88</ele>
        <time>2025-04-16T07:20:34Z</time>
      </trkpt>
      <trkpt lat="45.27437" lon="0.40061">
        <ele>87</ele>
        <time>2025-04-16T07:20:44Z</time>
      </trkpt>
      <trkpt lat="45.27511" lon="0.40071">
        <ele>88</ele>
        <time>2025-04-16T07:20:57Z</time>
      </trkpt>
      <trkpt lat="45.27536" lon="0.40079">
        <ele>89</ele>
        <time>2025-04-16T07:21:02Z</time>
      </trkpt>
      <trkpt lat="45.27596" lon="0.40107">
        <ele>90</ele>
        <time>2025-04-16T07:21:13Z</time>
      </trkpt>
      <trkpt lat="45.2772" lon="0.40151">
        <ele>88</ele>
        <time>2025-04-16T07:21:36Z</time>
      </trkpt>
      <trkpt lat="45.27789" lon="0.40157">
        <ele>89</ele>
        <time>2025-04-16T07:21:48Z</time>
      </trkpt>
      <trkpt lat="45.28123" lon="0.40288">
        <ele>93</ele>
        <time>2025-04-16T07:22:50Z</time>
      </trkpt>
      <trkpt lat="45.28147" lon="0.40294">
        <ele>93</ele>
        <time>2025-04-16T07:22:54Z</time>
      </trkpt>
      <trkpt lat="45.28359" lon="0.40327">
        <ele>94</ele>
        <time>2025-04-16T07:23:32Z</time>
      </trkpt>
      <trkpt lat="45.28396" lon="0.40327">
        <ele>95</ele>
        <time>2025-04-16T07:23:38Z</time>
      </trkpt>
      <trkpt lat="45.28502" lon="0.40322">
        <ele>99</ele>
        <time>2025-04-16T07:23:57Z</time>
      </trkpt>
      <trkpt lat="45.28624" lon="0.40306">
        <ele>103</ele>
        <time>2025-04-16T07:24:19Z</time>
      </trkpt>
      <trkpt lat="45.28647" lon="0.40308">
        <ele>103</ele>
        <time>2025-04-16T07:24:23Z</time>
      </trkpt>
      <trkpt lat="45.28816" lon="0.40385">
        <ele>98</ele>
        <time>2025-04-16T07:24:55Z</time>
      </trkpt>
      <trkpt lat="45.28836" lon="0.40392">
        <ele>98</ele>
        <time>2025-04-16T07:24:58Z</time>
      </trkpt>
      <trkpt lat="45.28867" lon="0.40397">
        <ele>100</ele>
        <time>2025-04-16T07:25:04Z</time>
      </trkpt>
      <trkpt lat="45.2889" lon="0.40405">
        <ele>101</ele>
        <time>2025-04-16T07:25:08Z</time>
      </trkpt>
      <trkpt lat="45.28904" lon="0.40415">
        <ele>101</ele>
        <time>2025-04-16T07:25:11Z</time>
      </trkpt>
      <trkpt lat="45.28933" lon="0.40442">
        <ele>102</ele>
        <time>2025-04-16T07:25:17Z</time>
      </trkpt>
      <trkpt lat="45.28946" lon="0.40452">
        <ele>102</ele>
        <time>2025-04-16T07:25:20Z</time>
      </trkpt>
      <trkpt lat="45.29194" lon="0.4055">
        <ele>105</ele>
        <time>2025-04-16T07:26:06Z</time>
      </trkpt>
      <trkpt lat="45.29216" lon="0.40554">
        <ele>105</ele>
        <time>2025-04-16T07:26:10Z</time>
      </trkpt>
      <trkpt lat="45.29258" lon="0.40555">
        <ele>107</ele>
        <time>2025-04-16T07:26:17Z</time>
      </trkpt>
      <trkpt lat="45.29273" lon="0.40557">
        <ele>109</ele>
        <time>2025-04-16T07:26:20Z</time>
      </trkpt>
      <trkpt lat="45.29288" lon="0.40564">
        <ele>109</ele>
        <time>2025-04-16T07:26:22Z</time>
      </trkpt>
      <trkpt lat="45.293" lon="0.40573">
        <ele>109</ele>
        <time>2025-04-16T07:26:25Z</time>
      </trkpt>
      <trkpt lat="45.2931" lon="0.40585">
        <ele>109</ele>
        <time>2025-04-16T07:26:27Z</time>
      </trkpt>
      <trkpt lat="45.29388" lon="0.40687">
        <ele>109</ele>
        <time>2025-04-16T07:26:46Z</time>
      </trkpt>
      <trkpt lat="45.294" lon="0.40707">
        <ele>109</ele>
        <time>2025-04-16T07:26:49Z</time>
      </trkpt>
      <trkpt lat="45.2941" lon="0.40727">
        <ele>109</ele>
        <time>2025-04-16T07:26:52Z</time>
      </trkpt>
      <trkpt lat="45.29521" lon="0.4101">
        <ele>107</ele>
        <time>2025-04-16T07:27:33Z</time>
      </trkpt>
      <trkpt lat="45.29536" lon="0.41032">
        <ele>107</ele>
        <time>2025-04-16T07:27:37Z</time>
      </trkpt>
      <trkpt lat="45.29589" lon="0.41097">
        <ele>106</ele>
        <time>2025-04-16T07:27:49Z</time>
      </trkpt>
      <trkpt lat="45.29695" lon="0.4126">
        <ele>106</ele>
        <time>2025-04-16T07:28:17Z</time>
      </trkpt>
      <trkpt lat="45.29702" lon="0.4127">
        <ele>106</ele>
        <time>2025-04-16T07:28:19Z</time>
      </trkpt>
      <trkpt lat="45.29715" lon="0.41276">
        <ele>107</ele>
        <time>2025-04-16T07:28:21Z</time>
      </trkpt>
      <trkpt lat="45.29741" lon="0.41322">
        <ele>105</ele>
        <time>2025-04-16T07:28:29Z</time>
      </trkpt>
      <trkpt lat="45.29762" lon="0.41364">
        <ele>105</ele>
        <time>2025-04-16T07:28:35Z</time>
      </trkpt>
      <trkpt lat="45.29766" lon="0.41367">
        <ele>105</ele>
        <time>2025-04-16T07:28:36Z</time>
      </trkpt>
      <trkpt lat="45.2977" lon="0.41391">
        <ele>105</ele>
        <time>2025-04-16T07:28:39Z</time>
      </trkpt>
      <trkpt lat="45.29787" lon="0.41445">
        <ele>104</ele>
        <time>2025-04-16T07:28:46Z</time>
      </trkpt>
      <trkpt lat="45.29793" lon="0.41457">
        <ele>104</ele>
        <time>2025-04-16T07:28:48Z</time>
      </trkpt>
      <trkpt lat="45.2985" lon="0.41546">
        <ele>102</ele>
        <time>2025-04-16T07:29:03Z</time>
      </trkpt>
      <trkpt lat="45.29874" lon="0.41592">
        <ele>103</ele>
        <time>2025-04-16T07:29:10Z</time>
      </trkpt>
      <trkpt lat="45.30001" lon="0.41862">
        <ele>110</ele>
        <time>2025-04-16T07:29:51Z</time>
      </trkpt>
      <trkpt lat="45.30017" lon="0.41908">
        <ele>113</ele>
        <time>2025-04-16T07:29:58Z</time>
      </trkpt>
      <trkpt lat="45.30023" lon="0.41938">
        <ele>116</ele>
        <time>2025-04-16T07:30:01Z</time>
      </trkpt>
      <trkpt lat="45.30022" lon="0.41968">
        <ele>118</ele>
        <time>2025-04-16T07:30:05Z</time>
      </trkpt>
      <trkpt lat="45.30018" lon="0.41985">
        <ele>120</ele>
        <time>2025-04-16T07:30:07Z</time>
      </trkpt>
      <trkpt lat="45.30003" lon="0.42019">
        <ele>121</ele>
        <time>2025-04-16T07:30:12Z</time>
      </trkpt>
      <trkpt lat="45.29991" lon="0.42035">
        <ele>121</ele>
        <time>2025-04-16T07:30:15Z</time>
      </trkpt>
      <trkpt lat="45.29975" lon="0.42048">
        <ele>122</ele>
        <time>2025-04-16T07:30:19Z</time>
      </trkpt>
      <trkpt lat="45.29786" lon="0.42173">
        <ele>146</ele>
        <time>2025-04-16T07:30:56Z</time>
      </trkpt>
      <trkpt lat="45.29728" lon="0.42205">
        <ele>150</ele>
        <time>2025-04-16T07:31:07Z</time>
      </trkpt>
      <trkpt lat="45.2963" lon="0.42243">
        <ele>155</ele>
        <time>2025-04-16T07:31:25Z</time>
      </trkpt>
      <trkpt lat="45.29599" lon="0.42259">
        <ele>158</ele>
        <time>2025-04-16T07:31:31Z</time>
      </trkpt>
      <trkpt lat="45.29567" lon="0.4228">
        <ele>159</ele>
        <time>2025-04-16T07:31:37Z</time>
      </trkpt>
      <trkpt lat="45.29542" lon="0.4231">
        <ele>161</ele>
        <time>2025-04-16T07:31:43Z</time>
      </trkpt>
      <trkpt lat="45.29522" lon="0.42345">
        <ele>165</ele>
        <time>2025-04-16T07:31:49Z</time>
      </trkpt>
      <trkpt lat="45.29508" lon="0.42383">
        <ele>169</ele>
        <time>2025-04-16T07:31:54Z</time>
      </trkpt>
      <trkpt lat="45.29495" lon="0.4243">
        <ele>173</ele>
        <time>2025-04-16T07:32:00Z</time>
      </trkpt>
      <trkpt lat="45.29488" lon="0.42492">
        <ele>178</ele>
        <time>2025-04-16T07:32:08Z</time>
      </trkpt>
      <trkpt lat="45.29483" lon="0.42626">
        <ele>178</ele>
        <time>2025-04-16T07:32:25Z</time>
      </trkpt>
      <trkpt lat="45.29469" lon="0.4271">
        <ele>177</ele>
        <time>2025-04-16T07:32:36Z</time>
      </trkpt>
      <trkpt lat="45.29465" lon="0.42763">
        <ele>175</ele>
        <time>2025-04-16T07:32:42Z</time>
      </trkpt>
      <trkpt lat="45.29469" lon="0.42822">
        <ele>174</ele>
        <time>2025-04-16T07:32:50Z</time>
      </trkpt>
      <trkpt lat="45.29478" lon="0.42868">
        <ele>175</ele>
        <time>2025-04-16T07:32:56Z</time>
      </trkpt>
      <trkpt lat="45.29489" lon="0.42901">
        <ele>176</ele>
        <time>2025-04-16T07:33:00Z</time>
      </trkpt>
      <trkpt lat="45.29515" lon="0.42957">
        <ele>177</ele>
        <time>2025-04-16T07:33:09Z</time>
      </trkpt>
      <trkpt lat="45.29576" lon="0.43079">
        <ele>179</ele>
        <time>2025-04-16T07:33:27Z</time>
      </trkpt>
      <trkpt lat="45.29582" lon="0.43094">
        <ele>179</ele>
        <time>2025-04-16T07:33:30Z</time>
      </trkpt>
      <trkpt lat="45.29591" lon="0.43117">
        <ele>180</ele>
        <time>2025-04-16T07:33:33Z</time>
      </trkpt>
      <trkpt lat="45.29614" lon="0.4316">
        <ele>182</ele>
        <time>2025-04-16T07:33:40Z</time>
      </trkpt>
      <trkpt lat="45.29648" lon="0.43203">
        <ele>183</ele>
        <time>2025-04-16T07:33:48Z</time>
      </trkpt>
      <trkpt lat="45.29698" lon="0.43256">
        <ele>184</ele>
        <time>2025-04-16T07:33:59Z</time>
      </trkpt>
      <trkpt lat="45.29729" lon="0.43285">
        <ele>183</ele>
        <time>2025-04-16T07:34:05Z</time>
      </trkpt>
      <trkpt lat="45.29746" lon="0.4331">
        <ele>183</ele>
        <time>2025-04-16T07:34:10Z</time>
      </trkpt>
      <trkpt lat="45.29757" lon="0.43345">
        <ele>181</ele>
        <time>2025-04-16T07:34:15Z</time>
      </trkpt>
      <trkpt lat="45.29765" lon="0.43423">
        <ele>177</ele>
        <time>2025-04-16T07:34:24Z</time>
      </trkpt>
      <trkpt lat="45.29769" lon="0.43504">
        <ele>176</ele>
        <time>2025-04-16T07:34:35Z</time>
      </trkpt>
      <trkpt lat="45.29763" lon="0.4356">
        <ele>178</ele>
        <time>2025-04-16T07:34:42Z</time>
      </trkpt>
      <trkpt lat="45.29753" lon="0.43625">
        <ele>180</ele>
        <time>2025-04-16T07:34:50Z</time>
      </trkpt>
      <trkpt lat="45.29743" lon="0.4366">
        <ele>180</ele>
        <time>2025-04-16T07:34:55Z</time>
      </trkpt>
      <trkpt lat="45.2972" lon="0.43705">
        <ele>181</ele>
        <time>2025-04-16T07:35:02Z</time>
      </trkpt>
      <trkpt lat="45.2969" lon="0.43751">
        <ele>183</ele>
        <time>2025-04-16T07:35:10Z</time>
      </trkpt>
      <trkpt lat="45.29544" lon="0.43925">
        <ele>182</ele>
        <time>2025-04-16T07:35:43Z</time>
      </trkpt>
      <trkpt lat="45.29514" lon="0.43965">
        <ele>179</ele>
        <time>2025-04-16T07:35:51Z</time>
      </trkpt>
      <trkpt lat="45.29496" lon="0.43995">
        <ele>178</ele>
        <time>2025-04-16T07:35:56Z</time>
      </trkpt>
      <trkpt lat="45.29468" lon="0.44064">
        <ele>174</ele>
        <time>2025-04-16T07:36:06Z</time>
      </trkpt>
      <trkpt lat="45.29452" lon="0.44091">
        <ele>173</ele>
        <time>2025-04-16T07:36:10Z</time>
      </trkpt>
      <trkpt lat="45.29431" lon="0.4411">
        <ele>173</ele>
        <time>2025-04-16T07:36:15Z</time>
      </trkpt>
      <trkpt lat="45.29365" lon="0.44138">
        <ele>169</ele>
        <time>2025-04-16T07:36:27Z</time>
      </trkpt>
      <trkpt lat="45.29342" lon="0.44155">
        <ele>166</ele>
        <time>2025-04-16T07:36:31Z</time>
      </trkpt>
      <trkpt lat="45.29328" lon="0.44171">
        <ele>165</ele>
        <time>2025-04-16T07:36:35Z</time>
      </trkpt>
      <trkpt lat="45.2932" lon="0.44184">
        <ele>163</ele>
        <time>2025-04-16T07:36:37Z</time>
      </trkpt>
      <trkpt lat="45.29308" lon="0.44218">
        <ele>161</ele>
        <time>2025-04-16T07:36:42Z</time>
      </trkpt>
      <trkpt lat="45.29299" lon="0.44257">
        <ele>160</ele>
        <time>2025-04-16T07:36:47Z</time>
      </trkpt>
      <trkpt lat="45.29303" lon="0.44296">
        <ele>158</ele>
        <time>2025-04-16T07:36:52Z</time>
      </trkpt>
      <trkpt lat="45.29329" lon="0.44407">
        <ele>152</ele>
        <time>2025-04-16T07:37:06Z</time>
      </trkpt>
      <trkpt lat="45.29351" lon="0.44496">
        <ele>145</ele>
        <time>2025-04-16T07:37:18Z</time>
      </trkpt>
      <trkpt lat="45.29359" lon="0.44556">
        <ele>143</ele>
        <time>2025-04-16T07:37:26Z</time>
      </trkpt>
      <trkpt lat="45.29365" lon="0.44626">
        <ele>139</ele>
        <time>2025-04-16T07:37:35Z</time>
      </trkpt>
      <trkpt lat="45.29373" lon="0.44976">
        <ele>115</ele>
        <time>2025-04-16T07:38:18Z</time>
      </trkpt>
      <trkpt lat="45.29372" lon="0.45001">
        <ele>113</ele>
        <time>2025-04-16T07:38:21Z</time>
      </trkpt>
      <trkpt lat="45.2937" lon="0.45022">
        <ele>112</ele>
        <time>2025-04-16T07:38:24Z</time>
      </trkpt>
      <trkpt lat="45.29363" lon="0.45048">
        <ele>111</ele>
        <time>2025-04-16T07:38:28Z</time>
      </trkpt>
      <trkpt lat="45.29273" lon="0.45326">
        <ele>103</ele>
        <time>2025-04-16T07:39:06Z</time>
      </trkpt>
      <trkpt lat="45.29239" lon="0.45436">
        <ele>102</ele>
        <time>2025-04-16T07:39:21Z</time>
      </trkpt>
      <trkpt lat="45.29237" lon="0.45443">
        <ele>102</ele>
        <time>2025-04-16T07:39:22Z</time>
      </trkpt>
      <trkpt lat="45.29224" lon="0.45481">
        <ele>104</ele>
        <time>2025-04-16T07:39:27Z</time>
      </trkpt>
      <trkpt lat="45.29213" lon="0.45526">
        <ele>106</ele>
        <time>2025-04-16T07:39:33Z</time>
      </trkpt>
      <trkpt lat="45.29207" lon="0.45562">
        <ele>108</ele>
        <time>2025-04-16T07:39:38Z</time>
      </trkpt>
      <trkpt lat="45.292" lon="0.45629">
        <ele>110</ele>
        <time>2025-04-16T07:39:46Z</time>
      </trkpt>
      <trkpt lat="45.29179" lon="0.45758">
        <ele>110</ele>
        <time>2025-04-16T07:40:03Z</time>
      </trkpt>
      <trkpt lat="45.29178" lon="0.45795">
        <ele>112</ele>
        <time>2025-04-16T07:40:07Z</time>
      </trkpt>
      <trkpt lat="45.29186" lon="0.45922">
        <ele>118</ele>
        <time>2025-04-16T07:40:23Z</time>
      </trkpt>
      <trkpt lat="45.2919" lon="0.46003">
        <ele>121</ele>
        <time>2025-04-16T07:40:34Z</time>
      </trkpt>
      <trkpt lat="45.29192" lon="0.46012">
        <ele>122</ele>
        <time>2025-04-16T07:40:35Z</time>
      </trkpt>
      <trkpt lat="45.29195" lon="0.46016">
        <ele>123</ele>
        <time>2025-04-16T07:40:36Z</time>
      </trkpt>
      <trkpt lat="45.29194" lon="0.46038">
        <ele>122</ele>
        <time>2025-04-16T07:40:38Z</time>
      </trkpt>
      <trkpt lat="45.29196" lon="0.46076">
        <ele>123</ele>
        <time>2025-04-16T07:40:43Z</time>
      </trkpt>
      <trkpt lat="45.29204" lon="0.4614">
        <ele>124</ele>
        <time>2025-04-16T07:40:51Z</time>
      </trkpt>
      <trkpt lat="45.29206" lon="0.46175">
        <ele>124</ele>
        <time>2025-04-16T07:40:56Z</time>
      </trkpt>
      <trkpt lat="45.29203" lon="0.46279">
        <ele>125</ele>
        <time>2025-04-16T07:41:09Z</time>
      </trkpt>
      <trkpt lat="45.29205" lon="0.46314">
        <ele>125</ele>
        <time>2025-04-16T07:41:13Z</time>
      </trkpt>
      <trkpt lat="45.29222" lon="0.46403">
        <ele>128</ele>
        <time>2025-04-16T07:41:25Z</time>
      </trkpt>
      <trkpt lat="45.29229" lon="0.46464">
        <ele>128</ele>
        <time>2025-04-16T07:41:32Z</time>
      </trkpt>
      <trkpt lat="45.29233" lon="0.46546">
        <ele>125</ele>
        <time>2025-04-16T07:41:43Z</time>
      </trkpt>
      <trkpt lat="45.29231" lon="0.46568">
        <ele>124</ele>
        <time>2025-04-16T07:41:45Z</time>
      </trkpt>
      <trkpt lat="45.29226" lon="0.46591">
        <ele>123</ele>
        <time>2025-04-16T07:41:48Z</time>
      </trkpt>
      <trkpt lat="45.29214" lon="0.46621">
        <ele>124</ele>
        <time>2025-04-16T07:41:53Z</time>
      </trkpt>
      <trkpt lat="45.292" lon="0.46648">
        <ele>124</ele>
        <time>2025-04-16T07:41:57Z</time>
      </trkpt>
      <trkpt lat="45.29193" lon="0.46676">
        <ele>125</ele>
        <time>2025-04-16T07:42:01Z</time>
      </trkpt>
      <trkpt lat="45.29194" lon="0.46709">
        <ele>127</ele>
        <time>2025-04-16T07:42:05Z</time>
      </trkpt>
      <trkpt lat="45.29208" lon="0.46843">
        <ele>131</ele>
        <time>2025-04-16T07:42:22Z</time>
      </trkpt>
      <trkpt lat="45.29224" lon="0.46895">
        <ele>131</ele>
        <time>2025-04-16T07:42:29Z</time>
      </trkpt>
      <trkpt lat="45.29388" lon="0.47317">
        <ele>136</ele>
        <time>2025-04-16T07:43:29Z</time>
      </trkpt>
      <trkpt lat="45.29394" lon="0.47348">
        <ele>135</ele>
        <time>2025-04-16T07:43:33Z</time>
      </trkpt>
      <trkpt lat="45.29397" lon="0.47379">
        <ele>134</ele>
        <time>2025-04-16T07:43:37Z</time>
      </trkpt>
      <trkpt lat="45.29392" lon="0.47423">
        <ele>133</ele>
        <time>2025-04-16T07:43:43Z</time>
      </trkpt>
      <trkpt lat="45.29382" lon="0.47473">
        <ele>134</ele>
        <time>2025-04-16T07:43:49Z</time>
      </trkpt>
      <trkpt lat="45.29368" lon="0.47505">
        <ele>135</ele>
        <time>2025-04-16T07:43:54Z</time>
      </trkpt>
      <trkpt lat="45.29349" lon="0.47535">
        <ele>136</ele>
        <time>2025-04-16T07:43:59Z</time>
      </trkpt>
      <trkpt lat="45.29326" lon="0.47561">
        <ele>137</ele>
        <time>2025-04-16T07:44:04Z</time>
      </trkpt>
      <trkpt lat="45.29301" lon="0.47583">
        <ele>140</ele>
        <time>2025-04-16T07:44:09Z</time>
      </trkpt>
      <trkpt lat="45.29287" lon="0.47617">
        <ele>144</ele>
        <time>2025-04-16T07:44:14Z</time>
      </trkpt>
      <trkpt lat="45.29285" lon="0.47634">
        <ele>145</ele>
        <time>2025-04-16T07:44:16Z</time>
      </trkpt>
      <trkpt lat="45.29287" lon="0.47651">
        <ele>146</ele>
        <time>2025-04-16T07:44:19Z</time>
      </trkpt>
      <trkpt lat="45.29291" lon="0.4766">
        <ele>146</ele>
        <time>2025-04-16T07:44:20Z</time>
      </trkpt>
      <trkpt lat="45.29301" lon="0.4767">
        <ele>146</ele>
        <time>2025-04-16T07:44:22Z</time>
      </trkpt>
      <trkpt lat="45.29347" lon="0.47685">
        <ele>145</ele>
        <time>2025-04-16T07:44:31Z</time>
      </trkpt>
      <trkpt lat="45.29368" lon="0.47695">
        <ele>146</ele>
        <time>2025-04-16T07:44:34Z</time>
      </trkpt>
      <trkpt lat="45.29377" lon="0.47702">
        <ele>146</ele>
        <time>2025-04-16T07:44:36Z</time>
      </trkpt>
      <trkpt lat="45.29385" lon="0.47715">
        <ele>147</ele>
        <time>2025-04-16T07:44:38Z</time>
      </trkpt>
      <trkpt lat="45.29389" lon="0.47734">
        <ele>149</ele>
        <time>2025-04-16T07:44:41Z</time>
      </trkpt>
      <trkpt lat="45.29393" lon="0.47801">
        <ele>153</ele>
        <time>2025-04-16T07:44:49Z</time>
      </trkpt>
      <trkpt lat="45.29404" lon="0.47875">
        <ele>153</ele>
        <time>2025-04-16T07:44:59Z</time>
      </trkpt>
      <trkpt lat="45.29403" lon="0.47901">
        <ele>153</ele>
        <time>2025-04-16T07:45:02Z</time>
      </trkpt>
      <trkpt lat="45.2939" lon="0.47935">
        <ele>153</ele>
        <time>2025-04-16T07:45:07Z</time>
      </trkpt>
      <trkpt lat="45.29356" lon="0.47995">
        <ele>155</ele>
        <time>2025-04-16T07:45:17Z</time>
      </trkpt>
      <trkpt lat="45.2934" lon="0.48021">
        <ele>155</ele>
        <time>2025-04-16T07:45:21Z</time>
      </trkpt>
      <trkpt lat="45.29319" lon="0.48035">
        <ele>157</ele>
        <time>2025-04-16T07:45:25Z</time>
      </trkpt>
      <trkpt lat="45.29174" lon="0.48101">
        <ele>166</ele>
        <time>2025-04-16T07:45:52Z</time>
      </trkpt>
      <trkpt lat="45.29152" lon="0.48114">
        <ele>168</ele>
        <time>2025-04-16T07:45:56Z</time>
      </trkpt>
      <trkpt lat="45.29138" lon="0.48132">
        <ele>169</ele>
        <time>2025-04-16T07:46:00Z</time>
      </trkpt>
      <trkpt lat="45.29128" lon="0.48157">
        <ele>170</ele>
        <time>2025-04-16T07:46:03Z</time>
      </trkpt>
      <trkpt lat="45.29125" lon="0.48178">
        <ele>171</ele>
        <time>2025-04-16T07:46:06Z</time>
      </trkpt>
      <trkpt lat="45.29125" lon="0.48199">
        <ele>172</ele>
        <time>2025-04-16T07:46:09Z</time>
      </trkpt>
      <trkpt lat="45.29131" lon="0.48221">
        <ele>173</ele>
        <time>2025-04-16T07:46:12Z</time>
      </trkpt>
      <trkpt lat="45.29139" lon="0.4824">
        <ele>173</ele>
        <time>2025-04-16T07:46:14Z</time>
      </trkpt>
      <trkpt lat="45.29151" lon="0.48251">
        <ele>173</ele>
        <time>2025-04-16T07:46:17Z</time>
      </trkpt>
      <trkpt lat="45.29167" lon="0.48259">
        <ele>173</ele>
        <time>2025-04-16T07:46:20Z</time>
      </trkpt>
      <trkpt lat="45.29202" lon="0.48266">
        <ele>172</ele>
        <time>2025-04-16T07:46:26Z</time>
      </trkpt>
      <trkpt lat="45.29215" lon="0.48273">
        <ele>172</ele>
        <time>2025-04-16T07:46:29Z</time>
      </trkpt>
      <trkpt lat="45.29223" lon="0.48281">
        <ele>172</ele>
        <time>2025-04-16T07:46:30Z</time>
      </trkpt>
      <trkpt lat="45.29229" lon="0.48291">
        <ele>172</ele>
        <time>2025-04-16T07:46:32Z</time>
      </trkpt>
      <trkpt lat="45.29234" lon="0.48316">
        <ele>174</ele>
        <time>2025-04-16T07:46:35Z</time>
      </trkpt>
      <trkpt lat="45.29234" lon="0.48334">
        <ele>175</ele>
        <time>2025-04-16T07:46:38Z</time>
      </trkpt>
      <trkpt lat="45.29217" lon="0.48446">
        <ele>179</ele>
        <time>2025-04-16T07:46:52Z</time>
      </trkpt>
      <trkpt lat="45.29217" lon="0.48477">
        <ele>180</ele>
        <time>2025-04-16T07:46:56Z</time>
      </trkpt>
      <trkpt lat="45.29221" lon="0.48497">
        <ele>181</ele>
        <time>2025-04-16T07:46:58Z</time>
      </trkpt>
      <trkpt lat="45.29228" lon="0.48519">
        <ele>182</ele>
        <time>2025-04-16T07:47:01Z</time>
      </trkpt>
      <trkpt lat="45.29244" lon="0.48542">
        <ele>182</ele>
        <time>2025-04-16T07:47:05Z</time>
      </trkpt>
      <trkpt lat="45.29256" lon="0.48552">
        <ele>183</ele>
        <time>2025-04-16T07:47:08Z</time>
      </trkpt>
      <trkpt lat="45.29311" lon="0.48581">
        <ele>187</ele>
        <time>2025-04-16T07:47:18Z</time>
      </trkpt>
      <trkpt lat="45.29343" lon="0.48592">
        <ele>188</ele>
        <time>2025-04-16T07:47:24Z</time>
      </trkpt>
      <trkpt lat="45.29447" lon="0.48641">
        <ele>191</ele>
        <time>2025-04-16T07:47:44Z</time>
      </trkpt>
      <trkpt lat="45.29459" lon="0.48651">
        <ele>192</ele>
        <time>2025-04-16T07:47:46Z</time>
      </trkpt>
      <trkpt lat="45.29476" lon="0.48673">
        <ele>193</ele>
        <time>2025-04-16T07:47:50Z</time>
      </trkpt>
      <trkpt lat="45.29513" lon="0.48764">
        <ele>193</ele>
        <time>2025-04-16T07:48:03Z</time>
      </trkpt>
      <trkpt lat="45.29519" lon="0.48791">
        <ele>193</ele>
        <time>2025-04-16T07:48:07Z</time>
      </trkpt>
      <trkpt lat="45.29525" lon="0.48824">
        <ele>192</ele>
        <time>2025-04-16T07:48:11Z</time>
      </trkpt>
      <trkpt lat="45.29534" lon="0.48853">
        <ele>192</ele>
        <time>2025-04-16T07:48:15Z</time>
      </trkpt>
      <trkpt lat="45.29545" lon="0.48879">
        <ele>192</ele>
        <time>2025-04-16T07:48:19Z</time>
      </trkpt>
      <trkpt lat="45.29577" lon="0.48928">
        <ele>196</ele>
        <time>2025-04-16T07:48:27Z</time>
      </trkpt>
      <trkpt lat="45.29596" lon="0.48974">
        <ele>197</ele>
        <time>2025-04-16T07:48:34Z</time>
      </trkpt>
      <trkpt lat="45.29602" lon="0.48999">
        <ele>196</ele>
        <time>2025-04-16T07:48:37Z</time>
      </trkpt>
      <trkpt lat="45.29606" lon="0.49026">
        <ele>195</ele>
        <time>2025-04-16T07:48:41Z</time>
      </trkpt>
      <trkpt lat="45.29607" lon="0.49053">
        <ele>193</ele>
        <time>2025-04-16T07:48:44Z</time>
      </trkpt>
      <trkpt lat="45.296" lon="0.49112">
        <ele>191</ele>
        <time>2025-04-16T07:48:52Z</time>
      </trkpt>
      <trkpt lat="45.29601" lon="0.49118">
        <ele>191</ele>
        <time>2025-04-16T07:48:52Z</time>
      </trkpt>
      <trkpt lat="45.2969" lon="0.49024">
        <ele>196</ele>
        <time>2025-04-16T07:49:12Z</time>
      </trkpt>
      <trkpt lat="45.29719" lon="0.49003">
        <ele>194</ele>
        <time>2025-04-16T07:49:18Z</time>
      </trkpt>
      <trkpt lat="45.29749" lon="0.48986">
        <ele>191</ele>
        <time>2025-04-16T07:49:24Z</time>
      </trkpt>
      <trkpt lat="45.29791" lon="0.48971">
        <ele>189</ele>
        <time>2025-04-16T07:49:31Z</time>
      </trkpt>
      <trkpt lat="45.299" lon="0.48941">
        <ele>183</ele>
        <time>2025-04-16T07:49:51Z</time>
      </trkpt>
      <trkpt lat="45.3029" lon="0.4888">
        <ele>184</ele>
        <time>2025-04-16T07:51:01Z</time>
      </trkpt>
      <trkpt lat="45.30338" lon="0.48876">
        <ele>187</ele>
        <time>2025-04-16T07:51:10Z</time>
      </trkpt>
      <trkpt lat="45.30372" lon="0.48884">
        <ele>186</ele>
        <time>2025-04-16T07:51:16Z</time>
      </trkpt>
      <trkpt lat="45.30703" lon="0.49015">
        <ele>193</ele>
        <time>2025-04-16T07:52:17Z</time>
      </trkpt>
      <trkpt lat="45.30831" lon="0.49062">
        <ele>200</ele>
        <time>2025-04-16T07:52:40Z</time>
      </trkpt>
      <trkpt lat="45.30876" lon="0.49075">
        <ele>201</ele>
        <time>2025-04-16T07:52:49Z</time>
      </trkpt>
      <trkpt lat="45.30905" lon="0.49073">
        <ele>201</ele>
        <time>2025-04-16T07:52:54Z</time>
      </trkpt>
      <trkpt lat="45.3111" lon="0.4898">
        <ele>196</ele>
        <time>2025-04-16T07:53:32Z</time>
      </trkpt>
      <trkpt lat="45.31146" lon="0.48969">
        <ele>193</ele>
        <time>2025-04-16T07:53:39Z</time>
      </trkpt>
      <trkpt lat="45.31177" lon="0.48967">
        <ele>191</ele>
        <time>2025-04-16T07:53:44Z</time>
      </trkpt>
      <trkpt lat="45.31209" lon="0.48981">
        <ele>189</ele>
        <time>2025-04-16T07:53:50Z</time>
      </trkpt>
      <trkpt lat="45.31287" lon="0.49025">
        <ele>182</ele>
        <time>2025-04-16T07:54:05Z</time>
      </trkpt>
      <trkpt lat="45.31306" lon="0.49038">
        <ele>181</ele>
        <time>2025-04-16T07:54:09Z</time>
      </trkpt>
      <trkpt lat="45.3132" lon="0.49052">
        <ele>180</ele>
        <time>2025-04-16T07:54:12Z</time>
      </trkpt>
      <trkpt lat="45.3135" lon="0.49097">
        <ele>176</ele>
        <time>2025-04-16T07:54:20Z</time>
      </trkpt>
      <trkpt lat="45.31373" lon="0.49124">
        <ele>173</ele>
        <time>2025-04-16T07:54:25Z</time>
      </trkpt>
      <trkpt lat="45.31389" lon="0.49141">
        <ele>173</ele>
        <time>2025-04-16T07:54:28Z</time>
      </trkpt>
      <trkpt lat="45.31406" lon="0.49152">
        <ele>173</ele>
        <time>2025-04-16T07:54:32Z</time>
      </trkpt>
      <trkpt lat="45.31419" lon="0.49156">
        <ele>173</ele>
        <time>2025-04-16T07:54:34Z</time>
      </trkpt>
      <trkpt lat="45.3143" lon="0.49157">
        <ele>172</ele>
        <time>2025-04-16T07:54:36Z</time>
      </trkpt>
      <trkpt lat="45.31444" lon="0.49154">
        <ele>171</ele>
        <time>2025-04-16T07:54:39Z</time>
      </trkpt>
      <trkpt lat="45.31544" lon="0.49107">
        <ele>167</ele>
        <time>2025-04-16T07:54:57Z</time>
      </trkpt>
      <trkpt lat="45.31565" lon="0.49104">
        <ele>166</ele>
        <time>2025-04-16T07:55:01Z</time>
      </trkpt>
      <trkpt lat="45.31593" lon="0.49107">
        <ele>166</ele>
        <time>2025-04-16T07:55:06Z</time>
      </trkpt>
      <trkpt lat="45.31618" lon="0.49116">
        <ele>168</ele>
        <time>2025-04-16T07:55:11Z</time>
      </trkpt>
      <trkpt lat="45.31726" lon="0.49161">
        <ele>171</ele>
        <time>2025-04-16T07:55:31Z</time>
      </trkpt>
      <trkpt lat="45.31914" lon="0.49248">
        <ele>169</ele>
        <time>2025-04-16T07:56:06Z</time>
      </trkpt>
      <trkpt lat="45.31937" lon="0.49253">
        <ele>169</ele>
        <time>2025-04-16T07:56:10Z</time>
      </trkpt>
      <trkpt lat="45.31959" lon="0.49254">
        <ele>168</ele>
        <time>2025-04-16T07:56:14Z</time>
      </trkpt>
      <trkpt lat="45.32076" lon="0.49225">
        <ele>169</ele>
        <time>2025-04-16T07:56:35Z</time>
      </trkpt>
      <trkpt lat="45.32109" lon="0.4922">
        <ele>169</ele>
        <time>2025-04-16T07:56:41Z</time>
      </trkpt>
      <trkpt lat="45.32147" lon="0.49217">
        <ele>168</ele>
        <time>2025-04-16T07:56:48Z</time>
      </trkpt>
      <trkpt lat="45.32165" lon="0.49218">
        <ele>167</ele>
        <time>2025-04-16T07:56:51Z</time>
      </trkpt>
      <trkpt lat="45.32189" lon="0.4923">
        <ele>166</ele>
        <time>2025-04-16T07:56:55Z</time>
      </trkpt>
      <trkpt lat="45.32225" lon="0.49257">
        <ele>164</ele>
        <time>2025-04-16T07:57:03Z</time>
      </trkpt>
      <trkpt lat="45.323" lon="0.49297">
        <ele>161</ele>
        <time>2025-04-16T07:57:17Z</time>
      </trkpt>
      <trkpt lat="45.32358" lon="0.49334">
        <ele>158</ele>
        <time>2025-04-16T07:57:28Z</time>
      </trkpt>
      <trkpt lat="45.32422" lon="0.49403">
        <ele>149</ele>
        <time>2025-04-16T07:57:43Z</time>
      </trkpt>
      <trkpt lat="45.32449" lon="0.49432">
        <ele>147</ele>
        <time>2025-04-16T07:57:49Z</time>
      </trkpt>
      <trkpt lat="45.32459" lon="0.49439">
        <ele>147</ele>
        <time>2025-04-16T07:57:51Z</time>
      </trkpt>
      <trkpt lat="45.32506" lon="0.49466">
        <ele>143</ele>
        <time>2025-04-16T07:58:00Z</time>
      </trkpt>
      <trkpt lat="45.3252" lon="0.4948">
        <ele>143</ele>
        <time>2025-04-16T07:58:03Z</time>
      </trkpt>
      <trkpt lat="45.32585" lon="0.49562">
        <ele>142</ele>
        <time>2025-04-16T07:58:18Z</time>
      </trkpt>
      <trkpt lat="45.32598" lon="0.49574">
        <ele>141</ele>
        <time>2025-04-16T07:58:21Z</time>
      </trkpt>
      <trkpt lat="45.32642" lon="0.49604">
        <ele>140</ele>
        <time>2025-04-16T07:58:29Z</time>
      </trkpt>
      <trkpt lat="45.32652" lon="0.49615">
        <ele>139</ele>
        <time>2025-04-16T07:58:32Z</time>
      </trkpt>
      <trkpt lat="45.32734" lon="0.49732">
        <ele>139</ele>
        <time>2025-04-16T07:58:52Z</time>
      </trkpt>
      <trkpt lat="45.3275" lon="0.49747">
        <ele>139</ele>
        <time>2025-04-16T07:58:56Z</time>
      </trkpt>
      <trkpt lat="45.32789" lon="0.49758">
        <ele>139</ele>
        <time>2025-04-16T07:59:03Z</time>
      </trkpt>
      <trkpt lat="45.32821" lon="0.49758">
        <ele>138</ele>
        <time>2025-04-16T07:59:09Z</time>
      </trkpt>
      <trkpt lat="45.32853" lon="0.4975">
        <ele>138</ele>
        <time>2025-04-16T07:59:14Z</time>
      </trkpt>
      <trkpt lat="45.32879" lon="0.49737">
        <ele>136</ele>
        <time>2025-04-16T07:59:19Z</time>
      </trkpt>
      <trkpt lat="45.32945" lon="0.49694">
        <ele>128</ele>
        <time>2025-04-16T07:59:32Z</time>
      </trkpt>
      <trkpt lat="45.32981" lon="0.49678">
        <ele>123</ele>
        <time>2025-04-16T07:59:39Z</time>
      </trkpt>
      <trkpt lat="45.32999" lon="0.4968">
        <ele>122</ele>
        <time>2025-04-16T07:59:42Z</time>
      </trkpt>
      <trkpt lat="45.33016" lon="0.49687">
        <ele>121</ele>
        <time>2025-04-16T07:59:45Z</time>
      </trkpt>
      <trkpt lat="45.33035" lon="0.49704">
        <ele>119</ele>
        <time>2025-04-16T07:59:49Z</time>
      </trkpt>
      <trkpt lat="45.33065" lon="0.49741">
        <ele>116</ele>
        <time>2025-04-16T07:59:56Z</time>
      </trkpt>
      <trkpt lat="45.3311" lon="0.49805">
        <ele>113</ele>
        <time>2025-04-16T08:00:08Z</time>
      </trkpt>
      <trkpt lat="45.33127" lon="0.49823">
        <ele>111</ele>
        <time>2025-04-16T08:00:11Z</time>
      </trkpt>
      <trkpt lat="45.33142" lon="0.49835">
        <ele>110</ele>
        <time>2025-04-16T08:00:14Z</time>
      </trkpt>
      <trkpt lat="45.33207" lon="0.49879">
        <ele>109</ele>
        <time>2025-04-16T08:00:27Z</time>
      </trkpt>
      <trkpt lat="45.33225" lon="0.49894">
        <ele>109</ele>
        <time>2025-04-16T08:00:31Z</time>
      </trkpt>
      <trkpt lat="45.33232" lon="0.49903">
        <ele>109</ele>
        <time>2025-04-16T08:00:33Z</time>
      </trkpt>
      <trkpt lat="45.33334" lon="0.50128">
        <ele>103</ele>
        <time>2025-04-16T08:01:06Z</time>
      </trkpt>
      <trkpt lat="45.3334" lon="0.50143">
        <ele>103</ele>
        <time>2025-04-16T08:01:08Z</time>
      </trkpt>
      <trkpt lat="45.33417" lon="0.50311">
        <ele>100</ele>
        <time>2025-04-16T08:01:33Z</time>
      </trkpt>
      <trkpt lat="45.33428" lon="0.50329">
        <ele>100</ele>
        <time>2025-04-16T08:01:36Z</time>
      </trkpt>
      <trkpt lat="45.33432" lon="0.50305">
        <ele>101</ele>
        <time>2025-04-16T08:01:39Z</time>
      </trkpt>
      <trkpt lat="45.33436" lon="0.50248">
        <ele>103</ele>
        <time>2025-04-16T08:01:47Z</time>
      </trkpt>
      <trkpt lat="45.33436" lon="0.50201">
        <ele>104</ele>
        <time>2025-04-16T08:01:52Z</time>
      </trkpt>
      <trkpt lat="45.3344" lon="0.50148">
        <ele>105</ele>
        <time>2025-04-16T08:01:59Z</time>
      </trkpt>
      <trkpt lat="45.33453" lon="0.501">
        <ele>106</ele>
        <time>2025-04-16T08:02:06Z</time>
      </trkpt>
      <trkpt lat="45.33474" lon="0.50037">
        <ele>107</ele>
        <time>2025-04-16T08:02:14Z</time>
      </trkpt>
      <trkpt lat="45.33497" lon="0.49991">
        <ele>107</ele>
        <time>2025-04-16T08:02:21Z</time>
      </trkpt>
      <trkpt lat="45.33628" lon="0.49804">
        <ele>109</ele>
        <time>2025-04-16T08:02:54Z</time>
      </trkpt>
      <trkpt lat="45.33713" lon="0.49703">
        <ele>112</ele>
        <time>2025-04-16T08:03:14Z</time>
      </trkpt>
      <trkpt lat="45.33742" lon="0.49658">
        <ele>112</ele>
        <time>2025-04-16T08:03:22Z</time>
      </trkpt>
      <trkpt lat="45.33768" lon="0.496">
        <ele>112</ele>
        <time>2025-04-16T08:03:30Z</time>
      </trkpt>
      <trkpt lat="45.33852" lon="0.49349">
        <ele>114</ele>
        <time>2025-04-16T08:04:05Z</time>
      </trkpt>
      <trkpt lat="45.33912" lon="0.49113">
        <ele>112</ele>
        <time>2025-04-16T08:04:37Z</time>
      </trkpt>
      <trkpt lat="45.33937" lon="0.49006">
        <ele>116</ele>
        <time>2025-04-16T08:04:51Z</time>
      </trkpt>
      <trkpt lat="45.33951" lon="0.48954">
        <ele>117</ele>
        <time>2025-04-16T08:04:58Z</time>
      </trkpt>
      <trkpt lat="45.33989" lon="0.48849">
        <ele>116</ele>
        <time>2025-04-16T08:05:12Z</time>
      </trkpt>
      <trkpt lat="45.34003" lon="0.48787">
        <ele>116</ele>
        <time>2025-04-16T08:05:20Z</time>
      </trkpt>
      <trkpt lat="45.34056" lon="0.485">
        <ele>118</ele>
        <time>2025-04-16T08:05:58Z</time>
      </trkpt>
      <trkpt lat="45.34065" lon="0.48464">
        <ele>118</ele>
        <time>2025-04-16T08:06:02Z</time>
      </trkpt>
      <trkpt lat="45.3408" lon="0.48432">
        <ele>119</ele>
        <time>2025-04-16T08:06:07Z</time>
      </trkpt>
      <trkpt lat="45.341" lon="0.48402">
        <ele>120</ele>
        <time>2025-04-16T08:06:12Z</time>
      </trkpt>
      <trkpt lat="45.34146" lon="0.48367">
        <ele>120</ele>
        <time>2025-04-16T08:06:22Z</time>
      </trkpt>
      <trkpt lat="45.34158" lon="0.48362">
        <ele>120</ele>
        <time>2025-04-16T08:06:24Z</time>
      </trkpt>
      <trkpt lat="45.34184" lon="0.48342">
        <ele>120</ele>
        <time>2025-04-16T08:06:29Z</time>
      </trkpt>
      <trkpt lat="45.34215" lon="0.4831">
        <ele>121</ele>
        <time>2025-04-16T08:06:36Z</time>
      </trkpt>
      <trkpt lat="45.3425" lon="0.48264">
        <ele>120</ele>
        <time>2025-04-16T08:06:44Z</time>
      </trkpt>
      <trkpt lat="45.34265" lon="0.48229">
        <ele>119</ele>
        <time>2025-04-16T08:06:50Z</time>
      </trkpt>
      <trkpt lat="45.34269" lon="0.48189">
        <ele>119</ele>
        <time>2025-04-16T08:06:55Z</time>
      </trkpt>
      <trkpt lat="45.34282" lon="0.47965">
        <ele>122</ele>
        <time>2025-04-16T08:07:23Z</time>
      </trkpt>
      <trkpt lat="45.34286" lon="0.47843">
        <ele>124</ele>
        <time>2025-04-16T08:07:38Z</time>
      </trkpt>
      <trkpt lat="45.34284" lon="0.47814">
        <ele>124</ele>
        <time>2025-04-16T08:07:42Z</time>
      </trkpt>
      <trkpt lat="45.3428" lon="0.47792">
        <ele>124</ele>
        <time>2025-04-16T08:07:44Z</time>
      </trkpt>
      <trkpt lat="45.34274" lon="0.47773">
        <ele>124</ele>
        <time>2025-04-16T08:07:47Z</time>
      </trkpt>
      <trkpt lat="45.34269" lon="0.47762">
        <ele>124</ele>
        <time>2025-04-16T08:07:49Z</time>
      </trkpt>
      <trkpt lat="45.34211" lon="0.47627">
        <ele>125</ele>
        <time>2025-04-16T08:08:08Z</time>
      </trkpt>
      <trkpt lat="45.34205" lon="0.47604">
        <ele>126</ele>
        <time>2025-04-16T08:08:12Z</time>
      </trkpt>
      <trkpt lat="45.34201" lon="0.474">
        <ele>128</ele>
        <time>2025-04-16T08:08:37Z</time>
      </trkpt>
      <trkpt lat="45.34193" lon="0.47322">
        <ele>129</ele>
        <time>2025-04-16T08:08:47Z</time>
      </trkpt>
      <trkpt lat="45.34191" lon="0.47284">
        <ele>129</ele>
        <time>2025-04-16T08:08:52Z</time>
      </trkpt>
      <trkpt lat="45.34196" lon="0.47238">
        <ele>129</ele>
        <time>2025-04-16T08:08:58Z</time>
      </trkpt>
      <trkpt lat="45.3421" lon="0.47183">
        <ele>127</ele>
        <time>2025-04-16T08:09:05Z</time>
      </trkpt>
      <trkpt lat="45.342" lon="0.47045">
        <ele>127</ele>
        <time>2025-04-16T08:09:22Z</time>
      </trkpt>
      <trkpt lat="45.34213" lon="0.46965">
        <ele>127</ele>
        <time>2025-04-16T08:09:32Z</time>
      </trkpt>
      <trkpt lat="45.34239" lon="0.46833">
        <ele>126</ele>
        <time>2025-04-16T08:09:50Z</time>
      </trkpt>
      <trkpt lat="45.34238" lon="0.4682">
        <ele>126</ele>
        <time>2025-04-16T08:09:51Z</time>
      </trkpt>
      <trkpt lat="45.34236" lon="0.46807">
        <ele>126</ele>
        <time>2025-04-16T08:09:53Z</time>
      </trkpt>
      <trkpt lat="45.34226" lon="0.46771">
        <ele>127</ele>
        <time>2025-04-16T08:09:58Z</time>
      </trkpt>
      <trkpt lat="45.3422" lon="0.46731">
        <ele>127</ele>
        <time>2025-04-16T08:10:03Z</time>
      </trkpt>
      <trkpt lat="45.34211" lon="0.46635">
        <ele>128</ele>
        <time>2025-04-16T08:10:15Z</time>
      </trkpt>
      <trkpt lat="45.34206" lon="0.46616">
        <ele>128</ele>
        <time>2025-04-16T08:10:18Z</time>
      </trkpt>
      <trkpt lat="45.34178" lon="0.46563">
        <ele>130</ele>
        <time>2025-04-16T08:10:26Z</time>
      </trkpt>
      <trkpt lat="45.34162" lon="0.46541">
        <ele>131</ele>
        <time>2025-04-16T08:10:30Z</time>
      </trkpt>
      <trkpt lat="45.34154" lon="0.46516">
        <ele>132</ele>
        <time>2025-04-16T08:10:33Z</time>
      </trkpt>
      <trkpt lat="45.34151" lon="0.4649">
        <ele>133</ele>
        <time>2025-04-16T08:10:36Z</time>
      </trkpt>
      <trkpt lat="45.34148" lon="0.46402">
        <ele>134</ele>
        <time>2025-04-16T08:10:48Z</time>
      </trkpt>
      <trkpt lat="45.3415" lon="0.46326">
        <ele>135</ele>
        <time>2025-04-16T08:10:57Z</time>
      </trkpt>
      <trkpt lat="45.34149" lon="0.46303">
        <ele>135</ele>
        <time>2025-04-16T08:11:00Z</time>
      </trkpt>
      <trkpt lat="45.34136" lon="0.4619">
        <ele>138</ele>
        <time>2025-04-16T08:11:14Z</time>
      </trkpt>
      <trkpt lat="45.34144" lon="0.46044">
        <ele>136</ele>
        <time>2025-04-16T08:11:33Z</time>
      </trkpt>
      <trkpt lat="45.34153" lon="0.46">
        <ele>135</ele>
        <time>2025-04-16T08:11:38Z</time>
      </trkpt>
      <trkpt lat="45.3418" lon="0.45896">
        <ele>136</ele>
        <time>2025-04-16T08:11:52Z</time>
      </trkpt>
      <trkpt lat="45.34182" lon="0.45875">
        <ele>136</ele>
        <time>2025-04-16T08:11:55Z</time>
      </trkpt>
      <trkpt lat="45.3418" lon="0.45852">
        <ele>136</ele>
        <time>2025-04-16T08:11:58Z</time>
      </trkpt>
      <trkpt lat="45.3416" lon="0.45701">
        <ele>135</ele>
        <time>2025-04-16T08:12:17Z</time>
      </trkpt>
      <trkpt lat="45.3416" lon="0.45636">
        <ele>135</ele>
        <time>2025-04-16T08:12:25Z</time>
      </trkpt>
      <trkpt lat="45.34162" lon="0.45589">
        <ele>135</ele>
        <time>2025-04-16T08:12:31Z</time>
      </trkpt>
      <trkpt lat="45.34168" lon="0.45546">
        <ele>136</ele>
        <time>2025-04-16T08:12:36Z</time>
      </trkpt>
      <trkpt lat="45.34185" lon="0.45469">
        <ele>139</ele>
        <time>2025-04-16T08:12:46Z</time>
      </trkpt>
      <trkpt lat="45.34189" lon="0.45427">
        <ele>139</ele>
        <time>2025-04-16T08:12:52Z</time>
      </trkpt>
      <trkpt lat="45.34179" lon="0.45301">
        <ele>141</ele>
        <time>2025-04-16T08:13:08Z</time>
      </trkpt>
      <trkpt lat="45.34178" lon="0.45251">
        <ele>141</ele>
        <time>2025-04-16T08:13:14Z</time>
      </trkpt>
      <trkpt lat="45.3418" lon="0.45218">
        <ele>140</ele>
        <time>2025-04-16T08:13:18Z</time>
      </trkpt>
      <trkpt lat="45.34203" lon="0.45142">
        <ele>138</ele>
        <time>2025-04-16T08:13:28Z</time>
      </trkpt>
      <trkpt lat="45.34225" lon="0.4506">
        <ele>138</ele>
        <time>2025-04-16T08:13:39Z</time>
      </trkpt>
      <trkpt lat="45.34231" lon="0.45004">
        <ele>137</ele>
        <time>2025-04-16T08:13:46Z</time>
      </trkpt>
      <trkpt lat="45.34231" lon="0.44965">
        <ele>136</ele>
        <time>2025-04-16T08:13:51Z</time>
      </trkpt>
      <trkpt lat="45.34226" lon="0.44892">
        <ele>136</ele>
        <time>2025-04-16T08:14:01Z</time>
      </trkpt>
      <trkpt lat="45.34227" lon="0.44821">
        <ele>138</ele>
        <time>2025-04-16T08:14:09Z</time>
      </trkpt>
      <trkpt lat="45.34232" lon="0.44764">
        <ele>140</ele>
        <time>2025-04-16T08:14:17Z</time>
      </trkpt>
      <trkpt lat="45.34256" lon="0.44668">
        <ele>141</ele>
        <time>2025-04-16T08:14:29Z</time>
      </trkpt>
      <trkpt lat="45.34318" lon="0.44543">
        <ele>137</ele>
        <time>2025-04-16T08:14:48Z</time>
      </trkpt>
      <trkpt lat="45.34425" lon="0.44346">
        <ele>140</ele>
        <time>2025-04-16T08:15:20Z</time>
      </trkpt>
      <trkpt lat="45.34457" lon="0.44264">
        <ele>143</ele>
        <time>2025-04-16T08:15:31Z</time>
      </trkpt>
      <trkpt lat="45.34501" lon="0.44109">
        <ele>143</ele>
        <time>2025-04-16T08:15:52Z</time>
      </trkpt>
      <trkpt lat="45.34561" lon="0.43877">
        <ele>141</ele>
        <time>2025-04-16T08:16:23Z</time>
      </trkpt>
      <trkpt lat="45.3459" lon="0.43894">
        <ele>139</ele>
        <time>2025-04-16T08:16:29Z</time>
      </trkpt>
      <trkpt lat="45.34617" lon="0.43905">
        <ele>137</ele>
        <time>2025-04-16T08:16:34Z</time>
      </trkpt>
      <trkpt lat="45.34649" lon="0.43909">
        <ele>137</ele>
        <time>2025-04-16T08:16:39Z</time>
      </trkpt>
      <trkpt lat="45.34763" lon="0.43915">
        <ele>137</ele>
        <time>2025-04-16T08:17:00Z</time>
      </trkpt>
      <trkpt lat="45.34786" lon="0.4392">
        <ele>138</ele>
        <time>2025-04-16T08:17:04Z</time>
      </trkpt>
      <trkpt lat="45.34835" lon="0.43934">
        <ele>138</ele>
        <time>2025-04-16T08:17:13Z</time>
      </trkpt>
      <trkpt lat="45.34856" lon="0.43945">
        <ele>139</ele>
        <time>2025-04-16T08:17:17Z</time>
      </trkpt>
      <trkpt lat="45.34863" lon="0.43951">
        <ele>139</ele>
        <time>2025-04-16T08:17:18Z</time>
      </trkpt>
      <trkpt lat="45.34871" lon="0.4396">
        <ele>139</ele>
        <time>2025-04-16T08:17:20Z</time>
      </trkpt>
      <trkpt lat="45.34887" lon="0.43983">
        <ele>138</ele>
        <time>2025-04-16T08:17:24Z</time>
      </trkpt>
      <trkpt lat="45.34919" lon="0.44052">
        <ele>139</ele>
        <time>2025-04-16T08:17:34Z</time>
      </trkpt>
      <trkpt lat="45.34967" lon="0.44154">
        <ele>143</ele>
        <time>2025-04-16T08:17:50Z</time>
      </trkpt>
      <trkpt lat="45.34987" lon="0.4418">
        <ele>145</ele>
        <time>2025-04-16T08:17:55Z</time>
      </trkpt>
      <trkpt lat="45.35092" lon="0.44273">
        <ele>153</ele>
        <time>2025-04-16T08:18:17Z</time>
      </trkpt>
      <trkpt lat="45.35128" lon="0.44289">
        <ele>154</ele>
        <time>2025-04-16T08:18:23Z</time>
      </trkpt>
      <trkpt lat="45.35168" lon="0.44294">
        <ele>155</ele>
        <time>2025-04-16T08:18:30Z</time>
      </trkpt>
      <trkpt lat="45.3545" lon="0.44311">
        <ele>154</ele>
        <time>2025-04-16T08:19:21Z</time>
      </trkpt>
      <trkpt lat="45.35538" lon="0.44311">
        <ele>156</ele>
        <time>2025-04-16T08:19:36Z</time>
      </trkpt>
      <trkpt lat="45.35583" lon="0.44307">
        <ele>156</ele>
        <time>2025-04-16T08:19:44Z</time>
      </trkpt>
      <trkpt lat="45.35831" lon="0.44259">
        <ele>145</ele>
        <time>2025-04-16T08:20:29Z</time>
      </trkpt>
      <trkpt lat="45.35876" lon="0.4425">
        <ele>145</ele>
        <time>2025-04-16T08:20:37Z</time>
      </trkpt>
      <trkpt lat="45.359" lon="0.44249">
        <ele>145</ele>
        <time>2025-04-16T08:20:41Z</time>
      </trkpt>
      <trkpt lat="45.36103" lon="0.4426">
        <ele>146</ele>
        <time>2025-04-16T08:21:17Z</time>
      </trkpt>
      <trkpt lat="45.36126" lon="0.44264">
        <ele>145</ele>
        <time>2025-04-16T08:21:21Z</time>
      </trkpt>
      <trkpt lat="45.3615" lon="0.44272">
        <ele>144</ele>
        <time>2025-04-16T08:21:26Z</time>
      </trkpt>
      <trkpt lat="45.36168" lon="0.44281">
        <ele>144</ele>
        <time>2025-04-16T08:21:29Z</time>
      </trkpt>
      <trkpt lat="45.36192" lon="0.44297">
        <ele>143</ele>
        <time>2025-04-16T08:21:34Z</time>
      </trkpt>
      <trkpt lat="45.36259" lon="0.44357">
        <ele>140</ele>
        <time>2025-04-16T08:21:48Z</time>
      </trkpt>
      <trkpt lat="45.36324" lon="0.44443">
        <ele>137</ele>
        <time>2025-04-16T08:22:04Z</time>
      </trkpt>
      <trkpt lat="45.36402" lon="0.44563">
        <ele>138</ele>
        <time>2025-04-16T08:22:24Z</time>
      </trkpt>
      <trkpt lat="45.36448" lon="0.44616">
        <ele>142</ele>
        <time>2025-04-16T08:22:35Z</time>
      </trkpt>
      <trkpt lat="45.36491" lon="0.44603">
        <ele>145</ele>
        <time>2025-04-16T08:22:43Z</time>
      </trkpt>
      <trkpt lat="45.36502" lon="0.44604">
        <ele>146</ele>
        <time>2025-04-16T08:22:45Z</time>
      </trkpt>
      <trkpt lat="45.36522" lon="0.44612">
        <ele>146</ele>
        <time>2025-04-16T08:22:48Z</time>
      </trkpt>
      <trkpt lat="45.36546" lon="0.44635">
        <ele>146</ele>
        <time>2025-04-16T08:22:53Z</time>
      </trkpt>
      <trkpt lat="45.36553" lon="0.44624">
        <ele>147</ele>
        <time>2025-04-16T08:22:55Z</time>
      </trkpt>
      <trkpt lat="45.36565" lon="0.4461">
        <ele>147</ele>
        <time>2025-04-16T08:22:58Z</time>
      </trkpt>
      <trkpt lat="45.36586" lon="0.44597">
        <ele>148</ele>
        <time>2025-04-16T08:23:02Z</time>
      </trkpt>
      <trkpt lat="45.36597" lon="0.44584">
        <ele>147</ele>
        <time>2025-04-16T08:23:05Z</time>
      </trkpt>
      <trkpt lat="45.3661" lon="0.44583">
        <ele>147</ele>
        <time>2025-04-16T08:23:07Z</time>
      </trkpt>
      <trkpt lat="45.36723" lon="0.44521">
        <ele>145</ele>
        <time>2025-04-16T08:23:29Z</time>
      </trkpt>
      <trkpt lat="45.36743" lon="0.44517">
        <ele>145</ele>
        <time>2025-04-16T08:23:32Z</time>
      </trkpt>
      <trkpt lat="45.36752" lon="0.44518">
        <ele>145</ele>
        <time>2025-04-16T08:23:34Z</time>
      </trkpt>
      <trkpt lat="45.36762" lon="0.44522">
        <ele>144</ele>
        <time>2025-04-16T08:23:36Z</time>
      </trkpt>
      <trkpt lat="45.36776" lon="0.44537">
        <ele>144</ele>
        <time>2025-04-16T08:23:39Z</time>
      </trkpt>
      <trkpt lat="45.36939" lon="0.44769">
        <ele>137</ele>
        <time>2025-04-16T08:24:20Z</time>
      </trkpt>
      <trkpt lat="45.36945" lon="0.44778">
        <ele>137</ele>
        <time>2025-04-16T08:24:21Z</time>
      </trkpt>
      <trkpt lat="45.37125" lon="0.45034">
        <ele>149</ele>
        <time>2025-04-16T08:25:07Z</time>
      </trkpt>
      <trkpt lat="45.37267" lon="0.45241">
        <ele>150</ele>
        <time>2025-04-16T08:25:43Z</time>
      </trkpt>
      <trkpt lat="45.37287" lon="0.45285">
        <ele>153</ele>
        <time>2025-04-16T08:25:49Z</time>
      </trkpt>
      <trkpt lat="45.37335" lon="0.45479">
        <ele>155</ele>
        <time>2025-04-16T08:26:15Z</time>
      </trkpt>
      <trkpt lat="45.37348" lon="0.45516">
        <ele>156</ele>
        <time>2025-04-16T08:26:20Z</time>
      </trkpt>
      <trkpt lat="45.37365" lon="0.45548">
        <ele>155</ele>
        <time>2025-04-16T08:26:25Z</time>
      </trkpt>
      <trkpt lat="45.37431" lon="0.45653">
        <ele>154</ele>
        <time>2025-04-16T08:26:43Z</time>
      </trkpt>
      <trkpt lat="45.3744" lon="0.45674">
        <ele>155</ele>
        <time>2025-04-16T08:26:46Z</time>
      </trkpt>
      <trkpt lat="45.37448" lon="0.45697">
        <ele>155</ele>
        <time>2025-04-16T08:26:49Z</time>
      </trkpt>
      <trkpt lat="45.37452" lon="0.45732">
        <ele>156</ele>
        <time>2025-04-16T08:26:53Z</time>
      </trkpt>
      <trkpt lat="45.3745" lon="0.45882">
        <ele>158</ele>
        <time>2025-04-16T08:27:12Z</time>
      </trkpt>
      <trkpt lat="45.37452" lon="0.45914">
        <ele>158</ele>
        <time>2025-04-16T08:27:16Z</time>
      </trkpt>
      <trkpt lat="45.37458" lon="0.45947">
        <ele>158</ele>
        <time>2025-04-16T08:27:21Z</time>
      </trkpt>
      <trkpt lat="45.37466" lon="0.45978">
        <ele>159</ele>
        <time>2025-04-16T08:27:25Z</time>
      </trkpt>
      <trkpt lat="45.37483" lon="0.46016">
        <ele>159</ele>
        <time>2025-04-16T08:27:30Z</time>
      </trkpt>
      <trkpt lat="45.37503" lon="0.46046">
        <ele>159</ele>
        <time>2025-04-16T08:27:35Z</time>
      </trkpt>
      <trkpt lat="45.37532" lon="0.46077">
        <ele>160</ele>
        <time>2025-04-16T08:27:42Z</time>
      </trkpt>
      <trkpt lat="45.37562" lon="0.46104">
        <ele>159</ele>
        <time>2025-04-16T08:27:48Z</time>
      </trkpt>
      <trkpt lat="45.37582" lon="0.4613">
        <ele>158</ele>
        <time>2025-04-16T08:27:53Z</time>
      </trkpt>
      <trkpt lat="45.37595" lon="0.46158">
        <ele>158</ele>
        <time>2025-04-16T08:27:57Z</time>
      </trkpt>
      <trkpt lat="45.37747" lon="0.46592">
        <ele>160</ele>
        <time>2025-04-16T08:28:58Z</time>
      </trkpt>
      <trkpt lat="45.37755" lon="0.46623">
        <ele>162</ele>
        <time>2025-04-16T08:29:02Z</time>
      </trkpt>
      <trkpt lat="45.3776" lon="0.46651">
        <ele>164</ele>
        <time>2025-04-16T08:29:06Z</time>
      </trkpt>
      <trkpt lat="45.37776" lon="0.46796">
        <ele>168</ele>
        <time>2025-04-16T08:29:24Z</time>
      </trkpt>
      <trkpt lat="45.37783" lon="0.46832">
        <ele>168</ele>
        <time>2025-04-16T08:29:29Z</time>
      </trkpt>
      <trkpt lat="45.37793" lon="0.46859">
        <ele>168</ele>
        <time>2025-04-16T08:29:32Z</time>
      </trkpt>
      <trkpt lat="45.37817" lon="0.46896">
        <ele>165</ele>
        <time>2025-04-16T08:29:39Z</time>
      </trkpt>
      <trkpt lat="45.37837" lon="0.46953">
        <ele>166</ele>
        <time>2025-04-16T08:29:47Z</time>
      </trkpt>
      <trkpt lat="45.37859" lon="0.4705">
        <ele>173</ele>
        <time>2025-04-16T08:29:59Z</time>
      </trkpt>
      <trkpt lat="45.37862" lon="0.47068">
        <ele>173</ele>
        <time>2025-04-16T08:30:02Z</time>
      </trkpt>
      <trkpt lat="45.37863" lon="0.47089">
        <ele>174</ele>
        <time>2025-04-16T08:30:04Z</time>
      </trkpt>
      <trkpt lat="45.37864" lon="0.47132">
        <ele>176</ele>
        <time>2025-04-16T08:30:10Z</time>
      </trkpt>
      <trkpt lat="45.37868" lon="0.47153">
        <ele>176</ele>
        <time>2025-04-16T08:30:12Z</time>
      </trkpt>
      <trkpt lat="45.37873" lon="0.47172">
        <ele>176</ele>
        <time>2025-04-16T08:30:15Z</time>
      </trkpt>
      <trkpt lat="45.37902" lon="0.47215">
        <ele>174</ele>
        <time>2025-04-16T08:30:22Z</time>
      </trkpt>
      <trkpt lat="45.37912" lon="0.47231">
        <ele>173</ele>
        <time>2025-04-16T08:30:25Z</time>
      </trkpt>
      <trkpt lat="45.37915" lon="0.47241">
        <ele>173</ele>
        <time>2025-04-16T08:30:26Z</time>
      </trkpt>
      <trkpt lat="45.37915" lon="0.47346">
        <ele>177</ele>
        <time>2025-04-16T08:30:40Z</time>
      </trkpt>
      <trkpt lat="45.37918" lon="0.47381">
        <ele>177</ele>
        <time>2025-04-16T08:30:44Z</time>
      </trkpt>
      <trkpt lat="45.37977" lon="0.4761">
        <ele>181</ele>
        <time>2025-04-16T08:31:14Z</time>
      </trkpt>
      <trkpt lat="45.37983" lon="0.47669">
        <ele>181</ele>
        <time>2025-04-16T08:31:22Z</time>
      </trkpt>
      <trkpt lat="45.37987" lon="0.4769">
        <ele>181</ele>
        <time>2025-04-16T08:31:25Z</time>
      </trkpt>
      <trkpt lat="45.37998" lon="0.47711">
        <ele>180</ele>
        <time>2025-04-16T08:31:28Z</time>
      </trkpt>
      <trkpt lat="45.38111" lon="0.47858">
        <ele>179</ele>
        <time>2025-04-16T08:31:55Z</time>
      </trkpt>
      <trkpt lat="45.38144" lon="0.47895">
        <ele>179</ele>
        <time>2025-04-16T08:32:03Z</time>
      </trkpt>
      <trkpt lat="45.38196" lon="0.47948">
        <ele>180</ele>
        <time>2025-04-16T08:32:14Z</time>
      </trkpt>
      <trkpt lat="45.38223" lon="0.47999">
        <ele>183</ele>
        <time>2025-04-16T08:32:22Z</time>
      </trkpt>
      <trkpt lat="45.38257" lon="0.48089">
        <ele>188</ele>
        <time>2025-04-16T08:32:35Z</time>
      </trkpt>
      <trkpt lat="45.38271" lon="0.4812">
        <ele>190</ele>
        <time>2025-04-16T08:32:39Z</time>
      </trkpt>
      <trkpt lat="45.38293" lon="0.48154">
        <ele>191</ele>
        <time>2025-04-16T08:32:45Z</time>
      </trkpt>
      <trkpt lat="45.38337" lon="0.48207">
        <ele>189</ele>
        <time>2025-04-16T08:32:55Z</time>
      </trkpt>
      <trkpt lat="45.38354" lon="0.48229">
        <ele>189</ele>
        <time>2025-04-16T08:32:59Z</time>
      </trkpt>
      <trkpt lat="45.38365" lon="0.4825">
        <ele>188</ele>
        <time>2025-04-16T08:33:03Z</time>
      </trkpt>
      <trkpt lat="45.38376" lon="0.48273">
        <ele>188</ele>
        <time>2025-04-16T08:33:06Z</time>
      </trkpt>
      <trkpt lat="45.38394" lon="0.48333">
        <ele>187</ele>
        <time>2025-04-16T08:33:14Z</time>
      </trkpt>
      <trkpt lat="45.38397" lon="0.48355">
        <ele>187</ele>
        <time>2025-04-16T08:33:17Z</time>
      </trkpt>
      <trkpt lat="45.38397" lon="0.48412">
        <ele>188</ele>
        <time>2025-04-16T08:33:24Z</time>
      </trkpt>
      <trkpt lat="45.38401" lon="0.48439">
        <ele>188</ele>
        <time>2025-04-16T08:33:28Z</time>
      </trkpt>
      <trkpt lat="45.38408" lon="0.48454">
        <ele>188</ele>
        <time>2025-04-16T08:33:30Z</time>
      </trkpt>
      <trkpt lat="45.38425" lon="0.48477">
        <ele>188</ele>
        <time>2025-04-16T08:33:34Z</time>
      </trkpt>
      <trkpt lat="45.38441" lon="0.48506">
        <ele>187</ele>
        <time>2025-04-16T08:33:39Z</time>
      </trkpt>
      <trkpt lat="45.38446" lon="0.48522">
        <ele>187</ele>
        <time>2025-04-16T08:33:41Z</time>
      </trkpt>
      <trkpt lat="45.3845" lon="0.48545">
        <ele>187</ele>
        <time>2025-04-16T08:33:44Z</time>
      </trkpt>
      <trkpt lat="45.3845" lon="0.48563">
        <ele>187</ele>
        <time>2025-04-16T08:33:46Z</time>
      </trkpt>
      <trkpt lat="45.38446" lon="0.48588">
        <ele>187</ele>
        <time>2025-04-16T08:33:49Z</time>
      </trkpt>
      <trkpt lat="45.38383" lon="0.48826">
        <ele>194</ele>
        <time>2025-04-16T08:34:21Z</time>
      </trkpt>
      <trkpt lat="45.38378" lon="0.48851">
        <ele>195</ele>
        <time>2025-04-16T08:34:24Z</time>
      </trkpt>
      <trkpt lat="45.38376" lon="0.48875">
        <ele>196</ele>
        <time>2025-04-16T08:34:27Z</time>
      </trkpt>
      <trkpt lat="45.38377" lon="0.48893">
        <ele>196</ele>
        <time>2025-04-16T08:34:30Z</time>
      </trkpt>
      <trkpt lat="45.38382" lon="0.48912">
        <ele>196</ele>
        <time>2025-04-16T08:34:32Z</time>
      </trkpt>
      <trkpt lat="45.38388" lon="0.48929">
        <ele>196</ele>
        <time>2025-04-16T08:34:35Z</time>
      </trkpt>
      <trkpt lat="45.38397" lon="0.48946">
        <ele>196</ele>
        <time>2025-04-16T08:34:37Z</time>
      </trkpt>
      <trkpt lat="45.38435" lon="0.49007">
        <ele>197</ele>
        <time>2025-04-16T08:34:47Z</time>
      </trkpt>
      <trkpt lat="45.38445" lon="0.49025">
        <ele>198</ele>
        <time>2025-04-16T08:34:50Z</time>
      </trkpt>
      <trkpt lat="45.38462" lon="0.49083">
        <ele>199</ele>
        <time>2025-04-16T08:34:58Z</time>
      </trkpt>
      <trkpt lat="45.38469" lon="0.49101">
        <ele>200</ele>
        <time>2025-04-16T08:35:01Z</time>
      </trkpt>
      <trkpt lat="45.38476" lon="0.49115">
        <ele>200</ele>
        <time>2025-04-16T08:35:03Z</time>
      </trkpt>
      <trkpt lat="45.38489" lon="0.49128">
        <ele>201</ele>
        <time>2025-04-16T08:35:06Z</time>
      </trkpt>
      <trkpt lat="45.38505" lon="0.49137">
        <ele>201</ele>
        <time>2025-04-16T08:35:09Z</time>
      </trkpt>
      <trkpt lat="45.38753" lon="0.49223">
        <ele>201</ele>
        <time>2025-04-16T08:35:54Z</time>
      </trkpt>
      <trkpt lat="45.38774" lon="0.49234">
        <ele>200</ele>
        <time>2025-04-16T08:35:58Z</time>
      </trkpt>
      <trkpt lat="45.38792" lon="0.49246">
        <ele>200</ele>
        <time>2025-04-16T08:36:02Z</time>
      </trkpt>
      <trkpt lat="45.38821" lon="0.49275">
        <ele>198</ele>
        <time>2025-04-16T08:36:08Z</time>
      </trkpt>
      <trkpt lat="45.38841" lon="0.49306">
        <ele>197</ele>
        <time>2025-04-16T08:36:13Z</time>
      </trkpt>
      <trkpt lat="45.38856" lon="0.49336">
        <ele>197</ele>
        <time>2025-04-16T08:36:18Z</time>
      </trkpt>
      <trkpt lat="45.38898" lon="0.49449">
        <ele>197</ele>
        <time>2025-04-16T08:36:34Z</time>
      </trkpt>
      <trkpt lat="45.38907" lon="0.49466">
        <ele>196</ele>
        <time>2025-04-16T08:36:37Z</time>
      </trkpt>
      <trkpt lat="45.38924" lon="0.49491">
        <ele>196</ele>
        <time>2025-04-16T08:36:41Z</time>
      </trkpt>
      <trkpt lat="45.39017" lon="0.49583">
        <ele>193</ele>
        <time>2025-04-16T08:37:01Z</time>
      </trkpt>
      <trkpt lat="45.39073" lon="0.49647">
        <ele>191</ele>
        <time>2025-04-16T08:37:14Z</time>
      </trkpt>
      <trkpt lat="45.39124" lon="0.49717">
        <ele>188</ele>
        <time>2025-04-16T08:37:26Z</time>
      </trkpt>
      <trkpt lat="45.39134" lon="0.49737">
        <ele>188</ele>
        <time>2025-04-16T08:37:29Z</time>
      </trkpt>
      <trkpt lat="45.3914" lon="0.49755">
        <ele>187</ele>
        <time>2025-04-16T08:37:32Z</time>
      </trkpt>
      <trkpt lat="45.39146" lon="0.49777">
        <ele>187</ele>
        <time>2025-04-16T08:37:35Z</time>
      </trkpt>
      <trkpt lat="45.39152" lon="0.49842">
        <ele>184</ele>
        <time>2025-04-16T08:37:43Z</time>
      </trkpt>
      <trkpt lat="45.39159" lon="0.49871">
        <ele>183</ele>
        <time>2025-04-16T08:37:47Z</time>
      </trkpt>
      <trkpt lat="45.39166" lon="0.4989">
        <ele>182</ele>
        <time>2025-04-16T08:37:50Z</time>
      </trkpt>
      <trkpt lat="45.39175" lon="0.49907">
        <ele>182</ele>
        <time>2025-04-16T08:37:52Z</time>
      </trkpt>
      <trkpt lat="45.39187" lon="0.49921">
        <ele>181</ele>
        <time>2025-04-16T08:37:55Z</time>
      </trkpt>
      <trkpt lat="45.39202" lon="0.49933">
        <ele>180</ele>
        <time>2025-04-16T08:37:58Z</time>
      </trkpt>
      <trkpt lat="45.39243" lon="0.49958">
        <ele>177</ele>
        <time>2025-04-16T08:38:06Z</time>
      </trkpt>
      <trkpt lat="45.39265" lon="0.49975">
        <ele>176</ele>
        <time>2025-04-16T08:38:10Z</time>
      </trkpt>
      <trkpt lat="45.39284" lon="0.49994">
        <ele>175</ele>
        <time>2025-04-16T08:38:15Z</time>
      </trkpt>
      <trkpt lat="45.3931" lon="0.50029">
        <ele>173</ele>
        <time>2025-04-16T08:38:21Z</time>
      </trkpt>
      <trkpt lat="45.3932" lon="0.50049">
        <ele>172</ele>
        <time>2025-04-16T08:38:24Z</time>
      </trkpt>
      <trkpt lat="45.39341" lon="0.50091">
        <ele>169</ele>
        <time>2025-04-16T08:38:31Z</time>
      </trkpt>
      <trkpt lat="45.39354" lon="0.50124">
        <ele>168</ele>
        <time>2025-04-16T08:38:35Z</time>
      </trkpt>
      <trkpt lat="45.39371" lon="0.5018">
        <ele>166</ele>
        <time>2025-04-16T08:38:43Z</time>
      </trkpt>
      <trkpt lat="45.39382" lon="0.50227">
        <ele>166</ele>
        <time>2025-04-16T08:38:49Z</time>
      </trkpt>
      <trkpt lat="45.39396" lon="0.50338">
        <ele>168</ele>
        <time>2025-04-16T08:39:03Z</time>
      </trkpt>
      <trkpt lat="45.39407" lon="0.50407">
        <ele>168</ele>
        <time>2025-04-16T08:39:12Z</time>
      </trkpt>
      <trkpt lat="45.39404" lon="0.5041">
        <ele>168</ele>
        <time>2025-04-16T08:39:13Z</time>
      </trkpt>
      <trkpt lat="45.39402" lon="0.50417">
        <ele>168</ele>
        <time>2025-04-16T08:39:14Z</time>
      </trkpt>
      <trkpt lat="45.39399" lon="0.50509">
        <ele>165</ele>
        <time>2025-04-16T08:39:25Z</time>
      </trkpt>
      <trkpt lat="45.39396" lon="0.50543">
        <ele>167</ele>
        <time>2025-04-16T08:39:29Z</time>
      </trkpt>
      <trkpt lat="45.39391" lon="0.50568">
        <ele>167</ele>
        <time>2025-04-16T08:39:33Z</time>
      </trkpt>
      <trkpt lat="45.39364" lon="0.50641">
        <ele>170</ele>
        <time>2025-04-16T08:39:43Z</time>
      </trkpt>
      <trkpt lat="45.39333" lon="0.50735">
        <ele>173</ele>
        <time>2025-04-16T08:39:56Z</time>
      </trkpt>
      <trkpt lat="45.39323" lon="0.50778">
        <ele>174</ele>
        <time>2025-04-16T08:40:02Z</time>
      </trkpt>
      <trkpt lat="45.39305" lon="0.50924">
        <ele>172</ele>
        <time>2025-04-16T08:40:20Z</time>
      </trkpt>
      <trkpt lat="45.393" lon="0.50964">
        <ele>171</ele>
        <time>2025-04-16T08:40:25Z</time>
      </trkpt>
      <trkpt lat="45.39275" lon="0.51129">
        <ele>170</ele>
        <time>2025-04-16T08:40:46Z</time>
      </trkpt>
      <trkpt lat="45.39267" lon="0.5115">
        <ele>171</ele>
        <time>2025-04-16T08:40:49Z</time>
      </trkpt>
      <trkpt lat="45.39247" lon="0.51167">
        <ele>172</ele>
        <time>2025-04-16T08:40:53Z</time>
      </trkpt>
      <trkpt lat="45.39207" lon="0.51197">
        <ele>175</ele>
        <time>2025-04-16T08:41:01Z</time>
      </trkpt>
      <trkpt lat="45.39179" lon="0.51233">
        <ele>178</ele>
        <time>2025-04-16T08:41:08Z</time>
      </trkpt>
      <trkpt lat="45.39176" lon="0.51273">
        <ele>182</ele>
        <time>2025-04-16T08:41:13Z</time>
      </trkpt>
      <trkpt lat="45.39184" lon="0.5131">
        <ele>184</ele>
        <time>2025-04-16T08:41:18Z</time>
      </trkpt>
      <trkpt lat="45.39206" lon="0.51349">
        <ele>187</ele>
        <time>2025-04-16T08:41:24Z</time>
      </trkpt>
      <trkpt lat="45.39172" lon="0.51392">
        <ele>188</ele>
        <time>2025-04-16T08:41:32Z</time>
      </trkpt>
      <trkpt lat="45.39155" lon="0.51408">
        <ele>187</ele>
        <time>2025-04-16T08:41:36Z</time>
      </trkpt>
      <trkpt lat="45.39122" lon="0.51431">
        <ele>183</ele>
        <time>2025-04-16T08:41:42Z</time>
      </trkpt>
      <trkpt lat="45.39103" lon="0.51456">
        <ele>180</ele>
        <time>2025-04-16T08:41:47Z</time>
      </trkpt>
      <trkpt lat="45.39092" lon="0.51466">
        <ele>178</ele>
        <time>2025-04-16T08:41:49Z</time>
      </trkpt>
      <trkpt lat="45.39076" lon="0.51471">
        <ele>176</ele>
        <time>2025-04-16T08:41:52Z</time>
      </trkpt>
      <trkpt lat="45.39047" lon="0.51466">
        <ele>173</ele>
        <time>2025-04-16T08:41:58Z</time>
      </trkpt>
      <trkpt lat="45.39025" lon="0.51455">
        <ele>172</ele>
        <time>2025-04-16T08:42:02Z</time>
      </trkpt>
      <trkpt lat="45.39004" lon="0.51436">
        <ele>170</ele>
        <time>2025-04-16T08:42:06Z</time>
      </trkpt>
      <trkpt lat="45.38967" lon="0.5137">
        <ele>166</ele>
        <time>2025-04-16T08:42:17Z</time>
      </trkpt>
      <trkpt lat="45.38952" lon="0.51356">
        <ele>165</ele>
        <time>2025-04-16T08:42:20Z</time>
      </trkpt>
      <trkpt lat="45.38929" lon="0.51348">
        <ele>162</ele>
        <time>2025-04-16T08:42:24Z</time>
      </trkpt>
      <trkpt lat="45.38831" lon="0.5135">
        <ele>157</ele>
        <time>2025-04-16T08:42:42Z</time>
      </trkpt>
      <trkpt lat="45.38808" lon="0.51357">
        <ele>156</ele>
        <time>2025-04-16T08:42:46Z</time>
      </trkpt>
      <trkpt lat="45.38741" lon="0.51399">
        <ele>157</ele>
        <time>2025-04-16T08:42:59Z</time>
      </trkpt>
      <trkpt lat="45.38687" lon="0.51425">
        <ele>157</ele>
        <time>2025-04-16T08:43:09Z</time>
      </trkpt>
      <trkpt lat="45.38602" lon="0.51425">
        <ele>158</ele>
        <time>2025-04-16T08:43:24Z</time>
      </trkpt>
      <trkpt lat="45.3856" lon="0.51399">
        <ele>159</ele>
        <time>2025-04-16T08:43:32Z</time>
      </trkpt>
      <trkpt lat="45.38536" lon="0.51382">
        <ele>159</ele>
        <time>2025-04-16T08:43:37Z</time>
      </trkpt>
      <trkpt lat="45.38482" lon="0.51366">
        <ele>157</ele>
        <time>2025-04-16T08:43:47Z</time>
      </trkpt>
      <trkpt lat="45.38462" lon="0.51363">
        <ele>157</ele>
        <time>2025-04-16T08:43:50Z</time>
      </trkpt>
      <trkpt lat="45.38454" lon="0.51362">
        <ele>157</ele>
        <time>2025-04-16T08:43:52Z</time>
      </trkpt>
      <trkpt lat="45.3842" lon="0.51364">
        <ele>156</ele>
        <time>2025-04-16T08:43:58Z</time>
      </trkpt>
      <trkpt lat="45.38382" lon="0.51374">
        <ele>158</ele>
        <time>2025-04-16T08:44:05Z</time>
      </trkpt>
      <trkpt lat="45.38341" lon="0.51389">
        <ele>158</ele>
        <time>2025-04-16T08:44:12Z</time>
      </trkpt>
      <trkpt lat="45.38301" lon="0.51414">
        <ele>159</ele>
        <time>2025-04-16T08:44:20Z</time>
      </trkpt>
      <trkpt lat="45.38269" lon="0.51483">
        <ele>161</ele>
        <time>2025-04-16T08:44:30Z</time>
      </trkpt>
      <trkpt lat="45.38233" lon="0.5157">
        <ele>154</ele>
        <time>2025-04-16T08:44:43Z</time>
      </trkpt>
      <trkpt lat="45.38216" lon="0.51603">
        <ele>152</ele>
        <time>2025-04-16T08:44:48Z</time>
      </trkpt>
      <trkpt lat="45.38193" lon="0.51616">
        <ele>152</ele>
        <time>2025-04-16T08:44:52Z</time>
      </trkpt>
      <trkpt lat="45.38132" lon="0.51613">
        <ele>152</ele>
        <time>2025-04-16T08:45:03Z</time>
      </trkpt>
      <trkpt lat="45.38069" lon="0.51589">
        <ele>151</ele>
        <time>2025-04-16T08:45:15Z</time>
      </trkpt>
      <trkpt lat="45.38022" lon="0.51569">
        <ele>149</ele>
        <time>2025-04-16T08:45:24Z</time>
      </trkpt>
      <trkpt lat="45.37987" lon="0.51563">
        <ele>148</ele>
        <time>2025-04-16T08:45:30Z</time>
      </trkpt>
      <trkpt lat="45.37934" lon="0.51571">
        <ele>148</ele>
        <time>2025-04-16T08:45:39Z</time>
      </trkpt>
      <trkpt lat="45.37859" lon="0.51589">
        <ele>145</ele>
        <time>2025-04-16T08:45:53Z</time>
      </trkpt>
      <trkpt lat="45.3782" lon="0.51594">
        <ele>145</ele>
        <time>2025-04-16T08:46:00Z</time>
      </trkpt>
      <trkpt lat="45.37795" lon="0.51589">
        <ele>144</ele>
        <time>2025-04-16T08:46:04Z</time>
      </trkpt>
      <trkpt lat="45.37764" lon="0.51549">
        <ele>145</ele>
        <time>2025-04-16T08:46:12Z</time>
      </trkpt>
      <trkpt lat="45.37742" lon="0.51504">
        <ele>144</ele>
        <time>2025-04-16T08:46:19Z</time>
      </trkpt>
      <trkpt lat="45.37714" lon="0.51463">
        <ele>143</ele>
        <time>2025-04-16T08:46:26Z</time>
      </trkpt>
      <trkpt lat="45.37668" lon="0.51425">
        <ele>139</ele>
        <time>2025-04-16T08:46:35Z</time>
      </trkpt>
      <trkpt lat="45.37632" lon="0.51391">
        <ele>141</ele>
        <time>2025-04-16T08:46:43Z</time>
      </trkpt>
      <trkpt lat="45.37602" lon="0.5138">
        <ele>140</ele>
        <time>2025-04-16T08:46:48Z</time>
      </trkpt>
      <trkpt lat="45.37554" lon="0.5138">
        <ele>140</ele>
        <time>2025-04-16T08:46:57Z</time>
      </trkpt>
      <trkpt lat="45.3748" lon="0.51348">
        <ele>143</ele>
        <time>2025-04-16T08:47:11Z</time>
      </trkpt>
      <trkpt lat="45.37436" lon="0.51344">
        <ele>144</ele>
        <time>2025-04-16T08:47:19Z</time>
      </trkpt>
      <trkpt lat="45.37392" lon="0.51363">
        <ele>142</ele>
        <time>2025-04-16T08:47:27Z</time>
      </trkpt>
      <trkpt lat="45.37368" lon="0.514">
        <ele>139</ele>
        <time>2025-04-16T08:47:33Z</time>
      </trkpt>
      <trkpt lat="45.37353" lon="0.51433">
        <ele>139</ele>
        <time>2025-04-16T08:47:38Z</time>
      </trkpt>
      <trkpt lat="45.37338" lon="0.5145">
        <ele>142</ele>
        <time>2025-04-16T08:47:41Z</time>
      </trkpt>
      <trkpt lat="45.37301" lon="0.51456">
        <ele>143</ele>
        <time>2025-04-16T08:47:48Z</time>
      </trkpt>
      <trkpt lat="45.37224" lon="0.51458">
        <ele>143</ele>
        <time>2025-04-16T08:48:02Z</time>
      </trkpt>
      <trkpt lat="45.37152" lon="0.51438">
        <ele>142</ele>
        <time>2025-04-16T08:48:15Z</time>
      </trkpt>
      <trkpt lat="45.37096" lon="0.51404">
        <ele>139</ele>
        <time>2025-04-16T08:48:26Z</time>
      </trkpt>
      <trkpt lat="45.37073" lon="0.51402">
        <ele>139</ele>
        <time>2025-04-16T08:48:30Z</time>
      </trkpt>
      <trkpt lat="45.36942" lon="0.51443">
        <ele>142</ele>
        <time>2025-04-16T08:48:54Z</time>
      </trkpt>
      <trkpt lat="45.3686" lon="0.51478">
        <ele>141</ele>
        <time>2025-04-16T08:49:09Z</time>
      </trkpt>
      <trkpt lat="45.36792" lon="0.51534">
        <ele>140</ele>
        <time>2025-04-16T08:49:23Z</time>
      </trkpt>
      <trkpt lat="45.36724" lon="0.51615">
        <ele>137</ele>
        <time>2025-04-16T08:49:39Z</time>
      </trkpt>
      <trkpt lat="45.36659" lon="0.51698">
        <ele>129</ele>
        <time>2025-04-16T08:49:54Z</time>
      </trkpt>
      <trkpt lat="45.36609" lon="0.5176">
        <ele>128</ele>
        <time>2025-04-16T08:50:06Z</time>
      </trkpt>
      <trkpt lat="45.36589" lon="0.51779">
        <ele>129</ele>
        <time>2025-04-16T08:50:10Z</time>
      </trkpt>
      <trkpt lat="45.36582" lon="0.51785">
        <ele>130</ele>
        <time>2025-04-16T08:50:12Z</time>
      </trkpt>
      <trkpt lat="45.36539" lon="0.51796">
        <ele>133</ele>
        <time>2025-04-16T08:50:19Z</time>
      </trkpt>
      <trkpt lat="45.36489" lon="0.51799">
        <ele>135</ele>
        <time>2025-04-16T08:50:28Z</time>
      </trkpt>
      <trkpt lat="45.36421" lon="0.51799">
        <ele>133</ele>
        <time>2025-04-16T08:50:40Z</time>
      </trkpt>
      <trkpt lat="45.36378" lon="0.51807">
        <ele>132</ele>
        <time>2025-04-16T08:50:48Z</time>
      </trkpt>
      <trkpt lat="45.36317" lon="0.51837">
        <ele>131</ele>
        <time>2025-04-16T08:51:00Z</time>
      </trkpt>
      <trkpt lat="45.36245" lon="0.51888">
        <ele>130</ele>
        <time>2025-04-16T08:51:14Z</time>
      </trkpt>
      <trkpt lat="45.36197" lon="0.51914">
        <ele>126</ele>
        <time>2025-04-16T08:51:23Z</time>
      </trkpt>
      <trkpt lat="45.36076" lon="0.51949">
        <ele>128</ele>
        <time>2025-04-16T08:51:45Z</time>
      </trkpt>
      <trkpt lat="45.35998" lon="0.51957">
        <ele>128</ele>
        <time>2025-04-16T08:51:59Z</time>
      </trkpt>
      <trkpt lat="45.35786" lon="0.52017">
        <ele>123</ele>
        <time>2025-04-16T08:52:37Z</time>
      </trkpt>
      <trkpt lat="45.35666" lon="0.5206">
        <ele>125</ele>
        <time>2025-04-16T08:52:59Z</time>
      </trkpt>
      <trkpt lat="45.35556" lon="0.52094">
        <ele>124</ele>
        <time>2025-04-16T08:53:19Z</time>
      </trkpt>
      <trkpt lat="45.35511" lon="0.52138">
        <ele>125</ele>
        <time>2025-04-16T08:53:29Z</time>
      </trkpt>
      <trkpt lat="45.35457" lon="0.52206">
        <ele>127</ele>
        <time>2025-04-16T08:53:42Z</time>
      </trkpt>
      <trkpt lat="45.35438" lon="0.52238">
        <ele>128</ele>
        <time>2025-04-16T08:53:47Z</time>
      </trkpt>
      <trkpt lat="45.35396" lon="0.5232">
        <ele>132</ele>
        <time>2025-04-16T08:54:00Z</time>
      </trkpt>
      <trkpt lat="45.35385" lon="0.52349">
        <ele>133</ele>
        <time>2025-04-16T08:54:04Z</time>
      </trkpt>
      <trkpt lat="45.35382" lon="0.52393">
        <ele>135</ele>
        <time>2025-04-16T08:54:10Z</time>
      </trkpt>
      <trkpt lat="45.35386" lon="0.52461">
        <ele>137</ele>
        <time>2025-04-16T08:54:18Z</time>
      </trkpt>
      <trkpt lat="45.35368" lon="0.52531">
        <ele>140</ele>
        <time>2025-04-16T08:54:27Z</time>
      </trkpt>
      <trkpt lat="45.3533" lon="0.52586">
        <ele>142</ele>
        <time>2025-04-16T08:54:37Z</time>
      </trkpt>
      <trkpt lat="45.3528" lon="0.52622">
        <ele>146</ele>
        <time>2025-04-16T08:54:47Z</time>
      </trkpt>
      <trkpt lat="45.35225" lon="0.52654">
        <ele>148</ele>
        <time>2025-04-16T08:54:58Z</time>
      </trkpt>
      <trkpt lat="45.35192" lon="0.52695">
        <ele>150</ele>
        <time>2025-04-16T08:55:05Z</time>
      </trkpt>
      <trkpt lat="45.3506" lon="0.52877">
        <ele>149</ele>
        <time>2025-04-16T08:55:38Z</time>
      </trkpt>
      <trkpt lat="45.35013" lon="0.52925">
        <ele>147</ele>
        <time>2025-04-16T08:55:48Z</time>
      </trkpt>
      <trkpt lat="45.34853" lon="0.53053">
        <ele>137</ele>
        <time>2025-04-16T08:56:21Z</time>
      </trkpt>
      <trkpt lat="45.34818" lon="0.53083">
        <ele>134</ele>
        <time>2025-04-16T08:56:28Z</time>
      </trkpt>
      <trkpt lat="45.34802" lon="0.53107">
        <ele>133</ele>
        <time>2025-04-16T08:56:32Z</time>
      </trkpt>
      <trkpt lat="45.34793" lon="0.53138">
        <ele>132</ele>
        <time>2025-04-16T08:56:37Z</time>
      </trkpt>
      <trkpt lat="45.34795" lon="0.53177">
        <ele>131</ele>
        <time>2025-04-16T08:56:42Z</time>
      </trkpt>
      <trkpt lat="45.34842" lon="0.53513">
        <ele>136</ele>
        <time>2025-04-16T08:57:24Z</time>
      </trkpt>
      <trkpt lat="45.34844" lon="0.53577">
        <ele>138</ele>
        <time>2025-04-16T08:57:32Z</time>
      </trkpt>
      <trkpt lat="45.34834" lon="0.53641">
        <ele>138</ele>
        <time>2025-04-16T08:57:41Z</time>
      </trkpt>
      <trkpt lat="45.3482" lon="0.53693">
        <ele>140</ele>
        <time>2025-04-16T08:57:48Z</time>
      </trkpt>
      <trkpt lat="45.34795" lon="0.53743">
        <ele>143</ele>
        <time>2025-04-16T08:57:55Z</time>
      </trkpt>
      <trkpt lat="45.34758" lon="0.5379">
        <ele>145</ele>
        <time>2025-04-16T08:58:04Z</time>
      </trkpt>
      <trkpt lat="45.34744" lon="0.53803">
        <ele>146</ele>
        <time>2025-04-16T08:58:07Z</time>
      </trkpt>
      <trkpt lat="45.34712" lon="0.5384">
        <ele>147</ele>
        <time>2025-04-16T08:58:14Z</time>
      </trkpt>
      <trkpt lat="45.34692" lon="0.53859">
        <ele>147</ele>
        <time>2025-04-16T08:58:19Z</time>
      </trkpt>
      <trkpt lat="45.34709" lon="0.53884">
        <ele>148</ele>
        <time>2025-04-16T08:58:23Z</time>
      </trkpt>
      <trkpt lat="45.34815" lon="0.53966">
        <ele>150</ele>
        <time>2025-04-16T08:58:44Z</time>
      </trkpt>
      <trkpt lat="45.34812" lon="0.53981">
        <ele>150</ele>
        <time>2025-04-16T08:58:46Z</time>
      </trkpt>
      <trkpt lat="45.34811" lon="0.54001">
        <ele>150</ele>
        <time>2025-04-16T08:58:49Z</time>
      </trkpt>
      <trkpt lat="45.34815" lon="0.54196">
        <ele>151</ele>
        <time>2025-04-16T08:59:13Z</time>
      </trkpt>
      <trkpt lat="45.34817" lon="0.54226">
        <ele>152</ele>
        <time>2025-04-16T08:59:17Z</time>
      </trkpt>
      <trkpt lat="45.34822" lon="0.54248">
        <ele>152</ele>
        <time>2025-04-16T08:59:20Z</time>
      </trkpt>
      <trkpt lat="45.34829" lon="0.5427">
        <ele>153</ele>
        <time>2025-04-16T08:59:23Z</time>
      </trkpt>
      <trkpt lat="45.34892" lon="0.54401">
        <ele>161</ele>
        <time>2025-04-16T08:59:43Z</time>
      </trkpt>
      <trkpt lat="45.34909" lon="0.54458">
        <ele>158</ele>
        <time>2025-04-16T08:59:51Z</time>
      </trkpt>
      <trkpt lat="45.34918" lon="0.54482">
        <ele>157</ele>
        <time>2025-04-16T08:59:54Z</time>
      </trkpt>
      <trkpt lat="45.34943" lon="0.54517">
        <ele>154</ele>
        <time>2025-04-16T09:00:00Z</time>
      </trkpt>
      <trkpt lat="45.3496" lon="0.54534">
        <ele>152</ele>
        <time>2025-04-16T09:00:04Z</time>
      </trkpt>
      <trkpt lat="45.34976" lon="0.54544">
        <ele>151</ele>
        <time>2025-04-16T09:00:07Z</time>
      </trkpt>
      <trkpt lat="45.35013" lon="0.54557">
        <ele>149</ele>
        <time>2025-04-16T09:00:14Z</time>
      </trkpt>
      <trkpt lat="45.35034" lon="0.54566">
        <ele>146</ele>
        <time>2025-04-16T09:00:18Z</time>
      </trkpt>
      <trkpt lat="45.3506" lon="0.54585">
        <ele>143</ele>
        <time>2025-04-16T09:00:23Z</time>
      </trkpt>
      <trkpt lat="45.35079" lon="0.54604">
        <ele>141</ele>
        <time>2025-04-16T09:00:27Z</time>
      </trkpt>
      <trkpt lat="45.35102" lon="0.54633">
        <ele>139</ele>
        <time>2025-04-16T09:00:33Z</time>
      </trkpt>
      <trkpt lat="45.35111" lon="0.5465">
        <ele>138</ele>
        <time>2025-04-16T09:00:35Z</time>
      </trkpt>
      <trkpt lat="45.35118" lon="0.54666">
        <ele>137</ele>
        <time>2025-04-16T09:00:38Z</time>
      </trkpt>
      <trkpt lat="45.35121" lon="0.54686">
        <ele>136</ele>
        <time>2025-04-16T09:00:40Z</time>
      </trkpt>
      <trkpt lat="45.35129" lon="0.54779">
        <ele>133</ele>
        <time>2025-04-16T09:00:52Z</time>
      </trkpt>
      <trkpt lat="45.35149" lon="0.54847">
        <ele>130</ele>
        <time>2025-04-16T09:01:01Z</time>
      </trkpt>
      <trkpt lat="45.35155" lon="0.5488">
        <ele>129</ele>
        <time>2025-04-16T09:01:05Z</time>
      </trkpt>
      <trkpt lat="45.35163" lon="0.55024">
        <ele>124</ele>
        <time>2025-04-16T09:01:23Z</time>
      </trkpt>
      <trkpt lat="45.35176" lon="0.55198">
        <ele>117</ele>
        <time>2025-04-16T09:01:45Z</time>
      </trkpt>
      <trkpt lat="45.35197" lon="0.55211">
        <ele>117</ele>
        <time>2025-04-16T09:01:49Z</time>
      </trkpt>
      <trkpt lat="45.35213" lon="0.55224">
        <ele>117</ele>
        <time>2025-04-16T09:01:53Z</time>
      </trkpt>
      <trkpt lat="45.35233" lon="0.55236">
        <ele>117</ele>
        <time>2025-04-16T09:01:56Z</time>
      </trkpt>
      <trkpt lat="45.35243" lon="0.55246">
        <ele>116</ele>
        <time>2025-04-16T09:01:59Z</time>
      </trkpt>
      <trkpt lat="45.35244" lon="0.55269">
        <ele>115</ele>
        <time>2025-04-16T09:02:02Z</time>
      </trkpt>
      <trkpt lat="45.35257" lon="0.55273">
        <ele>115</ele>
        <time>2025-04-16T09:02:04Z</time>
      </trkpt>
      <trkpt lat="45.35274" lon="0.55291">
        <ele>113</ele>
        <time>2025-04-16T09:02:08Z</time>
      </trkpt>
      <trkpt lat="45.35281" lon="0.55306">
        <ele>112</ele>
        <time>2025-04-16T09:02:10Z</time>
      </trkpt>
      <trkpt lat="45.35267" lon="0.55355">
        <ele>109</ele>
        <time>2025-04-16T09:02:17Z</time>
      </trkpt>
      <trkpt lat="45.35263" lon="0.55387">
        <ele>107</ele>
        <time>2025-04-16T09:02:21Z</time>
      </trkpt>
      <trkpt lat="45.35346" lon="0.55528">
        <ele>104</ele>
        <time>2025-04-16T09:02:44Z</time>
      </trkpt>
      <trkpt lat="45.3537" lon="0.55572">
        <ele>105</ele>
        <time>2025-04-16T09:02:51Z</time>
      </trkpt>
      <trkpt lat="45.35392" lon="0.55605">
        <ele>106</ele>
        <time>2025-04-16T09:02:56Z</time>
      </trkpt>
      <trkpt lat="45.35405" lon="0.55619">
        <ele>106</ele>
        <time>2025-04-16T09:02:59Z</time>
      </trkpt>
      <trkpt lat="45.35609" lon="0.55795">
        <ele>109</ele>
        <time>2025-04-16T09:03:42Z</time>
      </trkpt>
      <trkpt lat="45.35661" lon="0.55831">
        <ele>107</ele>
        <time>2025-04-16T09:03:52Z</time>
      </trkpt>
      <trkpt lat="45.35767" lon="0.55879">
        <ele>113</ele>
        <time>2025-04-16T09:04:12Z</time>
      </trkpt>
      <trkpt lat="45.35782" lon="0.5589">
        <ele>111</ele>
        <time>2025-04-16T09:04:15Z</time>
      </trkpt>
      <trkpt lat="45.35796" lon="0.55923">
        <ele>107</ele>
        <time>2025-04-16T09:04:19Z</time>
      </trkpt>
      <trkpt lat="45.35798" lon="0.55941">
        <ele>106</ele>
        <time>2025-04-16T09:04:22Z</time>
      </trkpt>
      <trkpt lat="45.35807" lon="0.56016">
        <ele>105</ele>
        <time>2025-04-16T09:04:31Z</time>
      </trkpt>
      <trkpt lat="45.35837" lon="0.56234">
        <ele>115</ele>
        <time>2025-04-16T09:04:59Z</time>
      </trkpt>
      <trkpt lat="45.3584" lon="0.5631">
        <ele>121</ele>
        <time>2025-04-16T09:05:09Z</time>
      </trkpt>
      <trkpt lat="45.35827" lon="0.56414">
        <ele>126</ele>
        <time>2025-04-16T09:05:22Z</time>
      </trkpt>
      <trkpt lat="45.35827" lon="0.56469">
        <ele>126</ele>
        <time>2025-04-16T09:05:29Z</time>
      </trkpt>
      <trkpt lat="45.35835" lon="0.5652">
        <ele>125</ele>
        <time>2025-04-16T09:05:35Z</time>
      </trkpt>
      <trkpt lat="45.35835" lon="0.56562">
        <ele>123</ele>
        <time>2025-04-16T09:05:40Z</time>
      </trkpt>
      <trkpt lat="45.35824" lon="0.56617">
        <ele>124</ele>
        <time>2025-04-16T09:05:48Z</time>
      </trkpt>
      <trkpt lat="45.35796" lon="0.56701">
        <ele>129</ele>
        <time>2025-04-16T09:05:59Z</time>
      </trkpt>
      <trkpt lat="45.3576" lon="0.5676">
        <ele>131</ele>
        <time>2025-04-16T09:06:09Z</time>
      </trkpt>
      <trkpt lat="45.35739" lon="0.56817">
        <ele>131</ele>
        <time>2025-04-16T09:06:17Z</time>
      </trkpt>
      <trkpt lat="45.35744" lon="0.56873">
        <ele>131</ele>
        <time>2025-04-16T09:06:24Z</time>
      </trkpt>
      <trkpt lat="45.35745" lon="0.56936">
        <ele>133</ele>
        <time>2025-04-16T09:06:32Z</time>
      </trkpt>
      <trkpt lat="45.35737" lon="0.5701">
        <ele>138</ele>
        <time>2025-04-16T09:06:41Z</time>
      </trkpt>
      <trkpt lat="45.35735" lon="0.57048">
        <ele>139</ele>
        <time>2025-04-16T09:06:46Z</time>
      </trkpt>
      <trkpt lat="45.35746" lon="0.57142">
        <ele>138</ele>
        <time>2025-04-16T09:06:58Z</time>
      </trkpt>
      <trkpt lat="45.35736" lon="0.57223">
        <ele>140</ele>
        <time>2025-04-16T09:07:08Z</time>
      </trkpt>
      <trkpt lat="45.35745" lon="0.5728">
        <ele>140</ele>
        <time>2025-04-16T09:07:16Z</time>
      </trkpt>
      <trkpt lat="45.35751" lon="0.57335">
        <ele>142</ele>
        <time>2025-04-16T09:07:23Z</time>
      </trkpt>
      <trkpt lat="45.35743" lon="0.57407">
        <ele>144</ele>
        <time>2025-04-16T09:07:32Z</time>
      </trkpt>
      <trkpt lat="45.35751" lon="0.57473">
        <ele>143</ele>
        <time>2025-04-16T09:07:40Z</time>
      </trkpt>
      <trkpt lat="45.35769" lon="0.5753">
        <ele>144</ele>
        <time>2025-04-16T09:07:48Z</time>
      </trkpt>
      <trkpt lat="45.35801" lon="0.57546">
        <ele>146</ele>
        <time>2025-04-16T09:07:54Z</time>
      </trkpt>
      <trkpt lat="45.35834" lon="0.57553">
        <ele>147</ele>
        <time>2025-04-16T09:08:00Z</time>
      </trkpt>
      <trkpt lat="45.35862" lon="0.57583">
        <ele>147</ele>
        <time>2025-04-16T09:08:06Z</time>
      </trkpt>
      <trkpt lat="45.35882" lon="0.57634">
        <ele>150</ele>
        <time>2025-04-16T09:08:13Z</time>
      </trkpt>
      <trkpt lat="45.35968" lon="0.57667">
        <ele>152</ele>
        <time>2025-04-16T09:08:29Z</time>
      </trkpt>
      <trkpt lat="45.35999" lon="0.57697">
        <ele>153</ele>
        <time>2025-04-16T09:08:36Z</time>
      </trkpt>
      <trkpt lat="45.36019" lon="0.57732">
        <ele>155</ele>
        <time>2025-04-16T09:08:42Z</time>
      </trkpt>
      <trkpt lat="45.36043" lon="0.57793">
        <ele>157</ele>
        <time>2025-04-16T09:08:50Z</time>
      </trkpt>
      <trkpt lat="45.36103" lon="0.58004">
        <ele>159</ele>
        <time>2025-04-16T09:09:19Z</time>
      </trkpt>
      <trkpt lat="45.36128" lon="0.58107">
        <ele>161</ele>
        <time>2025-04-16T09:09:32Z</time>
      </trkpt>
      <trkpt lat="45.3613" lon="0.58156">
        <ele>163</ele>
        <time>2025-04-16T09:09:38Z</time>
      </trkpt>
      <trkpt lat="45.36081" lon="0.58561">
        <ele>169</ele>
        <time>2025-04-16T09:10:30Z</time>
      </trkpt>
      <trkpt lat="45.36048" lon="0.58552">
        <ele>169</ele>
        <time>2025-04-16T09:10:36Z</time>
      </trkpt>
      <trkpt lat="45.36026" lon="0.58547">
        <ele>170</ele>
        <time>2025-04-16T09:10:40Z</time>
      </trkpt>
      <trkpt lat="45.36001" lon="0.58547">
        <ele>170</ele>
        <time>2025-04-16T09:10:44Z</time>
      </trkpt>
      <trkpt lat="45.36026" lon="0.58547">
        <ele>170</ele>
        <time>2025-04-16T09:10:49Z</time>
      </trkpt>
      <trkpt lat="45.36048" lon="0.58552">
        <ele>169</ele>
        <time>2025-04-16T09:10:53Z</time>
      </trkpt>
      <trkpt lat="45.36081" lon="0.58561">
        <ele>169</ele>
        <time>2025-04-16T09:10:59Z</time>
      </trkpt>
      <trkpt lat="45.36011" lon="0.58873">
        <ele>177</ele>
        <time>2025-04-16T09:11:40Z</time>
      </trkpt>
      <trkpt lat="45.3601" lon="0.58894">
        <ele>178</ele>
        <time>2025-04-16T09:11:42Z</time>
      </trkpt>
      <trkpt lat="45.36002" lon="0.58899">
        <ele>178</ele>
        <time>2025-04-16T09:11:44Z</time>
      </trkpt>
      <trkpt lat="45.3597" lon="0.58907">
        <ele>177</ele>
        <time>2025-04-16T09:11:50Z</time>
      </trkpt>
      <trkpt lat="45.35962" lon="0.58913">
        <ele>177</ele>
        <time>2025-04-16T09:11:51Z</time>
      </trkpt>
      <trkpt lat="45.35957" lon="0.58919">
        <ele>177</ele>
        <time>2025-04-16T09:11:52Z</time>
      </trkpt>
      <trkpt lat="45.35955" lon="0.58927">
        <ele>177</ele>
        <time>2025-04-16T09:11:53Z</time>
      </trkpt>
      <trkpt lat="45.35944" lon="0.59016">
        <ele>177</ele>
        <time>2025-04-16T09:12:05Z</time>
      </trkpt>
      <trkpt lat="45.3594" lon="0.59038">
        <ele>177</ele>
        <time>2025-04-16T09:12:08Z</time>
      </trkpt>
      <trkpt lat="45.35934" lon="0.59057">
        <ele>177</ele>
        <time>2025-04-16T09:12:10Z</time>
      </trkpt>
      <trkpt lat="45.3592" lon="0.59086">
        <ele>177</ele>
        <time>2025-04-16T09:12:15Z</time>
      </trkpt>
      <trkpt lat="45.35843" lon="0.59219">
        <ele>175</ele>
        <time>2025-04-16T09:12:36Z</time>
      </trkpt>
      <trkpt lat="45.35774" lon="0.59289">
        <ele>177</ele>
        <time>2025-04-16T09:12:51Z</time>
      </trkpt>
      <trkpt lat="45.35711" lon="0.59391">
        <ele>178</ele>
        <time>2025-04-16T09:13:08Z</time>
      </trkpt>
      <trkpt lat="45.35681" lon="0.59438">
        <ele>178</ele>
        <time>2025-04-16T09:13:16Z</time>
      </trkpt>
      <trkpt lat="45.35659" lon="0.5946">
        <ele>178</ele>
        <time>2025-04-16T09:13:21Z</time>
      </trkpt>
      <trkpt lat="45.3563" lon="0.59484">
        <ele>178</ele>
        <time>2025-04-16T09:13:27Z</time>
      </trkpt>
      <trkpt lat="45.35606" lon="0.59514">
        <ele>179</ele>
        <time>2025-04-16T09:13:33Z</time>
      </trkpt>
      <trkpt lat="45.35522" lon="0.59652">
        <ele>177</ele>
        <time>2025-04-16T09:13:55Z</time>
      </trkpt>
      <trkpt lat="45.35497" lon="0.59678">
        <ele>177</ele>
        <time>2025-04-16T09:14:01Z</time>
      </trkpt>
      <trkpt lat="45.35438" lon="0.59721">
        <ele>176</ele>
        <time>2025-04-16T09:14:13Z</time>
      </trkpt>
      <trkpt lat="45.35242" lon="0.59864">
        <ele>177</ele>
        <time>2025-04-16T09:14:52Z</time>
      </trkpt>
      <trkpt lat="45.35192" lon="0.59891">
        <ele>176</ele>
        <time>2025-04-16T09:15:01Z</time>
      </trkpt>
      <trkpt lat="45.35144" lon="0.59909">
        <ele>176</ele>
        <time>2025-04-16T09:15:10Z</time>
      </trkpt>
      <trkpt lat="45.3511" lon="0.59907">
        <ele>177</ele>
        <time>2025-04-16T09:15:16Z</time>
      </trkpt>
      <trkpt lat="45.348" lon="0.59722">
        <ele>177</ele>
        <time>2025-04-16T09:16:16Z</time>
      </trkpt>
      <trkpt lat="45.34772" lon="0.59711">
        <ele>177</ele>
        <time>2025-04-16T09:16:21Z</time>
      </trkpt>
      <trkpt lat="45.34677" lon="0.59716">
        <ele>175</ele>
        <time>2025-04-16T09:16:38Z</time>
      </trkpt>
      <trkpt lat="45.34671" lon="0.59716">
        <ele>175</ele>
        <time>2025-04-16T09:16:39Z</time>
      </trkpt>
      <trkpt lat="45.34641" lon="0.59717">
        <ele>174</ele>
        <time>2025-04-16T09:16:45Z</time>
      </trkpt>
      <trkpt lat="45.34564" lon="0.59725">
        <ele>172</ele>
        <time>2025-04-16T09:16:58Z</time>
      </trkpt>
      <trkpt lat="45.34549" lon="0.59728">
        <ele>172</ele>
        <time>2025-04-16T09:17:01Z</time>
      </trkpt>
      <trkpt lat="45.34528" lon="0.59757">
        <ele>170</ele>
        <time>2025-04-16T09:17:06Z</time>
      </trkpt>
      <trkpt lat="45.34514" lon="0.59785">
        <ele>168</ele>
        <time>2025-04-16T09:17:10Z</time>
      </trkpt>
      <trkpt lat="45.34503" lon="0.59821">
        <ele>167</ele>
        <time>2025-04-16T09:17:15Z</time>
      </trkpt>
      <trkpt lat="45.34496" lon="0.59852">
        <ele>166</ele>
        <time>2025-04-16T09:17:19Z</time>
      </trkpt>
      <trkpt lat="45.34484" lon="0.59879">
        <ele>165</ele>
        <time>2025-04-16T09:17:23Z</time>
      </trkpt>
      <trkpt lat="45.34466" lon="0.59893">
        <ele>164</ele>
        <time>2025-04-16T09:17:27Z</time>
      </trkpt>
      <trkpt lat="45.34451" lon="0.59898">
        <ele>164</ele>
        <time>2025-04-16T09:17:30Z</time>
      </trkpt>
      <trkpt lat="45.34429" lon="0.59902">
        <ele>163</ele>
        <time>2025-04-16T09:17:34Z</time>
      </trkpt>
      <trkpt lat="45.34355" lon="0.59875">
        <ele>160</ele>
        <time>2025-04-16T09:17:47Z</time>
      </trkpt>
      <trkpt lat="45.34257" lon="0.59833">
        <ele>158</ele>
        <time>2025-04-16T09:18:06Z</time>
      </trkpt>
      <trkpt lat="45.34239" lon="0.59815">
        <ele>158</ele>
        <time>2025-04-16T09:18:09Z</time>
      </trkpt>
      <trkpt lat="45.34219" lon="0.59784">
        <ele>158</ele>
        <time>2025-04-16T09:18:15Z</time>
      </trkpt>
      <trkpt lat="45.34176" lon="0.59659">
        <ele>152</ele>
        <time>2025-04-16T09:18:32Z</time>
      </trkpt>
      <trkpt lat="45.34144" lon="0.59614">
        <ele>150</ele>
        <time>2025-04-16T09:18:40Z</time>
      </trkpt>
      <trkpt lat="45.34087" lon="0.59556">
        <ele>148</ele>
        <time>2025-04-16T09:18:53Z</time>
      </trkpt>
      <trkpt lat="45.34059" lon="0.59537">
        <ele>147</ele>
        <time>2025-04-16T09:18:58Z</time>
      </trkpt>
      <trkpt lat="45.34012" lon="0.5951">
        <ele>143</ele>
        <time>2025-04-16T09:19:07Z</time>
      </trkpt>
      <trkpt lat="45.33985" lon="0.59505">
        <ele>141</ele>
        <time>2025-04-16T09:19:12Z</time>
      </trkpt>
      <trkpt lat="45.33862" lon="0.59515">
        <ele>137</ele>
        <time>2025-04-16T09:19:34Z</time>
      </trkpt>
      <trkpt lat="45.33832" lon="0.59509">
        <ele>135</ele>
        <time>2025-04-16T09:19:39Z</time>
      </trkpt>
      <trkpt lat="45.33813" lon="0.59497">
        <ele>134</ele>
        <time>2025-04-16T09:19:43Z</time>
      </trkpt>
      <trkpt lat="45.33788" lon="0.59486">
        <ele>134</ele>
        <time>2025-04-16T09:19:48Z</time>
      </trkpt>
      <trkpt lat="45.33745" lon="0.59458">
        <ele>133</ele>
        <time>2025-04-16T09:19:56Z</time>
      </trkpt>
      <trkpt lat="45.33713" lon="0.59416">
        <ele>129</ele>
        <time>2025-04-16T09:20:04Z</time>
      </trkpt>
      <trkpt lat="45.337" lon="0.59403">
        <ele>130</ele>
        <time>2025-04-16T09:20:07Z</time>
      </trkpt>
      <trkpt lat="45.33684" lon="0.59392">
        <ele>129</ele>
        <time>2025-04-16T09:20:10Z</time>
      </trkpt>
      <trkpt lat="45.33664" lon="0.59386">
        <ele>128</ele>
        <time>2025-04-16T09:20:13Z</time>
      </trkpt>
      <trkpt lat="45.33535" lon="0.59379">
        <ele>120</ele>
        <time>2025-04-16T09:20:36Z</time>
      </trkpt>
      <trkpt lat="45.33497" lon="0.59375">
        <ele>116</ele>
        <time>2025-04-16T09:20:43Z</time>
      </trkpt>
      <trkpt lat="45.33475" lon="0.59364">
        <ele>112</ele>
        <time>2025-04-16T09:20:47Z</time>
      </trkpt>
      <trkpt lat="45.33443" lon="0.59339">
        <ele>106</ele>
        <time>2025-04-16T09:20:54Z</time>
      </trkpt>
      <trkpt lat="45.33438" lon="0.59307">
        <ele>109</ele>
        <time>2025-04-16T09:20:58Z</time>
      </trkpt>
      <trkpt lat="45.33427" lon="0.59275">
        <ele>112</ele>
        <time>2025-04-16T09:21:02Z</time>
      </trkpt>
      <trkpt lat="45.33385" lon="0.59196">
        <ele>121</ele>
        <time>2025-04-16T09:21:15Z</time>
      </trkpt>
      <trkpt lat="45.3332" lon="0.59144">
        <ele>121</ele>
        <time>2025-04-16T09:21:28Z</time>
      </trkpt>
      <trkpt lat="45.33293" lon="0.59134">
        <ele>120</ele>
        <time>2025-04-16T09:21:33Z</time>
      </trkpt>
      <trkpt lat="45.33268" lon="0.59124">
        <ele>119</ele>
        <time>2025-04-16T09:21:38Z</time>
      </trkpt>
      <trkpt lat="45.33238" lon="0.5912">
        <ele>117</ele>
        <time>2025-04-16T09:21:43Z</time>
      </trkpt>
      <trkpt lat="45.33107" lon="0.59127">
        <ele>106</ele>
        <time>2025-04-16T09:22:06Z</time>
      </trkpt>
      <trkpt lat="45.33081" lon="0.59121">
        <ele>106</ele>
        <time>2025-04-16T09:22:11Z</time>
      </trkpt>
      <trkpt lat="45.33056" lon="0.59102">
        <ele>107</ele>
        <time>2025-04-16T09:22:16Z</time>
      </trkpt>
      <trkpt lat="45.33023" lon="0.59064">
        <ele>109</ele>
        <time>2025-04-16T09:22:24Z</time>
      </trkpt>
      <trkpt lat="45.32991" lon="0.59041">
        <ele>110</ele>
        <time>2025-04-16T09:22:30Z</time>
      </trkpt>
      <trkpt lat="45.32895" lon="0.58992">
        <ele>104</ele>
        <time>2025-04-16T09:22:48Z</time>
      </trkpt>
      <trkpt lat="45.32863" lon="0.58966">
        <ele>101</ele>
        <time>2025-04-16T09:22:55Z</time>
      </trkpt>
      <trkpt lat="45.3284" lon="0.58958">
        <ele>98</ele>
        <time>2025-04-16T09:22:59Z</time>
      </trkpt>
      <trkpt lat="45.32809" lon="0.58962">
        <ele>98</ele>
        <time>2025-04-16T09:23:04Z</time>
      </trkpt>
      <trkpt lat="45.3278" lon="0.58969">
        <ele>98</ele>
        <time>2025-04-16T09:23:10Z</time>
      </trkpt>
      <trkpt lat="45.32751" lon="0.58968">
        <ele>98</ele>
        <time>2025-04-16T09:23:15Z</time>
      </trkpt>
      <trkpt lat="45.32712" lon="0.58961">
        <ele>98</ele>
        <time>2025-04-16T09:23:22Z</time>
      </trkpt>
      <trkpt lat="45.32674" lon="0.58964">
        <ele>97</ele>
        <time>2025-04-16T09:23:29Z</time>
      </trkpt>
      <trkpt lat="45.32636" lon="0.58973">
        <ele>96</ele>
        <time>2025-04-16T09:23:35Z</time>
      </trkpt>
      <trkpt lat="45.32566" lon="0.58977">
        <ele>93</ele>
        <time>2025-04-16T09:23:48Z</time>
      </trkpt>
      <trkpt lat="45.3253" lon="0.5897">
        <ele>93</ele>
        <time>2025-04-16T09:23:54Z</time>
      </trkpt>
      <trkpt lat="45.32504" lon="0.58951">
        <ele>93</ele>
        <time>2025-04-16T09:24:00Z</time>
      </trkpt>
      <trkpt lat="45.32479" lon="0.58913">
        <ele>92</ele>
        <time>2025-04-16T09:24:06Z</time>
      </trkpt>
      <trkpt lat="45.3246" lon="0.58871">
        <ele>92</ele>
        <time>2025-04-16T09:24:12Z</time>
      </trkpt>
      <trkpt lat="45.32441" lon="0.58806">
        <ele>92</ele>
        <time>2025-04-16T09:24:21Z</time>
      </trkpt>
      <trkpt lat="45.32432" lon="0.58753">
        <ele>94</ele>
        <time>2025-04-16T09:24:28Z</time>
      </trkpt>
      <trkpt lat="45.32424" lon="0.58626">
        <ele>95</ele>
        <time>2025-04-16T09:24:44Z</time>
      </trkpt>
      <trkpt lat="45.32434" lon="0.58503">
        <ele>94</ele>
        <time>2025-04-16T09:24:59Z</time>
      </trkpt>
      <trkpt lat="45.32435" lon="0.5845">
        <ele>94</ele>
        <time>2025-04-16T09:25:06Z</time>
      </trkpt>
      <trkpt lat="45.32416" lon="0.58292">
        <ele>94</ele>
        <time>2025-04-16T09:25:26Z</time>
      </trkpt>
      <trkpt lat="45.32421" lon="0.58219">
        <ele>96</ele>
        <time>2025-04-16T09:25:35Z</time>
      </trkpt>
      <trkpt lat="45.32431" lon="0.5818">
        <ele>98</ele>
        <time>2025-04-16T09:25:41Z</time>
      </trkpt>
      <trkpt lat="45.32443" lon="0.58158">
        <ele>99</ele>
        <time>2025-04-16T09:25:44Z</time>
      </trkpt>
      <trkpt lat="45.32448" lon="0.58145">
        <ele>99</ele>
        <time>2025-04-16T09:25:46Z</time>
      </trkpt>
      <trkpt lat="45.32452" lon="0.58119">
        <ele>100</ele>
        <time>2025-04-16T09:25:49Z</time>
      </trkpt>
      <trkpt lat="45.32459" lon="0.57884">
        <ele>96</ele>
        <time>2025-04-16T09:26:19Z</time>
      </trkpt>
      <trkpt lat="45.32458" lon="0.57807">
        <ele>95</ele>
        <time>2025-04-16T09:26:28Z</time>
      </trkpt>
      <trkpt lat="45.3246" lon="0.5777">
        <ele>94</ele>
        <time>2025-04-16T09:26:33Z</time>
      </trkpt>
      <trkpt lat="45.32464" lon="0.57732">
        <ele>94</ele>
        <time>2025-04-16T09:26:38Z</time>
      </trkpt>
      <trkpt lat="45.32494" lon="0.57579">
        <ele>97</ele>
        <time>2025-04-16T09:26:58Z</time>
      </trkpt>
      <trkpt lat="45.32498" lon="0.57548">
        <ele>97</ele>
        <time>2025-04-16T09:27:01Z</time>
      </trkpt>
      <trkpt lat="45.325" lon="0.57499">
        <ele>98</ele>
        <time>2025-04-16T09:27:08Z</time>
      </trkpt>
      <trkpt lat="45.32494" lon="0.57324">
        <ele>99</ele>
        <time>2025-04-16T09:27:30Z</time>
      </trkpt>
      <trkpt lat="45.3247" lon="0.57056">
        <ele>100</ele>
        <time>2025-04-16T09:28:03Z</time>
      </trkpt>
      <trkpt lat="45.32462" lon="0.5701">
        <ele>100</ele>
        <time>2025-04-16T09:28:09Z</time>
      </trkpt>
      <trkpt lat="45.32444" lon="0.56948">
        <ele>102</ele>
        <time>2025-04-16T09:28:18Z</time>
      </trkpt>
      <trkpt lat="45.32421" lon="0.56883">
        <ele>103</ele>
        <time>2025-04-16T09:28:27Z</time>
      </trkpt>
      <trkpt lat="45.32352" lon="0.56705">
        <ele>106</ele>
        <time>2025-04-16T09:28:52Z</time>
      </trkpt>
      <trkpt lat="45.3231" lon="0.56646">
        <ele>108</ele>
        <time>2025-04-16T09:29:03Z</time>
      </trkpt>
      <trkpt lat="45.3216" lon="0.56482">
        <ele>108</ele>
        <time>2025-04-16T09:29:36Z</time>
      </trkpt>
      <trkpt lat="45.32064" lon="0.56336">
        <ele>105</ele>
        <time>2025-04-16T09:30:01Z</time>
      </trkpt>
      <trkpt lat="45.32048" lon="0.56287">
        <ele>102</ele>
        <time>2025-04-16T09:30:08Z</time>
      </trkpt>
      <trkpt lat="45.32044" lon="0.56259">
        <ele>101</ele>
        <time>2025-04-16T09:30:12Z</time>
      </trkpt>
      <trkpt lat="45.32052" lon="0.56239">
        <ele>101</ele>
        <time>2025-04-16T09:30:15Z</time>
      </trkpt>
      <trkpt lat="45.32095" lon="0.56174">
        <ele>105</ele>
        <time>2025-04-16T09:30:26Z</time>
      </trkpt>
      <trkpt lat="45.32111" lon="0.56141">
        <ele>105</ele>
        <time>2025-04-16T09:30:31Z</time>
      </trkpt>
      <trkpt lat="45.32113" lon="0.56105">
        <ele>102</ele>
        <time>2025-04-16T09:30:35Z</time>
      </trkpt>
      <trkpt lat="45.32103" lon="0.56074">
        <ele>98</ele>
        <time>2025-04-16T09:30:40Z</time>
      </trkpt>
      <trkpt lat="45.32086" lon="0.56065">
        <ele>96</ele>
        <time>2025-04-16T09:30:43Z</time>
      </trkpt>
      <trkpt lat="45.32049" lon="0.5607">
        <ele>98</ele>
        <time>2025-04-16T09:30:49Z</time>
      </trkpt>
      <trkpt lat="45.3203" lon="0.56069">
        <ele>99</ele>
        <time>2025-04-16T09:30:53Z</time>
      </trkpt>
      <trkpt lat="45.32008" lon="0.56065">
        <ele>100</ele>
        <time>2025-04-16T09:30:57Z</time>
      </trkpt>
      <trkpt lat="45.31976" lon="0.5605">
        <ele>104</ele>
        <time>2025-04-16T09:31:03Z</time>
      </trkpt>
      <trkpt lat="45.31934" lon="0.56003">
        <ele>110</ele>
        <time>2025-04-16T09:31:12Z</time>
      </trkpt>
      <trkpt lat="45.3189" lon="0.55915">
        <ele>117</ele>
        <time>2025-04-16T09:31:26Z</time>
      </trkpt>
      <trkpt lat="45.31883" lon="0.55892">
        <ele>118</ele>
        <time>2025-04-16T09:31:29Z</time>
      </trkpt>
      <trkpt lat="45.31878" lon="0.55895">
        <ele>118</ele>
        <time>2025-04-16T09:31:30Z</time>
      </trkpt>
      <trkpt lat="45.31864" lon="0.55895">
        <ele>118</ele>
        <time>2025-04-16T09:31:32Z</time>
      </trkpt>
      <trkpt lat="45.31849" lon="0.55901">
        <ele>118</ele>
        <time>2025-04-16T09:31:35Z</time>
      </trkpt>
      <trkpt lat="45.31841" lon="0.55912">
        <ele>118</ele>
        <time>2025-04-16T09:31:37Z</time>
      </trkpt>
      <trkpt lat="45.31822" lon="0.55946">
        <ele>118</ele>
        <time>2025-04-16T09:31:43Z</time>
      </trkpt>
      <trkpt lat="45.31816" lon="0.55955">
        <ele>118</ele>
        <time>2025-04-16T09:31:44Z</time>
      </trkpt>
      <trkpt lat="45.31805" lon="0.55964">
        <ele>119</ele>
        <time>2025-04-16T09:31:46Z</time>
      </trkpt>
      <trkpt lat="45.3179" lon="0.5597">
        <ele>120</ele>
        <time>2025-04-16T09:31:49Z</time>
      </trkpt>
      <trkpt lat="45.31757" lon="0.55967">
        <ele>123</ele>
        <time>2025-04-16T09:31:55Z</time>
      </trkpt>
      <trkpt lat="45.31718" lon="0.55946">
        <ele>125</ele>
        <time>2025-04-16T09:32:02Z</time>
      </trkpt>
      <trkpt lat="45.31633" lon="0.55857">
        <ele>132</ele>
        <time>2025-04-16T09:32:21Z</time>
      </trkpt>
      <trkpt lat="45.3157" lon="0.55848">
        <ele>131</ele>
        <time>2025-04-16T09:32:32Z</time>
      </trkpt>
      <trkpt lat="45.31512" lon="0.55846">
        <ele>131</ele>
        <time>2025-04-16T09:32:43Z</time>
      </trkpt>
      <trkpt lat="45.31457" lon="0.55854">
        <ele>129</ele>
        <time>2025-04-16T09:32:53Z</time>
      </trkpt>
      <trkpt lat="45.31365" lon="0.55889">
        <ele>127</ele>
        <time>2025-04-16T09:33:10Z</time>
      </trkpt>
      <trkpt lat="45.31325" lon="0.55903">
        <ele>126</ele>
        <time>2025-04-16T09:33:17Z</time>
      </trkpt>
      <trkpt lat="45.31284" lon="0.55902">
        <ele>124</ele>
        <time>2025-04-16T09:33:24Z</time>
      </trkpt>
      <trkpt lat="45.31217" lon="0.55859">
        <ele>121</ele>
        <time>2025-04-16T09:33:37Z</time>
      </trkpt>
      <trkpt lat="45.3119" lon="0.5583">
        <ele>121</ele>
        <time>2025-04-16T09:33:43Z</time>
      </trkpt>
      <trkpt lat="45.31137" lon="0.55688">
        <ele>115</ele>
        <time>2025-04-16T09:34:03Z</time>
      </trkpt>
      <trkpt lat="45.31108" lon="0.55642">
        <ele>115</ele>
        <time>2025-04-16T09:34:11Z</time>
      </trkpt>
      <trkpt lat="45.31078" lon="0.55607">
        <ele>116</ele>
        <time>2025-04-16T09:34:18Z</time>
      </trkpt>
      <trkpt lat="45.31051" lon="0.55561">
        <ele>113</ele>
        <time>2025-04-16T09:34:26Z</time>
      </trkpt>
      <trkpt lat="45.31031" lon="0.55508">
        <ele>108</ele>
        <time>2025-04-16T09:34:33Z</time>
      </trkpt>
      <trkpt lat="45.31002" lon="0.55442">
        <ele>105</ele>
        <time>2025-04-16T09:34:43Z</time>
      </trkpt>
      <trkpt lat="45.30961" lon="0.55389">
        <ele>104</ele>
        <time>2025-04-16T09:34:53Z</time>
      </trkpt>
      <trkpt lat="45.30911" lon="0.55328">
        <ele>96</ele>
        <time>2025-04-16T09:35:04Z</time>
      </trkpt>
      <trkpt lat="45.30837" lon="0.55264">
        <ele>91</ele>
        <time>2025-04-16T09:35:20Z</time>
      </trkpt>
      <trkpt lat="45.30814" lon="0.55253">
        <ele>90</ele>
        <time>2025-04-16T09:35:24Z</time>
      </trkpt>
      <trkpt lat="45.30786" lon="0.55245">
        <ele>91</ele>
        <time>2025-04-16T09:35:29Z</time>
      </trkpt>
      <trkpt lat="45.30761" lon="0.55233">
        <ele>91</ele>
        <time>2025-04-16T09:35:34Z</time>
      </trkpt>
      <trkpt lat="45.30745" lon="0.55219">
        <ele>91</ele>
        <time>2025-04-16T09:35:37Z</time>
      </trkpt>
      <trkpt lat="45.30741" lon="0.55206">
        <ele>91</ele>
        <time>2025-04-16T09:35:39Z</time>
      </trkpt>
      <trkpt lat="45.3074" lon="0.55193">
        <ele>91</ele>
        <time>2025-04-16T09:35:41Z</time>
      </trkpt>
      <trkpt lat="45.30767" lon="0.55119">
        <ele>91</ele>
        <time>2025-04-16T09:35:51Z</time>
      </trkpt>
      <trkpt lat="45.30769" lon="0.55107">
        <ele>91</ele>
        <time>2025-04-16T09:35:53Z</time>
      </trkpt>
      <trkpt lat="45.30764" lon="0.55084">
        <ele>91</ele>
        <time>2025-04-16T09:35:56Z</time>
      </trkpt>
      <trkpt lat="45.30745" lon="0.55028">
        <ele>91</ele>
        <time>2025-04-16T09:36:03Z</time>
      </trkpt>
      <trkpt lat="45.30738" lon="0.54993">
        <ele>91</ele>
        <time>2025-04-16T09:36:08Z</time>
      </trkpt>
      <trkpt lat="45.30732" lon="0.54919">
        <ele>92</ele>
        <time>2025-04-16T09:36:17Z</time>
      </trkpt>
      <trkpt lat="45.30731" lon="0.54914">
        <ele>92</ele>
        <time>2025-04-16T09:36:18Z</time>
      </trkpt>
      <trkpt lat="45.3073" lon="0.54859">
        <ele>91</ele>
        <time>2025-04-16T09:36:25Z</time>
      </trkpt>
      <trkpt lat="45.30751" lon="0.54646">
        <ele>95</ele>
        <time>2025-04-16T09:36:52Z</time>
      </trkpt>
      <trkpt lat="45.30751" lon="0.54628">
        <ele>97</ele>
        <time>2025-04-16T09:36:54Z</time>
      </trkpt>
      <trkpt lat="45.30746" lon="0.54604">
        <ele>99</ele>
        <time>2025-04-16T09:36:57Z</time>
      </trkpt>
      <trkpt lat="45.30741" lon="0.54593">
        <ele>100</ele>
        <time>2025-04-16T09:36:59Z</time>
      </trkpt>
      <trkpt lat="45.30732" lon="0.5458">
        <ele>100</ele>
        <time>2025-04-16T09:37:01Z</time>
      </trkpt>
      <trkpt lat="45.30718" lon="0.54566">
        <ele>100</ele>
        <time>2025-04-16T09:37:04Z</time>
      </trkpt>
      <trkpt lat="45.30693" lon="0.54545">
        <ele>100</ele>
        <time>2025-04-16T09:37:09Z</time>
      </trkpt>
      <trkpt lat="45.30582" lon="0.54464">
        <ele>103</ele>
        <time>2025-04-16T09:37:31Z</time>
      </trkpt>
      <trkpt lat="45.30574" lon="0.54456">
        <ele>103</ele>
        <time>2025-04-16T09:37:33Z</time>
      </trkpt>
      <trkpt lat="45.30571" lon="0.54451">
        <ele>103</ele>
        <time>2025-04-16T09:37:34Z</time>
      </trkpt>
      <trkpt lat="45.30519" lon="0.54454">
        <ele>101</ele>
        <time>2025-04-16T09:37:43Z</time>
      </trkpt>
      <trkpt lat="45.30379" lon="0.54461">
        <ele>98</ele>
        <time>2025-04-16T09:38:08Z</time>
      </trkpt>
      <trkpt lat="45.30346" lon="0.54452">
        <ele>98</ele>
        <time>2025-04-16T09:38:14Z</time>
      </trkpt>
      <trkpt lat="45.30261" lon="0.54398">
        <ele>95</ele>
        <time>2025-04-16T09:38:31Z</time>
      </trkpt>
      <trkpt lat="45.30243" lon="0.54376">
        <ele>95</ele>
        <time>2025-04-16T09:38:35Z</time>
      </trkpt>
      <trkpt lat="45.30238" lon="0.54344">
        <ele>95</ele>
        <time>2025-04-16T09:38:39Z</time>
      </trkpt>
      <trkpt lat="45.30217" lon="0.54038">
        <ele>92</ele>
        <time>2025-04-16T09:39:18Z</time>
      </trkpt>
      <trkpt lat="45.3021" lon="0.53893">
        <ele>89</ele>
        <time>2025-04-16T09:39:36Z</time>
      </trkpt>
      <trkpt lat="45.30211" lon="0.53885">
        <ele>89</ele>
        <time>2025-04-16T09:39:37Z</time>
      </trkpt>
      <trkpt lat="45.30256" lon="0.53898">
        <ele>90</ele>
        <time>2025-04-16T09:39:45Z</time>
      </trkpt>
      <trkpt lat="45.30258" lon="0.53893">
        <ele>90</ele>
        <time>2025-04-16T09:39:46Z</time>
      </trkpt>
      <trkpt lat="45.30279" lon="0.53873">
        <ele>89</ele>
        <time>2025-04-16T09:39:50Z</time>
      </trkpt>
      <trkpt lat="45.30281" lon="0.5386">
        <ele>89</ele>
        <time>2025-04-16T09:39:52Z</time>
      </trkpt>
      <trkpt lat="45.30278" lon="0.53851">
        <ele>88</ele>
        <time>2025-04-16T09:39:53Z</time>
      </trkpt>
      <trkpt lat="45.30251" lon="0.53801">
        <ele>87</ele>
        <time>2025-04-16T09:40:01Z</time>
      </trkpt>
      <trkpt lat="45.30241" lon="0.5378">
        <ele>87</ele>
        <time>2025-04-16T09:40:04Z</time>
      </trkpt>
      <trkpt lat="45.30236" lon="0.53761">
        <ele>87</ele>
        <time>2025-04-16T09:40:07Z</time>
      </trkpt>
      <trkpt lat="45.30235" lon="0.5375">
        <ele>87</ele>
        <time>2025-04-16T09:40:08Z</time>
      </trkpt>
      <trkpt lat="45.30236" lon="0.53742">
        <ele>88</ele>
        <time>2025-04-16T09:40:09Z</time>
      </trkpt>
      <trkpt lat="45.30242" lon="0.53706">
        <ele>90</ele>
        <time>2025-04-16T09:40:14Z</time>
      </trkpt>
      <trkpt lat="45.30243" lon="0.53702">
        <ele>91</ele>
        <time>2025-04-16T09:40:14Z</time>
      </trkpt>
      <trkpt lat="45.30244" lon="0.53698">
        <ele>91</ele>
        <time>2025-04-16T09:40:15Z</time>
      </trkpt>
      <trkpt lat="45.30243" lon="0.53688">
        <ele>92</ele>
        <time>2025-04-16T09:40:16Z</time>
      </trkpt>
      <trkpt lat="45.30216" lon="0.53613">
        <ele>96</ele>
        <time>2025-04-16T09:40:27Z</time>
      </trkpt>
      <trkpt lat="45.30195" lon="0.5353">
        <ele>96</ele>
        <time>2025-04-16T09:40:38Z</time>
      </trkpt>
      <trkpt lat="45.30171" lon="0.53465">
        <ele>97</ele>
        <time>2025-04-16T09:40:47Z</time>
      </trkpt>
      <trkpt lat="45.30133" lon="0.53385">
        <ele>98</ele>
        <time>2025-04-16T09:40:59Z</time>
      </trkpt>
      <trkpt lat="45.30096" lon="0.53293">
        <ele>96</ele>
        <time>2025-04-16T09:41:12Z</time>
      </trkpt>
      <trkpt lat="45.30083" lon="0.53253">
        <ele>95</ele>
        <time>2025-04-16T09:41:18Z</time>
      </trkpt>
      <trkpt lat="45.30077" lon="0.53215">
        <ele>97</ele>
        <time>2025-04-16T09:41:23Z</time>
      </trkpt>
      <trkpt lat="45.30066" lon="0.53183">
        <ele>98</ele>
        <time>2025-04-16T09:41:27Z</time>
      </trkpt>
      <trkpt lat="45.30037" lon="0.53116">
        <ele>99</ele>
        <time>2025-04-16T09:41:37Z</time>
      </trkpt>
      <trkpt lat="45.29983" lon="0.53011">
        <ele>95</ele>
        <time>2025-04-16T09:41:53Z</time>
      </trkpt>
      <trkpt lat="45.29958" lon="0.52926">
        <ele>97</ele>
        <time>2025-04-16T09:42:05Z</time>
      </trkpt>
      <trkpt lat="45.2995" lon="0.52911">
        <ele>97</ele>
        <time>2025-04-16T09:42:07Z</time>
      </trkpt>
      <trkpt lat="45.29936" lon="0.529">
        <ele>96</ele>
        <time>2025-04-16T09:42:10Z</time>
      </trkpt>
      <trkpt lat="45.29896" lon="0.52875">
        <ele>95</ele>
        <time>2025-04-16T09:42:18Z</time>
      </trkpt>
      <trkpt lat="45.29853" lon="0.52837">
        <ele>94</ele>
        <time>2025-04-16T09:42:27Z</time>
      </trkpt>
      <trkpt lat="45.29828" lon="0.52803">
        <ele>94</ele>
        <time>2025-04-16T09:42:33Z</time>
      </trkpt>
      <trkpt lat="45.29803" lon="0.52774">
        <ele>96</ele>
        <time>2025-04-16T09:42:39Z</time>
      </trkpt>
      <trkpt lat="45.29794" lon="0.52767">
        <ele>96</ele>
        <time>2025-04-16T09:42:40Z</time>
      </trkpt>
      <trkpt lat="45.29769" lon="0.52747">
        <ele>96</ele>
        <time>2025-04-16T09:42:45Z</time>
      </trkpt>
      <trkpt lat="45.29717" lon="0.52718">
        <ele>96</ele>
        <time>2025-04-16T09:42:55Z</time>
      </trkpt>
      <trkpt lat="45.29672" lon="0.5265">
        <ele>99</ele>
        <time>2025-04-16T09:43:07Z</time>
      </trkpt>
      <trkpt lat="45.29594" lon="0.5256">
        <ele>101</ele>
        <time>2025-04-16T09:43:25Z</time>
      </trkpt>
      <trkpt lat="45.29539" lon="0.52492">
        <ele>102</ele>
        <time>2025-04-16T09:43:38Z</time>
      </trkpt>
      <trkpt lat="45.29531" lon="0.52479">
        <ele>101</ele>
        <time>2025-04-16T09:43:40Z</time>
      </trkpt>
      <trkpt lat="45.29507" lon="0.52426">
        <ele>100</ele>
        <time>2025-04-16T09:43:48Z</time>
      </trkpt>
      <trkpt lat="45.29484" lon="0.52388">
        <ele>99</ele>
        <time>2025-04-16T09:43:54Z</time>
      </trkpt>
      <trkpt lat="45.29464" lon="0.52362">
        <ele>99</ele>
        <time>2025-04-16T09:43:59Z</time>
      </trkpt>
      <trkpt lat="45.29453" lon="0.52353">
        <ele>99</ele>
        <time>2025-04-16T09:44:01Z</time>
      </trkpt>
      <trkpt lat="45.2944" lon="0.52347">
        <ele>99</ele>
        <time>2025-04-16T09:44:04Z</time>
      </trkpt>
      <trkpt lat="45.29434" lon="0.52346">
        <ele>99</ele>
        <time>2025-04-16T09:44:05Z</time>
      </trkpt>
      <trkpt lat="45.29424" lon="0.5235">
        <ele>99</ele>
        <time>2025-04-16T09:44:07Z</time>
      </trkpt>
      <trkpt lat="45.29366" lon="0.52413">
        <ele>99</ele>
        <time>2025-04-16T09:44:20Z</time>
      </trkpt>
      <trkpt lat="45.29349" lon="0.52429">
        <ele>99</ele>
        <time>2025-04-16T09:44:23Z</time>
      </trkpt>
      <trkpt lat="45.29323" lon="0.52442">
        <ele>99</ele>
        <time>2025-04-16T09:44:28Z</time>
      </trkpt>
      <trkpt lat="45.29278" lon="0.52457">
        <ele>100</ele>
        <time>2025-04-16T09:44:36Z</time>
      </trkpt>
      <trkpt lat="45.29248" lon="0.52472">
        <ele>99</ele>
        <time>2025-04-16T09:44:42Z</time>
      </trkpt>
      <trkpt lat="45.29207" lon="0.52484">
        <ele>99</ele>
        <time>2025-04-16T09:44:50Z</time>
      </trkpt>
      <trkpt lat="45.29095" lon="0.5248">
        <ele>101</ele>
        <time>2025-04-16T09:45:09Z</time>
      </trkpt>
      <trkpt lat="45.29086" lon="0.52492">
        <ele>100</ele>
        <time>2025-04-16T09:45:12Z</time>
      </trkpt>
      <trkpt lat="45.29075" lon="0.52498">
        <ele>100</ele>
        <time>2025-04-16T09:45:14Z</time>
      </trkpt>
      <trkpt lat="45.29047" lon="0.52502">
        <ele>100</ele>
        <time>2025-04-16T09:45:19Z</time>
      </trkpt>
      <trkpt lat="45.29005" lon="0.52517">
        <ele>100</ele>
        <time>2025-04-16T09:45:26Z</time>
      </trkpt>
      <trkpt lat="45.2891" lon="0.52576">
        <ele>102</ele>
        <time>2025-04-16T09:45:45Z</time>
      </trkpt>
      <trkpt lat="45.28886" lon="0.52598">
        <ele>101</ele>
        <time>2025-04-16T09:45:50Z</time>
      </trkpt>
      <trkpt lat="45.28807" lon="0.52689">
        <ele>97</ele>
        <time>2025-04-16T09:46:08Z</time>
      </trkpt>
      <trkpt lat="45.28776" lon="0.5272">
        <ele>96</ele>
        <time>2025-04-16T09:46:15Z</time>
      </trkpt>
      <trkpt lat="45.28747" lon="0.52732">
        <ele>98</ele>
        <time>2025-04-16T09:46:20Z</time>
      </trkpt>
      <trkpt lat="45.28721" lon="0.52738">
        <ele>101</ele>
        <time>2025-04-16T09:46:25Z</time>
      </trkpt>
      <trkpt lat="45.28625" lon="0.52801">
        <ele>106</ele>
        <time>2025-04-16T09:46:44Z</time>
      </trkpt>
      <trkpt lat="45.28597" lon="0.52837">
        <ele>104</ele>
        <time>2025-04-16T09:46:50Z</time>
      </trkpt>
      <trkpt lat="45.28546" lon="0.52918">
        <ele>102</ele>
        <time>2025-04-16T09:47:04Z</time>
      </trkpt>
      <trkpt lat="45.28512" lon="0.52958">
        <ele>106</ele>
        <time>2025-04-16T09:47:12Z</time>
      </trkpt>
      <trkpt lat="45.28476" lon="0.52998">
        <ele>110</ele>
        <time>2025-04-16T09:47:20Z</time>
      </trkpt>
      <trkpt lat="45.2843" lon="0.53069">
        <ele>110</ele>
        <time>2025-04-16T09:47:32Z</time>
      </trkpt>
      <trkpt lat="45.28414" lon="0.53095">
        <ele>111</ele>
        <time>2025-04-16T09:47:36Z</time>
      </trkpt>
      <trkpt lat="45.28407" lon="0.53103">
        <ele>112</ele>
        <time>2025-04-16T09:47:38Z</time>
      </trkpt>
      <trkpt lat="45.28403" lon="0.53104">
        <ele>114</ele>
        <time>2025-04-16T09:47:39Z</time>
      </trkpt>
      <trkpt lat="45.28341" lon="0.53277">
        <ele>105</ele>
        <time>2025-04-16T09:48:03Z</time>
      </trkpt>
      <trkpt lat="45.28294" lon="0.53417">
        <ele>99</ele>
        <time>2025-04-16T09:48:22Z</time>
      </trkpt>
      <trkpt lat="45.28217" lon="0.53574">
        <ele>93</ele>
        <time>2025-04-16T09:48:46Z</time>
      </trkpt>
      <trkpt lat="45.28183" lon="0.53627">
        <ele>91</ele>
        <time>2025-04-16T09:48:55Z</time>
      </trkpt>
      <trkpt lat="45.28149" lon="0.5367">
        <ele>91</ele>
        <time>2025-04-16T09:49:03Z</time>
      </trkpt>
      <trkpt lat="45.28064" lon="0.53756">
        <ele>92</ele>
        <time>2025-04-16T09:49:22Z</time>
      </trkpt>
      <trkpt lat="45.28034" lon="0.53792">
        <ele>89</ele>
        <time>2025-04-16T09:49:29Z</time>
      </trkpt>
      <trkpt lat="45.28019" lon="0.53816">
        <ele>87</ele>
        <time>2025-04-16T09:49:33Z</time>
      </trkpt>
      <trkpt lat="45.28002" lon="0.53781">
        <ele>91</ele>
        <time>2025-04-16T09:49:38Z</time>
      </trkpt>
      <trkpt lat="45.27984" lon="0.53761">
        <ele>93</ele>
        <time>2025-04-16T09:49:42Z</time>
      </trkpt>
      <trkpt lat="45.27875" lon="0.5367">
        <ele>101</ele>
        <time>2025-04-16T09:50:05Z</time>
      </trkpt>
      <trkpt lat="45.2785" lon="0.53645">
        <ele>102</ele>
        <time>2025-04-16T09:50:10Z</time>
      </trkpt>
      <trkpt lat="45.27824" lon="0.53623">
        <ele>103</ele>
        <time>2025-04-16T09:50:16Z</time>
      </trkpt>
      <trkpt lat="45.27806" lon="0.53594">
        <ele>103</ele>
        <time>2025-04-16T09:50:21Z</time>
      </trkpt>
      <trkpt lat="45.27776" lon="0.53503">
        <ele>104</ele>
        <time>2025-04-16T09:50:33Z</time>
      </trkpt>
      <trkpt lat="45.27751" lon="0.53441">
        <ele>107</ele>
        <time>2025-04-16T09:50:42Z</time>
      </trkpt>
      <trkpt lat="45.27682" lon="0.53296">
        <ele>112</ele>
        <time>2025-04-16T09:51:04Z</time>
      </trkpt>
      <trkpt lat="45.27637" lon="0.53236">
        <ele>110</ele>
        <time>2025-04-16T09:51:15Z</time>
      </trkpt>
      <trkpt lat="45.27621" lon="0.53182">
        <ele>109</ele>
        <time>2025-04-16T09:51:22Z</time>
      </trkpt>
      <trkpt lat="45.27596" lon="0.5307">
        <ele>103</ele>
        <time>2025-04-16T09:51:37Z</time>
      </trkpt>
      <trkpt lat="45.27588" lon="0.5298">
        <ele>104</ele>
        <time>2025-04-16T09:51:48Z</time>
      </trkpt>
      <trkpt lat="45.2758" lon="0.52957">
        <ele>104</ele>
        <time>2025-04-16T09:51:52Z</time>
      </trkpt>
      <trkpt lat="45.27541" lon="0.52883">
        <ele>99</ele>
        <time>2025-04-16T09:52:03Z</time>
      </trkpt>
      <trkpt lat="45.27512" lon="0.52807">
        <ele>93</ele>
        <time>2025-04-16T09:52:14Z</time>
      </trkpt>
      <trkpt lat="45.27464" lon="0.5269">
        <ele>89</ele>
        <time>2025-04-16T09:52:31Z</time>
      </trkpt>
      <trkpt lat="45.27462" lon="0.52673">
        <ele>89</ele>
        <time>2025-04-16T09:52:33Z</time>
      </trkpt>
      <trkpt lat="45.27463" lon="0.52656">
        <ele>88</ele>
        <time>2025-04-16T09:52:35Z</time>
      </trkpt>
      <trkpt lat="45.27478" lon="0.52571">
        <ele>88</ele>
        <time>2025-04-16T09:52:46Z</time>
      </trkpt>
      <trkpt lat="45.27477" lon="0.52571">
        <ele>88</ele>
        <time>2025-04-16T09:52:46Z</time>
      </trkpt>
      <trkpt lat="45.27478" lon="0.52571">
        <ele>88</ele>
        <time>2025-04-16T09:52:47Z</time>
      </trkpt>
      <trkpt lat="45.27492" lon="0.5248">
        <ele>87</ele>
        <time>2025-04-16T09:52:58Z</time>
      </trkpt>
      <trkpt lat="45.27506" lon="0.52245">
        <ele>84</ele>
        <time>2025-04-16T09:53:28Z</time>
      </trkpt>
      <trkpt lat="45.27514" lon="0.52044">
        <ele>83</ele>
        <time>2025-04-16T09:53:53Z</time>
      </trkpt>
      <trkpt lat="45.27523" lon="0.51953">
        <ele>83</ele>
        <time>2025-04-16T09:54:05Z</time>
      </trkpt>
      <trkpt lat="45.27539" lon="0.51862">
        <ele>83</ele>
        <time>2025-04-16T09:54:16Z</time>
      </trkpt>
      <trkpt lat="45.27576" lon="0.51746">
        <ele>83</ele>
        <time>2025-04-16T09:54:32Z</time>
      </trkpt>
      <trkpt lat="45.27582" lon="0.5169">
        <ele>83</ele>
        <time>2025-04-16T09:54:39Z</time>
      </trkpt>
      <trkpt lat="45.27576" lon="0.51642">
        <ele>82</ele>
        <time>2025-04-16T09:54:45Z</time>
      </trkpt>
      <trkpt lat="45.27564" lon="0.51587">
        <ele>81</ele>
        <time>2025-04-16T09:54:53Z</time>
      </trkpt>
      <trkpt lat="45.27533" lon="0.51545">
        <ele>82</ele>
        <time>2025-04-16T09:55:00Z</time>
      </trkpt>
      <trkpt lat="45.27488" lon="0.51476">
        <ele>81</ele>
        <time>2025-04-16T09:55:12Z</time>
      </trkpt>
      <trkpt lat="45.27475" lon="0.51425">
        <ele>81</ele>
        <time>2025-04-16T09:55:19Z</time>
      </trkpt>
      <trkpt lat="45.27468" lon="0.51372">
        <ele>81</ele>
        <time>2025-04-16T09:55:26Z</time>
      </trkpt>
      <trkpt lat="45.27456" lon="0.51158">
        <ele>83</ele>
        <time>2025-04-16T09:55:52Z</time>
      </trkpt>
      <trkpt lat="45.27444" lon="0.51011">
        <ele>87</ele>
        <time>2025-04-16T09:56:11Z</time>
      </trkpt>
      <trkpt lat="45.27437" lon="0.50981">
        <ele>86</ele>
        <time>2025-04-16T09:56:15Z</time>
      </trkpt>
      <trkpt lat="45.27426" lon="0.50954">
        <ele>85</ele>
        <time>2025-04-16T09:56:19Z</time>
      </trkpt>
      <trkpt lat="45.27381" lon="0.50879">
        <ele>82</ele>
        <time>2025-04-16T09:56:31Z</time>
      </trkpt>
      <trkpt lat="45.2734" lon="0.50841">
        <ele>83</ele>
        <time>2025-04-16T09:56:40Z</time>
      </trkpt>
      <trkpt lat="45.27287" lon="0.50823">
        <ele>83</ele>
        <time>2025-04-16T09:56:50Z</time>
      </trkpt>
      <trkpt lat="45.27225" lon="0.50831">
        <ele>83</ele>
        <time>2025-04-16T09:57:01Z</time>
      </trkpt>
      <trkpt lat="45.2712" lon="0.50852">
        <ele>80</ele>
        <time>2025-04-16T09:57:20Z</time>
      </trkpt>
      <trkpt lat="45.27057" lon="0.50848">
        <ele>80</ele>
        <time>2025-04-16T09:57:31Z</time>
      </trkpt>
      <trkpt lat="45.26993" lon="0.50823">
        <ele>79</ele>
        <time>2025-04-16T09:57:43Z</time>
      </trkpt>
      <trkpt lat="45.26917" lon="0.50747">
        <ele>78</ele>
        <time>2025-04-16T09:57:59Z</time>
      </trkpt>
      <trkpt lat="45.26838" lon="0.50649">
        <ele>79</ele>
        <time>2025-04-16T09:58:18Z</time>
      </trkpt>
      <trkpt lat="45.26753" lon="0.50556">
        <ele>78</ele>
        <time>2025-04-16T09:58:37Z</time>
      </trkpt>
      <trkpt lat="45.26613" lon="0.50446">
        <ele>80</ele>
        <time>2025-04-16T09:59:05Z</time>
      </trkpt>
      <trkpt lat="45.26556" lon="0.50409">
        <ele>80</ele>
        <time>2025-04-16T09:59:16Z</time>
      </trkpt>
      <trkpt lat="45.265" lon="0.50363">
        <ele>82</ele>
        <time>2025-04-16T09:59:28Z</time>
      </trkpt>
      <trkpt lat="45.26488" lon="0.50365">
        <ele>81</ele>
        <time>2025-04-16T09:59:30Z</time>
      </trkpt>
      <trkpt lat="45.26363" lon="0.50287">
        <ele>81</ele>
        <time>2025-04-16T09:59:54Z</time>
      </trkpt>
      <trkpt lat="45.2629" lon="0.50225">
        <ele>80</ele>
        <time>2025-04-16T10:00:10Z</time>
      </trkpt>
      <trkpt lat="45.26213" lon="0.50153">
        <ele>80</ele>
        <time>2025-04-16T10:00:26Z</time>
      </trkpt>
      <trkpt lat="45.26148" lon="0.50099">
        <ele>78</ele>
        <time>2025-04-16T10:00:39Z</time>
      </trkpt>
      <trkpt lat="45.26099" lon="0.50007">
        <ele>77</ele>
        <time>2025-04-16T10:00:54Z</time>
      </trkpt>
      <trkpt lat="45.26047" lon="0.49891">
        <ele>77</ele>
        <time>2025-04-16T10:01:11Z</time>
      </trkpt>
      <trkpt lat="45.26042" lon="0.49866">
        <ele>77</ele>
        <time>2025-04-16T10:01:14Z</time>
      </trkpt>
      <trkpt lat="45.26016" lon="0.4965">
        <ele>76</ele>
        <time>2025-04-16T10:01:42Z</time>
      </trkpt>
      <trkpt lat="45.25991" lon="0.49458">
        <ele>76</ele>
        <time>2025-04-16T10:02:06Z</time>
      </trkpt>
      <trkpt lat="45.25993" lon="0.49344">
        <ele>76</ele>
        <time>2025-04-16T10:02:20Z</time>
      </trkpt>
      <trkpt lat="45.25995" lon="0.49268">
        <ele>77</ele>
        <time>2025-04-16T10:02:30Z</time>
      </trkpt>
      <trkpt lat="45.26006" lon="0.49155">
        <ele>76</ele>
        <time>2025-04-16T10:02:44Z</time>
      </trkpt>
      <trkpt lat="45.26036" lon="0.49155">
        <ele>76</ele>
        <time>2025-04-16T10:02:50Z</time>
      </trkpt>
      <trkpt lat="45.26057" lon="0.49145">
        <ele>76</ele>
        <time>2025-04-16T10:02:54Z</time>
      </trkpt>
      <trkpt lat="45.261" lon="0.49114">
        <ele>76</ele>
        <time>2025-04-16T10:03:02Z</time>
      </trkpt>
      <trkpt lat="45.2626" lon="0.48987">
        <ele>78</ele>
        <time>2025-04-16T10:03:35Z</time>
      </trkpt>
      <trkpt lat="45.26458" lon="0.48839">
        <ele>84</ele>
        <time>2025-04-16T10:04:15Z</time>
      </trkpt>
      <trkpt lat="45.26502" lon="0.48793">
        <ele>85</ele>
        <time>2025-04-16T10:04:24Z</time>
      </trkpt>
      <trkpt lat="45.26515" lon="0.48775">
        <ele>85</ele>
        <time>2025-04-16T10:04:27Z</time>
      </trkpt>
      <trkpt lat="45.26504" lon="0.48726">
        <ele>85</ele>
        <time>2025-04-16T10:04:34Z</time>
      </trkpt>
      <trkpt lat="45.26493" lon="0.48647">
        <ele>85</ele>
        <time>2025-04-16T10:04:44Z</time>
      </trkpt>
      <trkpt lat="45.26488" lon="0.48577">
        <ele>85</ele>
        <time>2025-04-16T10:04:53Z</time>
      </trkpt>
      <trkpt lat="45.26463" lon="0.48443">
        <ele>84</ele>
        <time>2025-04-16T10:05:10Z</time>
      </trkpt>
      <trkpt lat="45.26462" lon="0.48278">
        <ele>83</ele>
        <time>2025-04-16T10:05:31Z</time>
      </trkpt>
      <trkpt lat="45.26451" lon="0.4819">
        <ele>85</ele>
        <time>2025-04-16T10:05:42Z</time>
      </trkpt>
      <trkpt lat="45.26422" lon="0.48029">
        <ele>84</ele>
        <time>2025-04-16T10:06:03Z</time>
      </trkpt>
      <trkpt lat="45.26407" lon="0.47952">
        <ele>84</ele>
        <time>2025-04-16T10:06:13Z</time>
      </trkpt>
      <trkpt lat="45.26388" lon="0.47875">
        <ele>84</ele>
        <time>2025-04-16T10:06:23Z</time>
      </trkpt>
      <trkpt lat="45.26358" lon="0.47789">
        <ele>82</ele>
        <time>2025-04-16T10:06:35Z</time>
      </trkpt>
      <trkpt lat="45.2634" lon="0.47731">
        <ele>82</ele>
        <time>2025-04-16T10:06:43Z</time>
      </trkpt>
      <trkpt lat="45.26281" lon="0.47489">
        <ele>77</ele>
        <time>2025-04-16T10:07:15Z</time>
      </trkpt>
      <trkpt lat="45.26269" lon="0.47456">
        <ele>79</ele>
        <time>2025-04-16T10:07:20Z</time>
      </trkpt>
      <trkpt lat="45.26257" lon="0.47436">
        <ele>79</ele>
        <time>2025-04-16T10:07:23Z</time>
      </trkpt>
      <trkpt lat="45.2615" lon="0.47318">
        <ele>75</ele>
        <time>2025-04-16T10:07:47Z</time>
      </trkpt>
      <trkpt lat="45.26114" lon="0.47251">
        <ele>76</ele>
        <time>2025-04-16T10:07:58Z</time>
      </trkpt>
      <trkpt lat="45.26091" lon="0.47196">
        <ele>77</ele>
        <time>2025-04-16T10:08:06Z</time>
      </trkpt>
      <trkpt lat="45.26068" lon="0.4714">
        <ele>77</ele>
        <time>2025-04-16T10:08:14Z</time>
      </trkpt>
      <trkpt lat="45.26003" lon="0.46998">
        <ele>77</ele>
        <time>2025-04-16T10:08:35Z</time>
      </trkpt>
      <trkpt lat="45.25967" lon="0.46898">
        <ele>80</ele>
        <time>2025-04-16T10:08:49Z</time>
      </trkpt>
      <trkpt lat="45.25879" lon="0.46678">
        <ele>79</ele>
        <time>2025-04-16T10:09:21Z</time>
      </trkpt>
      <trkpt lat="45.2587" lon="0.4666">
        <ele>80</ele>
        <time>2025-04-16T10:09:24Z</time>
      </trkpt>
      <trkpt lat="45.2586" lon="0.46648">
        <ele>80</ele>
        <time>2025-04-16T10:09:26Z</time>
      </trkpt>
      <trkpt lat="45.25825" lon="0.46618">
        <ele>81</ele>
        <time>2025-04-16T10:09:33Z</time>
      </trkpt>
      <trkpt lat="45.25818" lon="0.46608">
        <ele>81</ele>
        <time>2025-04-16T10:09:35Z</time>
      </trkpt>
      <trkpt lat="45.25811" lon="0.46593">
        <ele>81</ele>
        <time>2025-04-16T10:09:37Z</time>
      </trkpt>
      <trkpt lat="45.25811" lon="0.46573">
        <ele>82</ele>
        <time>2025-04-16T10:09:40Z</time>
      </trkpt>
      <trkpt lat="45.25821" lon="0.46489">
        <ele>86</ele>
        <time>2025-04-16T10:09:50Z</time>
      </trkpt>
      <trkpt lat="45.25818" lon="0.46466">
        <ele>86</ele>
        <time>2025-04-16T10:09:53Z</time>
      </trkpt>
      <trkpt lat="45.25813" lon="0.46442">
        <ele>87</ele>
        <time>2025-04-16T10:09:56Z</time>
      </trkpt>
      <trkpt lat="45.25803" lon="0.46413">
        <ele>87</ele>
        <time>2025-04-16T10:10:00Z</time>
      </trkpt>
      <trkpt lat="45.25785" lon="0.46371">
        <ele>89</ele>
        <time>2025-04-16T10:10:07Z</time>
      </trkpt>
      <trkpt lat="45.2572" lon="0.46244">
        <ele>91</ele>
        <time>2025-04-16T10:10:26Z</time>
      </trkpt>
      <trkpt lat="45.25706" lon="0.46206">
        <ele>92</ele>
        <time>2025-04-16T10:10:32Z</time>
      </trkpt>
      <trkpt lat="45.25702" lon="0.46182">
        <ele>92</ele>
        <time>2025-04-16T10:10:35Z</time>
      </trkpt>
      <trkpt lat="45.25701" lon="0.46158">
        <ele>93</ele>
        <time>2025-04-16T10:10:38Z</time>
      </trkpt>
      <trkpt lat="45.25706" lon="0.46133">
        <ele>94</ele>
        <time>2025-04-16T10:10:41Z</time>
      </trkpt>
      <trkpt lat="45.25716" lon="0.4611">
        <ele>95</ele>
        <time>2025-04-16T10:10:44Z</time>
      </trkpt>
      <trkpt lat="45.25753" lon="0.46058">
        <ele>99</ele>
        <time>2025-04-16T10:10:54Z</time>
      </trkpt>
      <trkpt lat="45.25774" lon="0.46013">
        <ele>101</ele>
        <time>2025-04-16T10:11:00Z</time>
      </trkpt>
      <trkpt lat="45.25778" lon="0.46">
        <ele>101</ele>
        <time>2025-04-16T10:11:02Z</time>
      </trkpt>
      <trkpt lat="45.25818" lon="0.45862">
        <ele>98</ele>
        <time>2025-04-16T10:11:21Z</time>
      </trkpt>
      <trkpt lat="45.25846" lon="0.45758">
        <ele>96</ele>
        <time>2025-04-16T10:11:35Z</time>
      </trkpt>
      <trkpt lat="45.25854" lon="0.45717">
        <ele>96</ele>
        <time>2025-04-16T10:11:40Z</time>
      </trkpt>
      <trkpt lat="45.25856" lon="0.45651">
        <ele>95</ele>
        <time>2025-04-16T10:11:48Z</time>
      </trkpt>
      <trkpt lat="45.25857" lon="0.45626">
        <ele>95</ele>
        <time>2025-04-16T10:11:52Z</time>
      </trkpt>
      <trkpt lat="45.25856" lon="0.45527">
        <ele>93</ele>
        <time>2025-04-16T10:12:04Z</time>
      </trkpt>
      <trkpt lat="45.25852" lon="0.45472">
        <ele>92</ele>
        <time>2025-04-16T10:12:11Z</time>
      </trkpt>
      <trkpt lat="45.25846" lon="0.45422">
        <ele>90</ele>
        <time>2025-04-16T10:12:17Z</time>
      </trkpt>
      <trkpt lat="45.25838" lon="0.45381">
        <ele>89</ele>
        <time>2025-04-16T10:12:23Z</time>
      </trkpt>
      <trkpt lat="45.25812" lon="0.45285">
        <ele>85</ele>
        <time>2025-04-16T10:12:36Z</time>
      </trkpt>
      <trkpt lat="45.25804" lon="0.4524">
        <ele>83</ele>
        <time>2025-04-16T10:12:41Z</time>
      </trkpt>
      <trkpt lat="45.25801" lon="0.45216">
        <ele>82</ele>
        <time>2025-04-16T10:12:44Z</time>
      </trkpt>
      <trkpt lat="45.25801" lon="0.45199">
        <ele>81</ele>
        <time>2025-04-16T10:12:46Z</time>
      </trkpt>
      <trkpt lat="45.25805" lon="0.45172">
        <ele>81</ele>
        <time>2025-04-16T10:12:50Z</time>
      </trkpt>
      <trkpt lat="45.2582" lon="0.45116">
        <ele>80</ele>
        <time>2025-04-16T10:12:57Z</time>
      </trkpt>
      <trkpt lat="45.25828" lon="0.4507">
        <ele>79</ele>
        <time>2025-04-16T10:13:03Z</time>
      </trkpt>
      <trkpt lat="45.25859" lon="0.4478">
        <ele>84</ele>
        <time>2025-04-16T10:13:40Z</time>
      </trkpt>
      <trkpt lat="45.2586" lon="0.44701">
        <ele>84</ele>
        <time>2025-04-16T10:13:50Z</time>
      </trkpt>
      <trkpt lat="45.2586" lon="0.44441">
        <ele>82</ele>
        <time>2025-04-16T10:14:23Z</time>
      </trkpt>
      <trkpt lat="45.25861" lon="0.44254">
        <ele>77</ele>
        <time>2025-04-16T10:14:46Z</time>
      </trkpt>
      <trkpt lat="45.25862" lon="0.44205">
        <ele>76</ele>
        <time>2025-04-16T10:14:52Z</time>
      </trkpt>
      <trkpt lat="45.25865" lon="0.44175">
        <ele>75</ele>
        <time>2025-04-16T10:14:56Z</time>
      </trkpt>
      <trkpt lat="45.2587" lon="0.44149">
        <ele>75</ele>
        <time>2025-04-16T10:14:59Z</time>
      </trkpt>
      <trkpt lat="45.25884" lon="0.44112">
        <ele>76</ele>
        <time>2025-04-16T10:15:05Z</time>
      </trkpt>
      <trkpt lat="45.25938" lon="0.44013">
        <ele>77</ele>
        <time>2025-04-16T10:15:20Z</time>
      </trkpt>
      <trkpt lat="45.25951" lon="0.43983">
        <ele>79</ele>
        <time>2025-04-16T10:15:25Z</time>
      </trkpt>
      <trkpt lat="45.25956" lon="0.43965">
        <ele>80</ele>
        <time>2025-04-16T10:15:27Z</time>
      </trkpt>
      <trkpt lat="45.2596" lon="0.43931">
        <ele>81</ele>
        <time>2025-04-16T10:15:31Z</time>
      </trkpt>
      <trkpt lat="45.25965" lon="0.43831">
        <ele>83</ele>
        <time>2025-04-16T10:15:44Z</time>
      </trkpt>
      <trkpt lat="45.25962" lon="0.43796">
        <ele>84</ele>
        <time>2025-04-16T10:15:48Z</time>
      </trkpt>
      <trkpt lat="45.25953" lon="0.43738">
        <ele>84</ele>
        <time>2025-04-16T10:15:56Z</time>
      </trkpt>
      <trkpt lat="45.25944" lon="0.43686">
        <ele>85</ele>
        <time>2025-04-16T10:16:03Z</time>
      </trkpt>
      <trkpt lat="45.25941" lon="0.43647">
        <ele>85</ele>
        <time>2025-04-16T10:16:07Z</time>
      </trkpt>
      <trkpt lat="45.25936" lon="0.43498">
        <ele>85</ele>
        <time>2025-04-16T10:16:26Z</time>
      </trkpt>
      <trkpt lat="45.25923" lon="0.43143">
        <ele>83</ele>
        <time>2025-04-16T10:17:11Z</time>
      </trkpt>
      <trkpt lat="45.25912" lon="0.43061">
        <ele>82</ele>
        <time>2025-04-16T10:17:21Z</time>
      </trkpt>
      <trkpt lat="45.2591" lon="0.43029">
        <ele>82</ele>
        <time>2025-04-16T10:17:25Z</time>
      </trkpt>
      <trkpt lat="45.25872" lon="0.42898">
        <ele>77</ele>
        <time>2025-04-16T10:17:43Z</time>
      </trkpt>
      <trkpt lat="45.25867" lon="0.42865">
        <ele>75</ele>
        <time>2025-04-16T10:17:47Z</time>
      </trkpt>
      <trkpt lat="45.25872" lon="0.42805">
        <ele>73</ele>
        <time>2025-04-16T10:17:55Z</time>
      </trkpt>
      <trkpt lat="45.25864" lon="0.42621">
        <ele>69</ele>
        <time>2025-04-16T10:18:18Z</time>
      </trkpt>
      <trkpt lat="45.25858" lon="0.42555">
        <ele>69</ele>
        <time>2025-04-16T10:18:26Z</time>
      </trkpt>
      <trkpt lat="45.25856" lon="0.42543">
        <ele>70</ele>
        <time>2025-04-16T10:18:28Z</time>
      </trkpt>
      <trkpt lat="45.2581" lon="0.42413">
        <ele>71</ele>
        <time>2025-04-16T10:18:46Z</time>
      </trkpt>
      <trkpt lat="45.25782" lon="0.42278">
        <ele>73</ele>
        <time>2025-04-16T10:19:03Z</time>
      </trkpt>
      <trkpt lat="45.25758" lon="0.42148">
        <ele>76</ele>
        <time>2025-04-16T10:19:20Z</time>
      </trkpt>
      <trkpt lat="45.25756" lon="0.42011">
        <ele>75</ele>
        <time>2025-04-16T10:19:37Z</time>
      </trkpt>
      <trkpt lat="45.2576" lon="0.41983">
        <ele>75</ele>
        <time>2025-04-16T10:19:41Z</time>
      </trkpt>
      <trkpt lat="45.25797" lon="0.41921">
        <ele>79</ele>
        <time>2025-04-16T10:19:51Z</time>
      </trkpt>
      <trkpt lat="45.25804" lon="0.41894">
        <ele>80</ele>
        <time>2025-04-16T10:19:55Z</time>
      </trkpt>
      <trkpt lat="45.25813" lon="0.41811">
        <ele>84</ele>
        <time>2025-04-16T10:20:05Z</time>
      </trkpt>
      <trkpt lat="45.25831" lon="0.4171">
        <ele>88</ele>
        <time>2025-04-16T10:20:18Z</time>
      </trkpt>
      <trkpt lat="45.25838" lon="0.4167">
        <ele>88</ele>
        <time>2025-04-16T10:20:24Z</time>
      </trkpt>
      <trkpt lat="45.25911" lon="0.41421">
        <ele>82</ele>
        <time>2025-04-16T10:20:57Z</time>
      </trkpt>
      <trkpt lat="45.25919" lon="0.41374">
        <ele>83</ele>
        <time>2025-04-16T10:21:03Z</time>
      </trkpt>
      <trkpt lat="45.25925" lon="0.41291">
        <ele>82</ele>
        <time>2025-04-16T10:21:14Z</time>
      </trkpt>
      <trkpt lat="45.25934" lon="0.41086">
        <ele>80</ele>
        <time>2025-04-16T10:21:40Z</time>
      </trkpt>
      <trkpt lat="45.2593" lon="0.41063">
        <ele>79</ele>
        <time>2025-04-16T10:21:43Z</time>
      </trkpt>
      <trkpt lat="45.25928" lon="0.41058">
        <ele>79</ele>
        <time>2025-04-16T10:21:43Z</time>
      </trkpt>
      <trkpt lat="45.25933" lon="0.41044">
        <ele>79</ele>
        <time>2025-04-16T10:21:45Z</time>
      </trkpt>
      <trkpt lat="45.25937" lon="0.41026">
        <ele>78</ele>
        <time>2025-04-16T10:21:48Z</time>
      </trkpt>
      <trkpt lat="45.25944" lon="0.40932">
        <ele>76</ele>
        <time>2025-04-16T10:21:59Z</time>
      </trkpt>
      <trkpt lat="45.25947" lon="0.40837">
        <ele>75</ele>
        <time>2025-04-16T10:22:11Z</time>
      </trkpt>
      <trkpt lat="45.25951" lon="0.40773">
        <ele>74</ele>
        <time>2025-04-16T10:22:19Z</time>
      </trkpt>
      <trkpt lat="45.25957" lon="0.40735">
        <ele>74</ele>
        <time>2025-04-16T10:22:24Z</time>
      </trkpt>
      <trkpt lat="45.25968" lon="0.40686">
        <ele>72</ele>
        <time>2025-04-16T10:22:31Z</time>
      </trkpt>
      <trkpt lat="45.2605" lon="0.40421">
        <ele>70</ele>
        <time>2025-04-16T10:23:07Z</time>
      </trkpt>
      <trkpt lat="45.26102" lon="0.4028">
        <ele>70</ele>
        <time>2025-04-16T10:23:27Z</time>
      </trkpt>
      <trkpt lat="45.26331" lon="0.39838">
        <ele>73</ele>
        <time>2025-04-16T10:24:36Z</time>
      </trkpt>
      <trkpt lat="45.2636" lon="0.39772">
        <ele>74</ele>
        <time>2025-04-16T10:24:45Z</time>
      </trkpt>
      <trkpt lat="45.26371" lon="0.39738">
        <ele>75</ele>
        <time>2025-04-16T10:24:50Z</time>
      </trkpt>
      <trkpt lat="45.26378" lon="0.39696">
        <ele>76</ele>
        <time>2025-04-16T10:24:55Z</time>
      </trkpt>
      <trkpt lat="45.26378" lon="0.39652">
        <ele>76</ele>
        <time>2025-04-16T10:25:01Z</time>
      </trkpt>
      <trkpt lat="45.26347" lon="0.39157">
        <ele>67</ele>
        <time>2025-04-16T10:26:03Z</time>
      </trkpt>
      <trkpt lat="45.26349" lon="0.39121">
        <ele>67</ele>
        <time>2025-04-16T10:26:08Z</time>
      </trkpt>
      <trkpt lat="45.26351" lon="0.39108">
        <ele>67</ele>
        <time>2025-04-16T10:26:09Z</time>
      </trkpt>
      <trkpt lat="45.26355" lon="0.39087">
        <ele>67</ele>
        <time>2025-04-16T10:26:12Z</time>
      </trkpt>
      <trkpt lat="45.26357" lon="0.39081">
        <ele>67</ele>
        <time>2025-04-16T10:26:13Z</time>
      </trkpt>
      <trkpt lat="45.26355" lon="0.39069">
        <ele>67</ele>
        <time>2025-04-16T10:26:15Z</time>
      </trkpt>
      <trkpt lat="45.26355" lon="0.39054">
        <ele>68</ele>
        <time>2025-04-16T10:26:16Z</time>
      </trkpt>
      <trkpt lat="45.26366" lon="0.38959">
        <ele>69</ele>
        <time>2025-04-16T10:26:28Z</time>
      </trkpt>
      <trkpt lat="45.26368" lon="0.3894">
        <ele>69</ele>
        <time>2025-04-16T10:26:31Z</time>
      </trkpt>
      <trkpt lat="45.26366" lon="0.38926">
        <ele>69</ele>
        <time>2025-04-16T10:26:33Z</time>
      </trkpt>
      <trkpt lat="45.26357" lon="0.38898">
        <ele>70</ele>
        <time>2025-04-16T10:26:37Z</time>
      </trkpt>
      <trkpt lat="45.26329" lon="0.38843">
        <ele>70</ele>
        <time>2025-04-16T10:26:45Z</time>
      </trkpt>
      <trkpt lat="45.26312" lon="0.38807">
        <ele>71</ele>
        <time>2025-04-16T10:26:50Z</time>
      </trkpt>
      <trkpt lat="45.26306" lon="0.38785">
        <ele>71</ele>
        <time>2025-04-16T10:26:53Z</time>
      </trkpt>
      <trkpt lat="45.26304" lon="0.38759">
        <ele>72</ele>
        <time>2025-04-16T10:26:57Z</time>
      </trkpt>
      <trkpt lat="45.26307" lon="0.38519">
        <ele>78</ele>
        <time>2025-04-16T10:27:27Z</time>
      </trkpt>
      <trkpt lat="45.26305" lon="0.38475">
        <ele>78</ele>
        <time>2025-04-16T10:27:32Z</time>
      </trkpt>
      <trkpt lat="45.2629" lon="0.38307">
        <ele>78</ele>
        <time>2025-04-16T10:27:53Z</time>
      </trkpt>
      <trkpt lat="45.26285" lon="0.38233">
        <ele>78</ele>
        <time>2025-04-16T10:28:03Z</time>
      </trkpt>
      <trkpt lat="45.26284" lon="0.38172">
        <ele>78</ele>
        <time>2025-04-16T10:28:10Z</time>
      </trkpt>
      <trkpt lat="45.26288" lon="0.38084">
        <ele>78</ele>
        <time>2025-04-16T10:28:21Z</time>
      </trkpt>
      <trkpt lat="45.26293" lon="0.38053">
        <ele>77</ele>
        <time>2025-04-16T10:28:25Z</time>
      </trkpt>
      <trkpt lat="45.26297" lon="0.38032">
        <ele>77</ele>
        <time>2025-04-16T10:28:28Z</time>
      </trkpt>
      <trkpt lat="45.2631" lon="0.3799">
        <ele>77</ele>
        <time>2025-04-16T10:28:34Z</time>
      </trkpt>
      <trkpt lat="45.26335" lon="0.37922">
        <ele>77</ele>
        <time>2025-04-16T10:28:44Z</time>
      </trkpt>
      <trkpt lat="45.26341" lon="0.37884">
        <ele>78</ele>
        <time>2025-04-16T10:28:48Z</time>
      </trkpt>
      <trkpt lat="45.26342" lon="0.37856">
        <ele>78</ele>
        <time>2025-04-16T10:28:52Z</time>
      </trkpt>
      <trkpt lat="45.2634" lon="0.37826">
        <ele>79</ele>
        <time>2025-04-16T10:28:56Z</time>
      </trkpt>
      <trkpt lat="45.26335" lon="0.37798">
        <ele>79</ele>
        <time>2025-04-16T10:28:59Z</time>
      </trkpt>
      <trkpt lat="45.2632" lon="0.37749">
        <ele>78</ele>
        <time>2025-04-16T10:29:06Z</time>
      </trkpt>
      <trkpt lat="45.26312" lon="0.3771">
        <ele>78</ele>
        <time>2025-04-16T10:29:11Z</time>
      </trkpt>
      <trkpt lat="45.26307" lon="0.37659">
        <ele>77</ele>
        <time>2025-04-16T10:29:18Z</time>
      </trkpt>
      <trkpt lat="45.26304" lon="0.37557">
        <ele>75</ele>
        <time>2025-04-16T10:29:30Z</time>
      </trkpt>
      <trkpt lat="45.26294" lon="0.37473">
        <ele>74</ele>
        <time>2025-04-16T10:29:41Z</time>
      </trkpt>
      <trkpt lat="45.26291" lon="0.37435">
        <ele>74</ele>
        <time>2025-04-16T10:29:46Z</time>
      </trkpt>
      <trkpt lat="45.2629" lon="0.37407">
        <ele>74</ele>
        <time>2025-04-16T10:29:49Z</time>
      </trkpt>
      <trkpt lat="45.26295" lon="0.37243">
        <ele>68</ele>
        <time>2025-04-16T10:30:10Z</time>
      </trkpt>
      <trkpt lat="45.26295" lon="0.37219">
        <ele>67</ele>
        <time>2025-04-16T10:30:13Z</time>
      </trkpt>
      <trkpt lat="45.26299" lon="0.37017">
        <ele>67</ele>
        <time>2025-04-16T10:30:38Z</time>
      </trkpt>
      <trkpt lat="45.26264" lon="0.36545">
        <ele>71</ele>
        <time>2025-04-16T10:31:38Z</time>
      </trkpt>
      <trkpt lat="45.2626" lon="0.36454">
        <ele>71</ele>
        <time>2025-04-16T10:31:49Z</time>
      </trkpt>
      <trkpt lat="45.26238" lon="0.36376">
        <ele>69</ele>
        <time>2025-04-16T10:32:00Z</time>
      </trkpt>
      <trkpt lat="45.2623" lon="0.36336">
        <ele>69</ele>
        <time>2025-04-16T10:32:05Z</time>
      </trkpt>
      <trkpt lat="45.26227" lon="0.36312">
        <ele>69</ele>
        <time>2025-04-16T10:32:08Z</time>
      </trkpt>
      <trkpt lat="45.26225" lon="0.36273">
        <ele>69</ele>
        <time>2025-04-16T10:32:13Z</time>
      </trkpt>
      <trkpt lat="45.26225" lon="0.36143">
        <ele>68</ele>
        <time>2025-04-16T10:32:29Z</time>
      </trkpt>
      <trkpt lat="45.26216" lon="0.36088">
        <ele>67</ele>
        <time>2025-04-16T10:32:36Z</time>
      </trkpt>
      <trkpt lat="45.26214" lon="0.36082">
        <ele>67</ele>
        <time>2025-04-16T10:32:37Z</time>
      </trkpt>
      <trkpt lat="45.26199" lon="0.36014">
        <ele>66</ele>
        <time>2025-04-16T10:32:46Z</time>
      </trkpt>
      <trkpt lat="45.26194" lon="0.35955">
        <ele>65</ele>
        <time>2025-04-16T10:32:53Z</time>
      </trkpt>
      <trkpt lat="45.26191" lon="0.35837">
        <ele>64</ele>
        <time>2025-04-16T10:33:08Z</time>
      </trkpt>
      <trkpt lat="45.26186" lon="0.35739">
        <ele>66</ele>
        <time>2025-04-16T10:33:20Z</time>
      </trkpt>
      <trkpt lat="45.26148" lon="0.35455">
        <ele>65</ele>
        <time>2025-04-16T10:33:57Z</time>
      </trkpt>
      <trkpt lat="45.26146" lon="0.35406">
        <ele>65</ele>
        <time>2025-04-16T10:34:03Z</time>
      </trkpt>
      <trkpt lat="45.26148" lon="0.35373">
        <ele>65</ele>
        <time>2025-04-16T10:34:07Z</time>
      </trkpt>
      <trkpt lat="45.26154" lon="0.35333">
        <ele>65</ele>
        <time>2025-04-16T10:34:12Z</time>
      </trkpt>
      <trkpt lat="45.2625" lon="0.3476">
        <ele>64</ele>
        <time>2025-04-16T10:35:26Z</time>
      </trkpt>
      <trkpt lat="45.26254" lon="0.34733">
        <ele>64</ele>
        <time>2025-04-16T10:35:29Z</time>
      </trkpt>
      <trkpt lat="45.26254" lon="0.34713">
        <ele>64</ele>
        <time>2025-04-16T10:35:32Z</time>
      </trkpt>
      <trkpt lat="45.26249" lon="0.34681">
        <ele>63</ele>
        <time>2025-04-16T10:35:36Z</time>
      </trkpt>
      <trkpt lat="45.26135" lon="0.34322">
        <ele>61</ele>
        <time>2025-04-16T10:36:25Z</time>
      </trkpt>
      <trkpt lat="45.26131" lon="0.34298">
        <ele>61</ele>
        <time>2025-04-16T10:36:28Z</time>
      </trkpt>
      <trkpt lat="45.26132" lon="0.34295">
        <ele>61</ele>
        <time>2025-04-16T10:36:29Z</time>
      </trkpt>
      <trkpt lat="45.26133" lon="0.34285">
        <ele>61</ele>
        <time>2025-04-16T10:36:30Z</time>
      </trkpt>
      <trkpt lat="45.26128" lon="0.34278">
        <ele>61</ele>
        <time>2025-04-16T10:36:31Z</time>
      </trkpt>
      <trkpt lat="45.26122" lon="0.34276">
        <ele>61</ele>
        <time>2025-04-16T10:36:32Z</time>
      </trkpt>
      <trkpt lat="45.2612" lon="0.34278">
        <ele>61</ele>
        <time>2025-04-16T10:36:33Z</time>
      </trkpt>
      <trkpt lat="45.26115" lon="0.34285">
        <ele>61</ele>
        <time>2025-04-16T10:36:34Z</time>
      </trkpt>
      <trkpt lat="45.26101" lon="0.34287">
        <ele>61</ele>
        <time>2025-04-16T10:36:36Z</time>
      </trkpt>
      <trkpt lat="45.26056" lon="0.34284">
        <ele>61</ele>
        <time>2025-04-16T10:36:44Z</time>
      </trkpt>
      <trkpt lat="45.25963" lon="0.34288">
        <ele>61</ele>
        <time>2025-04-16T10:37:01Z</time>
      </trkpt>
      <trkpt lat="45.25925" lon="0.34288">
        <ele>61</ele>
        <time>2025-04-16T10:37:08Z</time>
      </trkpt>
      <trkpt lat="45.25882" lon="0.34289">
        <ele>62</ele>
        <time>2025-04-16T10:37:15Z</time>
      </trkpt>
      <trkpt lat="45.25797" lon="0.3429">
        <ele>63</ele>
        <time>2025-04-16T10:37:31Z</time>
      </trkpt>
      <trkpt lat="45.25768" lon="0.34291">
        <ele>62</ele>
        <time>2025-04-16T10:37:36Z</time>
      </trkpt>
      <trkpt lat="45.25715" lon="0.34292">
        <ele>62</ele>
        <time>2025-04-16T10:37:45Z</time>
      </trkpt>
      <trkpt lat="45.25693" lon="0.3429">
        <ele>61</ele>
        <time>2025-04-16T10:37:49Z</time>
      </trkpt>
      <trkpt lat="45.25678" lon="0.34286">
        <ele>61</ele>
        <time>2025-04-16T10:37:52Z</time>
      </trkpt>
      <trkpt lat="45.2566" lon="0.34276">
        <ele>61</ele>
        <time>2025-04-16T10:37:55Z</time>
      </trkpt>
      <trkpt lat="45.25619" lon="0.34246">
        <ele>63</ele>
        <time>2025-04-16T10:38:03Z</time>
      </trkpt>
      <trkpt lat="45.25604" lon="0.34233">
        <ele>63</ele>
        <time>2025-04-16T10:38:07Z</time>
      </trkpt>
      <trkpt lat="45.25505" lon="0.34162">
        <ele>65</ele>
        <time>2025-04-16T10:38:26Z</time>
      </trkpt>
      <trkpt lat="45.25472" lon="0.34135">
        <ele>67</ele>
        <time>2025-04-16T10:38:33Z</time>
      </trkpt>
      <trkpt lat="45.25462" lon="0.34115">
        <ele>67</ele>
        <time>2025-04-16T10:38:36Z</time>
      </trkpt>
      <trkpt lat="45.25463" lon="0.34104">
        <ele>67</ele>
        <time>2025-04-16T10:38:37Z</time>
      </trkpt>
      <trkpt lat="45.25462" lon="0.34099">
        <ele>67</ele>
        <time>2025-04-16T10:38:38Z</time>
      </trkpt>
      <trkpt lat="45.25469" lon="0.34083">
        <ele>66</ele>
        <time>2025-04-16T10:38:41Z</time>
      </trkpt>
      <trkpt lat="45.25484" lon="0.34069">
        <ele>66</ele>
        <time>2025-04-16T10:38:44Z</time>
      </trkpt>
      <trkpt lat="45.25494" lon="0.34054">
        <ele>65</ele>
        <time>2025-04-16T10:38:46Z</time>
      </trkpt>
      <trkpt lat="45.255" lon="0.34039">
        <ele>64</ele>
        <time>2025-04-16T10:38:48Z</time>
      </trkpt>
      <trkpt lat="45.25513" lon="0.33978">
        <ele>64</ele>
        <time>2025-04-16T10:38:56Z</time>
      </trkpt>
      <trkpt lat="45.25514" lon="0.33974">
        <ele>64</ele>
        <time>2025-04-16T10:38:57Z</time>
      </trkpt>
      <trkpt lat="45.25547" lon="0.33806">
        <ele>67</ele>
        <time>2025-04-16T10:39:19Z</time>
      </trkpt>
      <trkpt lat="45.25549" lon="0.33787">
        <ele>67</ele>
        <time>2025-04-16T10:39:21Z</time>
      </trkpt>
      <trkpt lat="45.2555" lon="0.33766">
        <ele>68</ele>
        <time>2025-04-16T10:39:24Z</time>
      </trkpt>
      <trkpt lat="45.25541" lon="0.33708">
        <ele>69</ele>
        <time>2025-04-16T10:39:31Z</time>
      </trkpt>
      <trkpt lat="45.25539" lon="0.33679">
        <ele>69</ele>
        <time>2025-04-16T10:39:35Z</time>
      </trkpt>
      <trkpt lat="45.25536" lon="0.33672">
        <ele>70</ele>
        <time>2025-04-16T10:39:36Z</time>
      </trkpt>
      <trkpt lat="45.2553" lon="0.33667">
        <ele>70</ele>
        <time>2025-04-16T10:39:37Z</time>
      </trkpt>
      <trkpt lat="45.25452" lon="0.33655">
        <ele>70</ele>
        <time>2025-04-16T10:39:51Z</time>
      </trkpt>
      <trkpt lat="45.25437" lon="0.3365">
        <ele>69</ele>
        <time>2025-04-16T10:39:54Z</time>
      </trkpt>
      <trkpt lat="45.25158" lon="0.33606">
        <ele>72</ele>
        <time>2025-04-16T10:40:44Z</time>
      </trkpt>
      <trkpt lat="45.25076" lon="0.33593">
        <ele>72</ele>
        <time>2025-04-16T10:40:59Z</time>
      </trkpt>
      <trkpt lat="45.25073" lon="0.33623">
        <ele>71</ele>
        <time>2025-04-16T10:41:02Z</time>
      </trkpt>
      <trkpt lat="45.25077" lon="0.33681">
        <ele>70</ele>
        <time>2025-04-16T10:41:10Z</time>
      </trkpt>
      <trkpt lat="45.24984" lon="0.337">
        <ele>72</ele>
        <time>2025-04-16T10:41:26Z</time>
      </trkpt>
      <trkpt lat="45.24982" lon="0.337">
        <ele>72</ele>
        <time>2025-04-16T10:41:27Z</time>
      </trkpt>
    </trkseg>
  </trk>
</gpx>